Darstellungsparameter: Aktuell verwendete Einstellungen:
Skalierung der Graphiken ... ?
xyx+y,   Skalierungsfaktor:      Skalierung: Modus: x, Faktor: 1
Darstellungszeitraum ... ?
Vom - - bis: - -   Zeitraum: 03.08.2019 - 02.08.2020
Min/Max/Avg-Anzeige ... ?
Zeige MMA aktuell
Zeige MMA Monat
Zeige MMA alles
Zeige --A aktuell
Zeige --A Monat
Zeige --A alles
Keine MMA-Anzeige
MMA:
Keine MMA-Graphiken
MMA-Basis: 03.08.2019 - 02.08.2020
Quicknavigation für Darstellung... ?
Tage:      1T, 2T, 3T, 5T -1T -2T -3T -5T +1T +2T +3T +5T
Wochen: 1W, 2W, 3W -1W -2W -3W +1W +2W +3W
Monate: 1M, 3M, 6M -1M -3M -6M +1M +3M +6M
Jahre:    1J, 3J, 5J, 10J -1J -3J -5J -10J +1J +3J +5J +10J
Nutze für die Darstellung ... ?
Originaldaten oder Mittelwerte auf ...
Stundenbasis Tagesbasis Wochenbasis
Monatsbasis Jahresbasis      Datenbasis: Original-Daten
Darstellen als:
Statistik (Auto) Statistik J:M      Darstellung:
Zur Graphik,    zurück zur Übersicht aller Sensoren.
 
Tabellarische Datenbersicht: ?
 
Sensor: Nr:Datum:Temp:Feuchte:
Aussen-T/F 1 03-08-2019 00:06:17 17.4 C 36 %
2 03-08-2019 00:18:18 17.7 C 35 %
3 03-08-2019 00:30:17 18.6 C 26 %
4 03-08-2019 00:42:17 18.6 C 26 %
5 03-08-2019 00:54:18 18.6 C 26 %
6 03-08-2019 01:06:17 18.6 C 26 %
7 03-08-2019 01:19:17 18.6 C 26 %
8 03-08-2019 01:30:17 18.5 C 27 %
9 03-08-2019 01:42:17 18.4 C 28 %
10 03-08-2019 01:54:17 18.4 C 30 %
11 03-08-2019 02:06:17 18.4 C 30 %
12 03-08-2019 02:18:17 18.5 C 30 %
13 03-08-2019 02:30:17 18.5 C 30 %
14 03-08-2019 02:42:17 18.4 C 31 %
15 03-08-2019 02:54:17 18.3 C 31 %
16 03-08-2019 03:06:17 18.3 C 31 %
17 03-08-2019 03:18:18 18.3 C 32 %
18 03-08-2019 03:30:17 18.3 C 33 %
19 03-08-2019 03:42:17 18.3 C 33 %
20 03-08-2019 03:54:17 18.3 C 34 %
21 03-08-2019 04:06:17 18.2 C 35 %
22 03-08-2019 04:19:17 18.3 C 35 %
23 03-08-2019 04:30:17 18.3 C 35 %
24 03-08-2019 04:42:17 18.3 C 35 %
25 03-08-2019 04:54:18 18.2 C 35 %
Sensor: Nr:Datum:Temp:Feuchte:
Aussen-T/F 26 03-08-2019 05:06:17 18.3 C 35 %
27 03-08-2019 05:18:18 18.3 C 35 %
28 03-08-2019 05:30:17 18.2 C 35 %
29 03-08-2019 05:42:17 18.2 C 35 %
30 03-08-2019 05:55:17 18.1 C 35 %
31 03-08-2019 06:06:18 18 C 35 %
32 03-08-2019 06:18:17 18.1 C 35 %
33 03-08-2019 06:30:18 17.9 C 35 %
34 03-08-2019 06:42:18 18 C 35 %
35 03-08-2019 06:54:17 18 C 34 %
36 03-08-2019 07:07:17 18 C 33 %
37 03-08-2019 07:18:17 18 C 31 %
38 03-08-2019 07:31:17 18.1 C 31 %
39 03-08-2019 07:43:17 18.1 C 30 %
40 03-08-2019 07:54:18 17.9 C 31 %
41 03-08-2019 08:06:17 18 C 31 %
42 03-08-2019 08:19:17 18 C 31 %
43 03-08-2019 08:30:17 18.3 C 30 %
44 03-08-2019 08:42:17 18.4 C 28 %
45 03-08-2019 08:54:17 18.4 C 26 %
46 03-08-2019 09:07:17 18.5 C 24 %
47 03-08-2019 09:18:17 18.9 C 22 %
48 03-08-2019 09:31:17 18.9 C 21 %
49 03-08-2019 09:43:17 19.2 C 20 %
50 03-08-2019 09:54:17 19.3 C 20 %
Sensor: Nr:Datum:Temp:Feuchte:
Aussen-T/F 51 03-08-2019 10:07:17 19.8 C 20 %
52 03-08-2019 10:18:17 20.5 C 20 %
53 03-08-2019 10:31:17 20 C 20 %
54 03-08-2019 10:43:17 20.3 C 20 %
55 03-08-2019 10:54:17 20.5 C 20 %
56 03-08-2019 11:06:18 20.5 C 20 %
57 03-08-2019 11:19:17 20.7 C 20 %
58 03-08-2019 11:31:17 21.8 C 20 %
59 03-08-2019 11:43:17 22.7 C 20 %
60 03-08-2019 11:54:18 22 C 20 %
61 03-08-2019 12:07:17 22.1 C 20 %
62 03-08-2019 12:18:17 22.5 C 20 %
63 03-08-2019 12:31:17 22.8 C 20 %
64 03-08-2019 12:43:17 22.6 C 20 %
65 03-08-2019 12:54:18 22.8 C 20 %
66 03-08-2019 13:07:17 22.6 C 20 %
67 03-08-2019 13:19:17 23 C 20 %
68 03-08-2019 13:31:17 23.1 C 20 %
69 03-08-2019 13:43:17 22.7 C 20 %
70 03-08-2019 13:54:18 22.2 C 20 %
71 03-08-2019 14:07:17 22.1 C 20 %
72 03-08-2019 14:19:17 22 C 20 %
73 03-08-2019 14:30:18 23.2 C 20 %
74 03-08-2019 14:42:18 23.9 C 20 %
75 03-08-2019 14:55:17 24.6 C 20 %
Sensor: Nr:Datum:Temp:Feuchte:
Aussen-T/F 76 03-08-2019 15:06:18 24 C 20 %
77 03-08-2019 15:19:17 24.8 C 20 %
78 03-08-2019 15:31:17 24.2 C 20 %
79 03-08-2019 15:43:17 24.9 C 20 %
80 03-08-2019 15:55:17 25.1 C 20 %
81 03-08-2019 16:06:18 25.8 C 20 %
82 03-08-2019 16:19:17 25.9 C 20 %
83 03-08-2019 16:30:18 26 C 20 %
84 03-08-2019 16:42:18 26.4 C 20 %
85 03-08-2019 16:55:17 26.1 C 20 %
86 03-08-2019 17:06:18 26.5 C 20 %
87 03-08-2019 17:19:17 25.8 C 20 %
88 03-08-2019 17:30:18 25.8 C 20 %
89 03-08-2019 17:42:18 26.3 C 20 %
90 03-08-2019 17:55:17 25.8 C 20 %
91 03-08-2019 18:07:17 26.3 C 20 %
92 03-08-2019 18:19:18 26.5 C 20 %
93 03-08-2019 18:31:17 25.5 C 20 %
94 03-08-2019 18:43:17 25.2 C 20 %
95 03-08-2019 18:55:17 26.1 C 20 %
96 03-08-2019 19:07:17 25.5 C 20 %
97 03-08-2019 19:19:17 25.1 C 20 %
98 03-08-2019 19:31:17 23.9 C 20 %
99 03-08-2019 19:43:17 24.1 C 20 %
100 03-08-2019 19:55:17 23.7 C 20 %
Sensor: Nr:Datum:Temp:Feuchte:
Aussen-T/F 101 03-08-2019 20:07:17 23.4 C 20 %
102 03-08-2019 20:19:17 23.2 C 20 %
103 03-08-2019 20:31:17 22.8 C 20 %
104 03-08-2019 20:43:18 22.3 C 20 %
105 03-08-2019 20:55:17 22 C 20 %
106 03-08-2019 21:07:17 21.6 C 20 %
107 03-08-2019 21:19:17 20.8 C 20 %
108 03-08-2019 21:31:17 20.4 C 20 %
109 03-08-2019 21:43:18 20.1 C 20 %
110 03-08-2019 21:55:17 19 C 20 %
111 03-08-2019 22:07:18 18.5 C 20 %
112 03-08-2019 22:19:17 18.1 C 20 %
113 03-08-2019 22:31:18 17.9 C 20 %
114 03-08-2019 22:43:18 17.6 C 20 %
115 03-08-2019 22:55:17 17.7 C 20 %
116 03-08-2019 23:07:18 17.5 C 22 %
117 03-08-2019 23:19:17 17.4 C 24 %
118 03-08-2019 23:31:17 17.1 C 24 %
119 03-08-2019 23:43:17 16.8 C 26 %
120 03-08-2019 23:55:17 16.7 C 26 %
121 04-08-2019 00:07:17 16.5 C 27 %
122 04-08-2019 00:19:17 16.3 C 28 %
123 04-08-2019 00:31:17 16.1 C 29 %
124 04-08-2019 00:43:17 16 C 30 %
125 04-08-2019 00:55:18 15.7 C 31 %
Sensor: Nr:Datum:Temp:Feuchte:
Aussen-T/F 126 04-08-2019 01:07:17 15.6 C 33 %
127 04-08-2019 01:19:18 15.1 C 34 %
128 04-08-2019 01:31:17 14.8 C 36 %
129 04-08-2019 01:43:17 14.6 C 37 %
130 04-08-2019 01:55:17 14.3 C 37 %
131 04-08-2019 02:07:18 14.2 C 38 %
132 04-08-2019 02:19:17 13.9 C 40 %
133 04-08-2019 02:31:17 13.8 C 41 %
134 04-08-2019 02:43:17 13.8 C 41 %
135 04-08-2019 02:55:17 13.6 C 41 %
136 04-08-2019 03:07:18 13.6 C 41 %
137 04-08-2019 03:19:17 13.4 C 41 %
138 04-08-2019 03:31:18 13.4 C 42 %
139 04-08-2019 03:43:18 13.2 C 41 %
140 04-08-2019 03:55:17 13 C 42 %
141 04-08-2019 04:07:17 13 C 42 %
142 04-08-2019 04:19:17 13 C 43 %
143 04-08-2019 04:31:17 13 C 43 %
144 04-08-2019 04:43:17 12.9 C 44 %
145 04-08-2019 04:55:17 12.8 C 44 %
146 04-08-2019 05:07:17 12.8 C 44 %
147 04-08-2019 05:19:17 12.7 C 44 %
148 04-08-2019 05:31:17 12.5 C 44 %
149 04-08-2019 05:43:17 12.4 C 44 %
150 04-08-2019 05:55:17 12.4 C 45 %
Sensor: Nr:Datum:Temp:Feuchte:
Aussen-T/F 151 04-08-2019 06:07:17 12.4 C 45 %
152 04-08-2019 06:19:17 12.4 C 45 %
153 04-08-2019 06:31:17 12.5 C 45 %
154 04-08-2019 06:43:17 12.7 C 45 %
155 04-08-2019 06:55:17 12.8 C 45 %
156 04-08-2019 07:07:17 12.8 C 45 %
157 04-08-2019 07:19:16 13 C 44 %
158 04-08-2019 07:31:17 13.1 C 44 %
159 04-08-2019 07:43:17 13.3 C 44 %
160 04-08-2019 07:55:17 13.6 C 43 %
161 04-08-2019 08:07:17 13.8 C 43 %
162 04-08-2019 08:19:17 14 C 42 %
163 04-08-2019 08:31:17 14.2 C 42 %
164 04-08-2019 08:43:17 14.7 C 42 %
165 04-08-2019 08:55:17 15 C 40 %
166 04-08-2019 09:07:17 15.5 C 38 %
167 04-08-2019 09:19:17 16 C 35 %
168 04-08-2019 09:31:17 16.6 C 33 %
169 04-08-2019 09:43:17 17 C 32 %
170 04-08-2019 09:55:17 18.4 C 25 %
171 04-08-2019 10:07:17 18.4 C 24 %
172 04-08-2019 10:19:16 18.4 C 24 %
173 04-08-2019 10:31:17 18.4 C 24 %
174 04-08-2019 10:43:17 20.5 C 20 %
175 04-08-2019 10:55:17 21.6 C 20 %
Sensor: Nr:Datum:Temp:Feuchte:
Aussen-T/F 176 04-08-2019 11:07:17 23.1 C 20 %
177 04-08-2019 11:19:17 23 C 20 %
178 04-08-2019 11:31:17 25.1 C 20 %
179 04-08-2019 11:43:17 25.2 C 20 %
180 04-08-2019 11:55:17 24.4 C 20 %
181 04-08-2019 12:07:17 24 C 20 %
182 04-08-2019 12:19:17 23.7 C 20 %
183 04-08-2019 12:31:16 24.2 C 20 %
184 04-08-2019 12:43:16 24.7 C 20 %
185 04-08-2019 12:55:17 24.7 C 20 %
186 04-08-2019 13:07:17 24.7 C 20 %
187 04-08-2019 13:19:17 25 C 20 %
188 04-08-2019 13:31:17 25.1 C 20 %
189 04-08-2019 13:43:17 25.3 C 20 %
190 04-08-2019 13:55:17 25.4 C 20 %
191 04-08-2019 14:07:16 25.8 C 20 %
192 04-08-2019 14:19:16 26.3 C 20 %
193 04-08-2019 14:31:17 27 C 20 %
194 04-08-2019 14:43:17 27.2 C 20 %
195 04-08-2019 14:55:16 28 C 20 %
196 04-08-2019 15:07:16 28.5 C 20 %
197 04-08-2019 15:19:16 28.2 C 20 %
198 04-08-2019 15:31:17 29.4 C 20 %
199 04-08-2019 15:43:17 30.4 C 20 %
200 04-08-2019 15:55:16 30.8 C 20 %
Sensor: Nr:Datum:Temp:Feuchte:
Aussen-T/F 201 04-08-2019 16:07:16 31 C 20 %
202 04-08-2019 16:19:16 30.6 C 20 %
203 04-08-2019 16:31:17 30.2 C 20 %
204 04-08-2019 16:43:18 30.6 C 20 %
205 04-08-2019 16:55:17 30.8 C 20 %
206 04-08-2019 17:07:16 31 C 20 %
207 04-08-2019 17:19:17 31.9 C 20 %
208 04-08-2019 17:31:16 32.2 C 20 %
209 04-08-2019 17:43:16 32.5 C 20 %
210 04-08-2019 17:55:16 31.9 C 20 %
211 04-08-2019 18:07:16 31.5 C 20 %
212 04-08-2019 18:19:16 31.5 C 20 %
213 04-08-2019 18:31:16 32.5 C 20 %
214 04-08-2019 18:43:16 31.4 C 20 %
215 04-08-2019 18:55:17 30.4 C 20 %
216 04-08-2019 19:07:16 29.4 C 20 %
217 04-08-2019 19:19:17 28.9 C 20 %
218 04-08-2019 19:31:16 28.3 C 20 %
219 04-08-2019 19:43:16 27.4 C 20 %
220 04-08-2019 19:55:17 26.6 C 20 %
221 04-08-2019 20:07:16 26.1 C 20 %
222 04-08-2019 20:19:16 25.6 C 20 %
223 04-08-2019 20:31:17 24.9 C 20 %
224 04-08-2019 20:43:17 24.2 C 20 %
225 04-08-2019 20:55:16 23.5 C 20 %
Sensor: Nr:Datum:Temp:Feuchte:
Aussen-T/F 226 04-08-2019 21:07:16 22.8 C 20 %
227 04-08-2019 21:19:16 22.4 C 20 %
228 04-08-2019 21:31:16 22.1 C 20 %
229 04-08-2019 21:43:16 22 C 20 %
230 04-08-2019 21:55:16 21.8 C 20 %
231 04-08-2019 22:07:17 22 C 20 %
232 04-08-2019 22:19:16 22 C 20 %
233 04-08-2019 22:31:16 22.4 C 20 %
234 04-08-2019 22:43:16 22.3 C 20 %
235 04-08-2019 22:55:16 22.5 C 20 %
236 04-08-2019 23:07:16 22.6 C 20 %
237 04-08-2019 23:19:16 22.6 C 20 %
238 04-08-2019 23:31:16 22.9 C 20 %
239 04-08-2019 23:43:16 23.3 C 20 %
240 04-08-2019 23:55:16 23.5 C 20 %
241 05-08-2019 00:07:16 23.5 C 20 %
242 05-08-2019 00:19:16 23.6 C 20 %
243 05-08-2019 00:31:16 23.1 C 20 %
244 05-08-2019 00:43:16 22.9 C 20 %
245 05-08-2019 00:55:16 22.3 C 20 %
246 05-08-2019 01:07:16 21.7 C 20 %
247 05-08-2019 01:19:16 21.4 C 20 %
248 05-08-2019 01:31:16 21.1 C 20 %
249 05-08-2019 01:43:16 20.9 C 20 %
250 05-08-2019 01:55:16 20.5 C 20 %
Sensor: Nr:Datum:Temp:Feuchte:
Aussen-T/F 251 05-08-2019 02:07:15 20.2 C 20 %
252 05-08-2019 02:19:16 20.1 C 20 %
253 05-08-2019 02:31:16 20.1 C 20 %
254 05-08-2019 02:43:16 19.9 C 20 %
255 05-08-2019 02:55:18 19.8 C 20 %
256 05-08-2019 03:07:17 19.6 C 20 %
257 05-08-2019 03:19:17 19.5 C 20 %
258 05-08-2019 03:31:17 19.4 C 20 %
259 05-08-2019 03:43:17 19.5 C 20 %
260 05-08-2019 03:55:18 19.7 C 20 %
261 05-08-2019 04:07:17 19.1 C 20 %
262 05-08-2019 04:19:18 18.7 C 26 %
263 05-08-2019 04:31:17 18.8 C 25 %
264 05-08-2019 04:43:17 19 C 22 %
265 05-08-2019 04:55:18 19.7 C 20 %
266 05-08-2019 05:07:17 19.4 C 21 %
267 05-08-2019 05:19:17 19.4 C 21 %
268 05-08-2019 05:31:17 19.7 C 20 %
269 05-08-2019 05:43:17 19.1 C 25 %
270 05-08-2019 05:55:18 18.2 C 35 %
271 05-08-2019 06:07:17 18.3 C 34 %
272 05-08-2019 06:19:17 17.8 C 37 %
273 05-08-2019 06:31:17 17.6 C 43 %
274 05-08-2019 06:43:17 17.5 C 44 %
275 05-08-2019 06:55:17 17.2 C 44 %
Sensor: Nr:Datum:Temp:Feuchte:
Aussen-T/F 276 05-08-2019 07:07:17 17.2 C 45 %
277 05-08-2019 07:19:18 17.1 C 46 %
278 05-08-2019 07:31:17 17.3 C 47 %
279 05-08-2019 07:43:17 16.8 C 47 %
280 05-08-2019 07:55:17 17.1 C 47 %
281 05-08-2019 08:07:17 17.2 C 48 %
282 05-08-2019 08:19:18 17.2 C 47 %
283 05-08-2019 08:31:17 17.7 C 49 %
284 05-08-2019 08:43:17 17.7 C 48 %
285 05-08-2019 08:55:17 17.9 C 48 %
286 05-08-2019 09:07:17 18.1 C 46 %
287 05-08-2019 09:19:17 18.5 C 45 %
288 05-08-2019 09:31:17 18.9 C 41 %
289 05-08-2019 09:43:17 19.4 C 39 %
290 05-08-2019 09:55:18 19.7 C 36 %
291 05-08-2019 10:07:17 20.4 C 34 %
292 05-08-2019 10:19:17 20.8 C 32 %
293 05-08-2019 10:31:17 21 C 33 %
294 05-08-2019 10:43:17 21.2 C 28 %
295 05-08-2019 10:55:17 21.6 C 27 %
296 05-08-2019 11:07:17 22.2 C 25 %
297 05-08-2019 11:19:17 22.5 C 25 %
298 05-08-2019 11:31:17 23.2 C 24 %
299 05-08-2019 11:43:17 23.9 C 21 %
300 05-08-2019 11:55:17 24.2 C 20 %
Sensor: Nr:Datum:Temp:Feuchte:
Aussen-T/F 301 05-08-2019 12:07:17 24 C 20 %
302 05-08-2019 12:19:17 24.2 C 20 %
303 05-08-2019 12:31:17 24.7 C 20 %
304 05-08-2019 12:43:17 25.2 C 20 %
305 05-08-2019 12:55:18 25.5 C 20 %
306 05-08-2019 13:07:17 25.8 C 20 %
307 05-08-2019 13:19:17 26.1 C 20 %
308 05-08-2019 13:31:17 26.6 C 20 %
309 05-08-2019 13:43:17 27 C 20 %
310 05-08-2019 13:55:17 27 C 20 %
311 05-08-2019 14:07:17 27.1 C 20 %
312 05-08-2019 14:19:17 27.7 C 20 %
313 05-08-2019 14:31:17 27.7 C 20 %
314 05-08-2019 14:43:17 27.7 C 20 %
315 05-08-2019 14:55:17 28.3 C 20 %
316 05-08-2019 15:07:17 28.4 C 20 %
317 05-08-2019 15:19:17 28.8 C 20 %
318 05-08-2019 15:31:17 28.9 C 20 %
319 05-08-2019 15:43:17 28.9 C 20 %
320 05-08-2019 15:55:18 29.4 C 20 %
321 05-08-2019 16:07:17 29.4 C 20 %
322 05-08-2019 16:19:18 29.6 C 20 %
323 05-08-2019 16:31:17 29.2 C 20 %
324 05-08-2019 16:43:17 28.9 C 20 %
325 05-08-2019 16:55:17 28.6 C 20 %
Sensor: Nr:Datum:Temp:Feuchte:
Aussen-T/F 326 05-08-2019 17:07:18 28.8 C 20 %
327 05-08-2019 17:19:17 28.8 C 20 %
328 05-08-2019 17:31:18 28.7 C 20 %
329 05-08-2019 17:43:18 28.3 C 20 %
330 05-08-2019 17:55:17 28.2 C 20 %
331 05-08-2019 18:07:18 28.2 C 20 %
332 05-08-2019 18:19:17 27.9 C 20 %
333 05-08-2019 18:31:18 27.6 C 20 %
334 05-08-2019 18:43:18 27.6 C 20 %
335 05-08-2019 18:55:17 27.2 C 20 %
336 05-08-2019 19:07:17 27 C 20 %
337 05-08-2019 19:19:18 26.8 C 20 %
338 05-08-2019 19:31:17 26.7 C 20 %
339 05-08-2019 19:43:17 26.4 C 20 %
340 05-08-2019 19:55:18 26 C 20 %
341 05-08-2019 20:07:17 26 C 20 %
342 05-08-2019 20:19:18 25.2 C 20 %
343 05-08-2019 20:31:17 24.3 C 20 %
344 05-08-2019 20:43:17 23.7 C 20 %
345 05-08-2019 20:55:17 22.4 C 20 %
346 05-08-2019 21:07:17 21.9 C 20 %
347 05-08-2019 21:19:17 21.6 C 20 %
348 05-08-2019 21:31:17 21.2 C 20 %
349 05-08-2019 21:43:17 20.8 C 20 %
350 05-08-2019 21:55:17 20.5 C 20 %
Sensor: Nr:Datum:Temp:Feuchte:
Aussen-T/F 351 05-08-2019 22:07:18 20.4 C 20 %
352 05-08-2019 22:19:17 20.3 C 20 %
353 05-08-2019 22:31:17 20 C 20 %
354 05-08-2019 22:43:17 20 C 20 %
355 05-08-2019 22:55:17 19.8 C 20 %
356 05-08-2019 23:07:18 19.5 C 20 %
357 05-08-2019 23:19:17 19.2 C 20 %
358 05-08-2019 23:31:18 18.7 C 21 %
359 05-08-2019 23:43:18 18.5 C 22 %
360 05-08-2019 23:55:17 18.2 C 22 %
361 06-08-2019 00:07:17 18 C 24 %
362 06-08-2019 00:19:17 17.9 C 25 %
363 06-08-2019 00:31:17 17.7 C 25 %
364 06-08-2019 00:43:17 17.7 C 25 %
365 06-08-2019 00:55:17 17.7 C 25 %
366 06-08-2019 01:07:18 17.1 C 27 %
367 06-08-2019 01:19:17 17 C 27 %
368 06-08-2019 01:31:17 16.9 C 28 %
369 06-08-2019 01:43:17 16.8 C 28 %
370 06-08-2019 01:55:17 16.7 C 28 %
371 06-08-2019 02:07:18 16.5 C 30 %
372 06-08-2019 02:19:17 16.6 C 30 %
373 06-08-2019 02:31:18 17.2 C 29 %
374 06-08-2019 02:43:18 17.7 C 27 %
375 06-08-2019 02:55:17 17.6 C 28 %
Sensor: Nr:Datum:Temp:Feuchte:
Aussen-T/F 376 06-08-2019 03:07:17 17.6 C 28 %
377 06-08-2019 03:19:17 17.6 C 29 %
378 06-08-2019 03:31:17 17.7 C 29 %
379 06-08-2019 03:43:18 17.5 C 28 %
380 06-08-2019 03:55:17 17.8 C 27 %
381 06-08-2019 04:07:18 17.5 C 28 %
382 06-08-2019 04:19:17 17.4 C 29 %
383 06-08-2019 04:31:17 16.8 C 30 %
384 06-08-2019 04:43:17 16.8 C 31 %
385 06-08-2019 04:55:18 17 C 30 %
386 06-08-2019 05:07:17 16.6 C 31 %
387 06-08-2019 05:19:18 16.5 C 32 %
388 06-08-2019 05:31:17 16.5 C 33 %
389 06-08-2019 05:43:17 16.5 C 32 %
390 06-08-2019 05:55:18 16.4 C 32 %
391 06-08-2019 06:07:17 16.2 C 34 %
392 06-08-2019 06:19:17 16.7 C 33 %
393 06-08-2019 06:31:18 17.2 C 30 %
394 06-08-2019 06:43:18 17.3 C 30 %
395 06-08-2019 06:55:17 17.3 C 30 %
396 06-08-2019 07:07:18 17.9 C 27 %
397 06-08-2019 07:19:17 18.1 C 25 %
398 06-08-2019 07:31:18 18.3 C 26 %
399 06-08-2019 07:43:18 18.5 C 26 %
400 06-08-2019 07:55:17 18.6 C 25 %
Sensor: Nr:Datum:Temp:Feuchte:
Aussen-T/F 401 06-08-2019 08:07:17 18.6 C 25 %
402 06-08-2019 08:19:17 19 C 25 %
403 06-08-2019 08:31:18 18.9 C 25 %
404 06-08-2019 08:43:18 19.1 C 25 %
405 06-08-2019 08:55:17 19.4 C 25 %
406 06-08-2019 09:07:17 20 C 20 %
407 06-08-2019 09:19:17 20.3 C 20 %
408 06-08-2019 09:31:17 20.4 C 20 %
409 06-08-2019 09:43:17 21.1 C 20 %
410 06-08-2019 09:55:17 21 C 20 %
411 06-08-2019 10:07:18 19.4 C 24 %
412 06-08-2019 10:19:17 18.6 C 36 %
413 06-08-2019 10:31:18 18.7 C 41 %
414 06-08-2019 10:43:18 18.5 C 41 %
415 06-08-2019 10:55:17 18.6 C 42 %
416 06-08-2019 11:07:18 18.6 C 42 %
417 06-08-2019 11:19:17 18.9 C 41 %
418 06-08-2019 11:31:18 20.1 C 38 %
419 06-08-2019 11:43:18 20.6 C 33 %
420 06-08-2019 11:55:17 20.7 C 29 %
421 06-08-2019 12:07:18 21.3 C 28 %
422 06-08-2019 12:19:17 21.9 C 25 %
423 06-08-2019 12:31:18 22.1 C 24 %
424 06-08-2019 12:43:18 22 C 21 %
425 06-08-2019 12:55:17 22.2 C 22 %
Sensor: Nr:Datum:Temp:Feuchte:
Aussen-T/F 426 06-08-2019 13:07:17 22.3 C 21 %
427 06-08-2019 13:19:18 22.3 C 22 %
428 06-08-2019 13:31:17 22.6 C 22 %
429 06-08-2019 13:43:17 23.1 C 20 %
430 06-08-2019 13:55:17 23.5 C 20 %
431 06-08-2019 14:07:17 23.8 C 20 %
432 06-08-2019 14:19:17 23.7 C 20 %
433 06-08-2019 14:31:17 24.4 C 20 %
434 06-08-2019 14:43:17 24.4 C 20 %
435 06-08-2019 14:55:18 25 C 20 %
436 06-08-2019 15:07:17 25.2 C 20 %
437 06-08-2019 15:19:18 25.1 C 20 %
438 06-08-2019 15:31:17 25.6 C 20 %
439 06-08-2019 15:43:17 25.7 C 20 %
440 06-08-2019 15:55:17 25.8 C 20 %
441 06-08-2019 16:07:17 26 C 20 %
442 06-08-2019 16:19:17 25.9 C 20 %
443 06-08-2019 16:31:17 26.1 C 20 %
444 06-08-2019 16:43:18 26.2 C 20 %
445 06-08-2019 16:55:17 26.9 C 20 %
446 06-08-2019 17:07:17 27.2 C 20 %
447 06-08-2019 17:19:17 27.7 C 20 %
448 06-08-2019 17:31:17 27.2 C 20 %
449 06-08-2019 17:43:17 26.3 C 20 %
450 06-08-2019 17:55:17 26.8 C 20 %
Sensor: Nr:Datum:Temp:Feuchte:
Aussen-T/F 451 06-08-2019 18:07:18 26.1 C 20 %
452 06-08-2019 18:19:17 25.6 C 20 %
453 06-08-2019 18:31:18 25.2 C 20 %
454 06-08-2019 18:43:18 24.7 C 20 %
455 06-08-2019 18:55:17 23.7 C 20 %
456 06-08-2019 19:07:18 22.6 C 20 %
457 06-08-2019 19:19:17 21.2 C 28 %
458 06-08-2019 19:31:17 21 C 29 %
459 06-08-2019 19:43:17 20.4 C 33 %
460 06-08-2019 19:55:17 19.1 C 43 %
461 06-08-2019 20:07:18 19 C 45 %
462 06-08-2019 20:19:17 18.5 C 46 %
463 06-08-2019 20:31:18 18.4 C 46 %
464 06-08-2019 20:43:18 18.2 C 46 %
465 06-08-2019 20:55:17 17.8 C 46 %
466 06-08-2019 21:07:17 18 C 47 %
467 06-08-2019 21:19:17 17.9 C 48 %
468 06-08-2019 21:31:17 17.8 C 49 %
469 06-08-2019 21:43:17 17.6 C 51 %
470 06-08-2019 21:55:17 17.4 C 51 %
471 06-08-2019 22:07:18 17.4 C 52 %
472 06-08-2019 22:19:17 17.3 C 55 %
473 06-08-2019 22:31:18 17.3 C 55 %
474 06-08-2019 22:43:18 17.3 C 56 %
475 06-08-2019 22:55:17 17 C 55 %
Sensor: Nr:Datum:Temp:Feuchte:
Aussen-T/F 476 06-08-2019 23:07:18 17 C 56 %
477 06-08-2019 23:19:17 17 C 56 %
478 06-08-2019 23:31:17 16.8 C 57 %
479 06-08-2019 23:43:17 16.8 C 57 %
480 06-08-2019 23:55:17 16.6 C 55 %
481 07-08-2019 00:07:17 16.4 C 53 %
482 07-08-2019 00:19:18 16.5 C 57 %
483 07-08-2019 00:31:17 16.5 C 57 %
484 07-08-2019 00:43:17 16.4 C 57 %
485 07-08-2019 00:55:17 16.3 C 56 %
486 07-08-2019 01:07:17 16.1 C 55 %
487 07-08-2019 01:19:17 15.9 C 55 %
488 07-08-2019 01:31:17 15.9 C 57 %
489 07-08-2019 01:43:17 16.2 C 59 %
490 07-08-2019 01:55:17 16.3 C 60 %
491 07-08-2019 02:07:17 16.4 C 60 %
492 07-08-2019 02:19:17 16.3 C 59 %
493 07-08-2019 02:31:17 16.3 C 59 %
494 07-08-2019 02:43:17 16.3 C 59 %
495 07-08-2019 02:55:18 16.3 C 59 %
496 07-08-2019 03:07:17 16.4 C 59 %
497 07-08-2019 03:19:18 16.4 C 59 %
498 07-08-2019 03:31:17 16.4 C 59 %
499 07-08-2019 03:43:17 16.4 C 59 %
500 07-08-2019 03:55:17 16.4 C 59 %
Sensor: Nr:Datum:Temp:Feuchte:
Aussen-T/F 501 07-08-2019 04:07:17 16.4 C 59 %
502 07-08-2019 04:19:17 16.3 C 58 %
503 07-08-2019 04:31:17 16.3 C 58 %
504 07-08-2019 04:43:17 16.4 C 59 %
505 07-08-2019 04:55:18 16.4 C 59 %
506 07-08-2019 05:07:17 16.4 C 60 %
507 07-08-2019 05:19:17 16.4 C 60 %
508 07-08-2019 05:31:17 16.5 C 61 %
509 07-08-2019 05:43:17 16.5 C 60 %
510 07-08-2019 05:55:18 16.6 C 61 %
511 07-08-2019 06:07:18 16.6 C 62 %
512 07-08-2019 06:19:17 16.6 C 61 %
513 07-08-2019 06:31:18 16.7 C 62 %
514 07-08-2019 06:43:18 16.9 C 62 %
515 07-08-2019 06:55:17 16.9 C 62 %
516 07-08-2019 07:07:18 16.9 C 62 %
517 07-08-2019 07:19:17 17 C 61 %
518 07-08-2019 07:31:17 17 C 61 %
519 07-08-2019 07:43:17 17.2 C 61 %
520 07-08-2019 07:55:18 17.1 C 61 %
521 07-08-2019 08:07:17 17.2 C 61 %
522 07-08-2019 08:19:18 17.5 C 62 %
523 07-08-2019 08:31:17 17.6 C 62 %
524 07-08-2019 08:43:17 17.8 C 61 %
525 07-08-2019 08:55:17 17.9 C 61 %
Sensor: Nr:Datum:Temp:Feuchte:
Aussen-T/F 526 07-08-2019 09:07:17 17.7 C 58 %
527 07-08-2019 09:19:17 17.8 C 59 %
528 07-08-2019 09:31:17 18.2 C 59 %
529 07-08-2019 09:43:17 18.4 C 52 %
530 07-08-2019 09:55:17 18.9 C 47 %
531 07-08-2019 10:07:17 18.9 C 44 %
532 07-08-2019 10:19:17 18.8 C 40 %
533 07-08-2019 10:31:18 19 C 40 %
534 07-08-2019 10:43:18 19.1 C 40 %
535 07-08-2019 10:55:17 19.3 C 37 %
536 07-08-2019 11:07:17 19.9 C 37 %
537 07-08-2019 11:19:17 20 C 35 %
538 07-08-2019 11:31:17 21.2 C 32 %
539 07-08-2019 11:43:18 21 C 30 %
540 07-08-2019 11:55:17 20.8 C 30 %
541 07-08-2019 12:07:17 21 C 29 %
542 07-08-2019 12:19:17 21.3 C 29 %
543 07-08-2019 12:31:17 21.5 C 27 %
544 07-08-2019 12:43:17 22 C 27 %
545 07-08-2019 12:55:17 22 C 25 %
546 07-08-2019 13:07:17 22 C 25 %
547 07-08-2019 13:19:17 22.1 C 23 %
548 07-08-2019 13:31:17 22.5 C 22 %
549 07-08-2019 13:43:17 22.7 C 21 %
550 07-08-2019 13:55:18 23 C 21 %
Sensor: Nr:Datum:Temp:Feuchte:
Aussen-T/F 551 07-08-2019 14:07:17 23.2 C 22 %
552 07-08-2019 14:19:18 22.8 C 22 %
553 07-08-2019 14:31:17 22.9 C 22 %
554 07-08-2019 14:43:17 22.8 C 23 %
555 07-08-2019 14:55:18 23.2 C 21 %
556 07-08-2019 15:07:17 23.4 C 21 %
557 07-08-2019 15:19:17 23.3 C 21 %
558 07-08-2019 15:31:17 23 C 21 %
559 07-08-2019 15:43:17 23 C 20 %
560 07-08-2019 15:55:17 22.8 C 21 %
561 07-08-2019 16:07:17 22.6 C 22 %
562 07-08-2019 16:19:17 22.3 C 22 %
563 07-08-2019 16:31:18 22.2 C 21 %
564 07-08-2019 16:43:18 22.5 C 21 %
565 07-08-2019 16:55:17 22.5 C 21 %
566 07-08-2019 17:07:17 22.2 C 21 %
567 07-08-2019 17:19:17 22.7 C 20 %
568 07-08-2019 17:31:17 23.2 C 20 %
569 07-08-2019 17:43:17 23.2 C 20 %
570 07-08-2019 17:55:18 22.8 C 20 %
571 07-08-2019 18:07:17 22.7 C 21 %
572 07-08-2019 18:19:17 23.3 C 20 %
573 07-08-2019 18:31:17 24.3 C 20 %
574 07-08-2019 18:43:17 24.7 C 20 %
575 07-08-2019 18:55:17 24 C 20 %
Sensor: Nr:Datum:Temp:Feuchte:
Aussen-T/F 576 07-08-2019 19:07:17 23.2 C 20 %
577 07-08-2019 19:19:17 22.8 C 20 %
578 07-08-2019 19:31:17 21.3 C 25 %
579 07-08-2019 19:43:17 21.1 C 28 %
580 07-08-2019 19:55:18 20.3 C 32 %
581 07-08-2019 20:07:17 20 C 33 %
582 07-08-2019 20:19:17 19.7 C 34 %
583 07-08-2019 20:31:17 19.1 C 36 %
584 07-08-2019 20:43:18 18.9 C 37 %
585 07-08-2019 20:55:17 19 C 35 %
586 07-08-2019 21:07:17 18.7 C 37 %
587 07-08-2019 21:19:17 18.1 C 36 %
588 07-08-2019 21:31:17 17.4 C 39 %
589 07-08-2019 21:43:18 17 C 40 %
590 07-08-2019 21:55:17 16.9 C 41 %
591 07-08-2019 22:07:17 16.8 C 40 %
592 07-08-2019 22:19:18 16.6 C 41 %
593 07-08-2019 22:31:17 16.5 C 41 %
594 07-08-2019 22:43:17 16.6 C 41 %
595 07-08-2019 22:55:18 17 C 35 %
596 07-08-2019 23:07:17 17.2 C 35 %
597 07-08-2019 23:19:17 17 C 35 %
598 07-08-2019 23:31:17 16.8 C 38 %
599 07-08-2019 23:43:17 16.5 C 39 %
600 07-08-2019 23:55:17 15.8 C 42 %
Sensor: Nr:Datum:Temp:Feuchte:
Aussen-T/F 601 08-08-2019 00:07:17 15.5 C 44 %
602 08-08-2019 00:19:17 15.4 C 45 %
603 08-08-2019 00:31:17 15.6 C 45 %
604 08-08-2019 00:43:18 15.9 C 45 %
605 08-08-2019 00:55:17 16.4 C 40 %
606 08-08-2019 01:07:18 16.5 C 40 %
607 08-08-2019 01:19:17 16.6 C 39 %
608 08-08-2019 01:31:18 16.6 C 40 %
609 08-08-2019 01:43:18 16.5 C 41 %
610 08-08-2019 01:55:17 16.5 C 42 %
611 08-08-2019 02:07:17 16.6 C 40 %
612 08-08-2019 02:19:17 16.6 C 40 %
613 08-08-2019 02:31:17 16.4 C 42 %
614 08-08-2019 02:43:17 16.4 C 43 %
615 08-08-2019 02:55:17 16.2 C 44 %
616 08-08-2019 03:07:17 16.5 C 41 %
617 08-08-2019 03:19:17 16.7 C 39 %
618 08-08-2019 03:31:17 16.6 C 40 %
619 08-08-2019 03:43:17 16.2 C 40 %
620 08-08-2019 03:55:17 15.9 C 44 %
621 08-08-2019 04:07:17 16.2 C 44 %
622 08-08-2019 04:19:17 15.9 C 45 %
623 08-08-2019 04:31:17 15.9 C 46 %
624 08-08-2019 04:43:17 16.1 C 45 %
625 08-08-2019 04:55:17 15.6 C 44 %
Sensor: Nr:Datum:Temp:Feuchte:
Aussen-T/F 626 08-08-2019 05:07:17 15.1 C 45 %
627 08-08-2019 05:19:17 14.7 C 46 %
628 08-08-2019 05:31:17 14.6 C 47 %
629 08-08-2019 05:43:17 14.8 C 48 %
630 08-08-2019 05:55:17 15.1 C 47 %
631 08-08-2019 06:07:17 15.4 C 47 %
632 08-08-2019 06:19:18 15.8 C 45 %
633 08-08-2019 06:31:17 16.2 C 41 %
634 08-08-2019 06:43:17 16.1 C 40 %
635 08-08-2019 06:55:17 15.9 C 41 %
636 08-08-2019 07:07:17 15.9 C 42 %
637 08-08-2019 07:19:17 15.8 C 43 %
638 08-08-2019 07:31:17 15.9 C 43 %
639 08-08-2019 07:43:17 16.1 C 43 %
640 08-08-2019 07:55:17 16.2 C 42 %
641 08-08-2019 08:07:17 16.7 C 40 %
642 08-08-2019 08:19:17 17 C 38 %
643 08-08-2019 08:31:17 17.2 C 37 %
644 08-08-2019 08:43:17 17.5 C 36 %
645 08-08-2019 08:55:17 17.7 C 36 %
646 08-08-2019 09:07:17 17.8 C 35 %
647 08-08-2019 09:19:17 18.5 C 32 %
648 08-08-2019 09:31:18 18.7 C 31 %
649 08-08-2019 09:43:18 19.4 C 26 %
650 08-08-2019 09:55:18 19.6 C 25 %
Sensor: Nr:Datum:Temp:Feuchte:
Aussen-T/F 651 08-08-2019 10:07:18 19.9 C 24 %
652 08-08-2019 10:19:17 20.2 C 22 %
653 08-08-2019 10:31:17 20.7 C 22 %
654 08-08-2019 10:43:17 21.1 C 21 %
655 08-08-2019 10:55:18 22.1 C 20 %
656 08-08-2019 11:07:17 23.4 C 20 %
657 08-08-2019 11:19:17 23.8 C 20 %
658 08-08-2019 11:31:17 24.5 C 20 %
659 08-08-2019 11:43:17 24.2 C 20 %
660 08-08-2019 11:55:18 23.7 C 20 %
661 08-08-2019 12:07:17 23.1 C 20 %
662 08-08-2019 12:19:17 23.3 C 20 %
663 08-08-2019 12:31:18 23.3 C 20 %
664 08-08-2019 12:43:18 23.6 C 20 %
665 08-08-2019 12:55:17 24 C 20 %
666 08-08-2019 13:07:17 24.5 C 20 %
667 08-08-2019 13:19:18 24.8 C 20 %
668 08-08-2019 13:31:17 24.5 C 20 %
669 08-08-2019 13:43:17 24.3 C 20 %
670 08-08-2019 13:55:17 24.7 C 20 %
671 08-08-2019 14:07:18 24.5 C 20 %
672 08-08-2019 14:19:17 24.7 C 20 %
673 08-08-2019 14:31:17 24.7 C 20 %
674 08-08-2019 14:43:17 24.5 C 20 %
675 08-08-2019 14:55:18 24.6 C 20 %
Sensor: Nr:Datum:Temp:Feuchte:
Aussen-T/F 676 08-08-2019 15:07:17 24.6 C 20 %
677 08-08-2019 15:19:17 25.3 C 20 %
678 08-08-2019 15:31:18 24.7 C 20 %
679 08-08-2019 15:43:18 25 C 20 %
680 08-08-2019 15:55:17 26 C 20 %
681 08-08-2019 16:07:18 26.5 C 20 %
682 08-08-2019 16:19:17 27 C 20 %
683 08-08-2019 16:31:17 27.5 C 20 %
684 08-08-2019 16:43:17 27.8 C 20 %
685 08-08-2019 16:55:17 28.2 C 20 %
686 08-08-2019 17:07:17 28 C 20 %
687 08-08-2019 17:19:17 27.2 C 20 %
688 08-08-2019 17:31:17 28.4 C 20 %
689 08-08-2019 17:43:18 27.2 C 20 %
690 08-08-2019 17:55:17 28 C 20 %
691 08-08-2019 18:07:17 28.1 C 20 %
692 08-08-2019 18:19:17 28.5 C 20 %
693 08-08-2019 18:31:17 28.3 C 20 %
694 08-08-2019 18:43:17 28.3 C 20 %
695 08-08-2019 18:55:18 26.7 C 20 %
696 08-08-2019 19:07:17 25.8 C 20 %
697 08-08-2019 19:19:18 25 C 20 %
698 08-08-2019 19:31:17 24.6 C 20 %
699 08-08-2019 19:43:17 24.3 C 20 %
700 08-08-2019 19:55:17 24.8 C 20 %
Sensor: Nr:Datum:Temp:Feuchte:
Aussen-T/F 701 08-08-2019 20:07:17 24.2 C 20 %
702 08-08-2019 20:19:17 23 C 20 %
703 08-08-2019 20:31:18 22.1 C 22 %
704 08-08-2019 20:43:18 21.5 C 24 %
705 08-08-2019 20:55:17 21.1 C 25 %
706 08-08-2019 21:07:18 20.5 C 26 %
707 08-08-2019 21:19:17 20.2 C 27 %
708 08-08-2019 21:31:18 19.8 C 30 %
709 08-08-2019 21:43:18 19.6 C 30 %
710 08-08-2019 21:55:17 19.5 C 30 %
711 08-08-2019 22:07:18 19.3 C 31 %
712 08-08-2019 22:19:17 18.9 C 33 %
713 08-08-2019 22:31:18 18.7 C 34 %
714 08-08-2019 22:43:18 18.5 C 35 %
715 08-08-2019 22:55:17 18.4 C 35 %
716 08-08-2019 23:07:18 18.1 C 37 %
717 08-08-2019 23:19:17 18.2 C 39 %
718 08-08-2019 23:31:18 18.3 C 38 %
719 08-08-2019 23:43:18 17.9 C 38 %
720 08-08-2019 23:55:17 17.5 C 40 %
721 09-08-2019 00:07:17 17.2 C 40 %
722 09-08-2019 00:19:17 16.9 C 42 %
723 09-08-2019 00:31:17 16.7 C 42 %
724 09-08-2019 00:43:17 16.6 C 43 %
725 09-08-2019 00:55:17 16.5 C 43 %
Sensor: Nr:Datum:Temp:Feuchte:
Aussen-T/F 726 09-08-2019 01:07:18 16.3 C 43 %
727 09-08-2019 01:19:17 16.2 C 43 %
728 09-08-2019 01:31:18 16.2 C 43 %
729 09-08-2019 01:43:18 16 C 43 %
730 09-08-2019 01:55:17 16.1 C 44 %
731 09-08-2019 02:07:17 16 C 44 %
732 09-08-2019 02:19:17 16 C 44 %
733 09-08-2019 02:31:17 16.1 C 44 %
734 09-08-2019 02:43:18 15.7 C 44 %
735 09-08-2019 02:55:17 15.4 C 45 %
736 09-08-2019 03:07:17 15.2 C 45 %
737 09-08-2019 03:19:17 15 C 45 %
738 09-08-2019 03:31:17 15 C 46 %
739 09-08-2019 03:43:17 15 C 46 %
740 09-08-2019 03:55:17 15 C 46 %
741 09-08-2019 04:07:17 14.8 C 46 %
742 09-08-2019 04:19:17 14.5 C 46 %
743 09-08-2019 04:31:17 14.7 C 47 %
744 09-08-2019 04:43:17 14.7 C 47 %
745 09-08-2019 04:55:18 14.6 C 47 %
746 09-08-2019 05:07:17 14.4 C 46 %
747 09-08-2019 05:19:18 14.4 C 47 %
748 09-08-2019 05:31:17 14.4 C 47 %
749 09-08-2019 05:43:17 14.4 C 47 %
750 09-08-2019 05:55:18 14.5 C 47 %
Sensor: Nr:Datum:Temp:Feuchte:
Aussen-T/F 751 09-08-2019 06:07:17 14.6 C 47 %
752 09-08-2019 06:19:17 14.7 C 47 %
753 09-08-2019 06:31:17 14.7 C 47 %
754 09-08-2019 06:43:17 14.8 C 48 %
755 09-08-2019 06:55:17 15 C 47 %
756 09-08-2019 07:07:18 15.6 C 47 %
757 09-08-2019 07:19:17 16.1 C 44 %
758 09-08-2019 07:31:18 16.2 C 40 %
759 09-08-2019 07:43:18 16.4 C 40 %
760 09-08-2019 07:55:17 16.6 C 39 %
761 09-08-2019 08:07:17 16.8 C 38 %
762 09-08-2019 08:19:17 16.9 C 38 %
763 09-08-2019 08:31:18 17.1 C 36 %
764 09-08-2019 08:43:18 17.5 C 37 %
765 09-08-2019 08:55:17 17.9 C 35 %
766 09-08-2019 09:07:17 18.3 C 33 %
767 09-08-2019 09:19:17 18.7 C 31 %
768 09-08-2019 09:31:18 19.3 C 30 %
769 09-08-2019 09:43:18 19.6 C 30 %
770 09-08-2019 09:55:17 20 C 28 %
771 09-08-2019 10:07:18 20.6 C 27 %
772 09-08-2019 10:19:17 20.8 C 27 %
773 09-08-2019 10:31:18 21.6 C 25 %
774 09-08-2019 10:43:18 21.8 C 25 %
775 09-08-2019 10:55:17 23.2 C 24 %
Sensor: Nr:Datum:Temp:Feuchte:
Aussen-T/F 776 09-08-2019 11:07:17 24.1 C 20 %
777 09-08-2019 11:19:17 25.8 C 20 %
778 09-08-2019 11:31:18 25.5 C 20 %
779 09-08-2019 11:43:18 25.6 C 20 %
780 09-08-2019 11:55:17 25.3 C 20 %
781 09-08-2019 12:07:17 25.2 C 20 %
782 09-08-2019 12:19:17 25.2 C 20 %
783 09-08-2019 12:31:18 25.3 C 20 %
784 09-08-2019 12:43:18 25.3 C 20 %
785 09-08-2019 12:55:17 25.2 C 20 %
786 09-08-2019 13:07:17 24.8 C 20 %
787 09-08-2019 13:19:17 24.6 C 21 %
788 09-08-2019 13:31:17 25.2 C 20 %
789 09-08-2019 13:43:18 25.5 C 20 %
790 09-08-2019 13:55:17 25.4 C 20 %
791 09-08-2019 14:07:17 25 C 20 %
792 09-08-2019 14:19:17 23.3 C 25 %
793 09-08-2019 14:31:17 22.4 C 35 %
794 09-08-2019 14:43:17 22 C 37 %
795 09-08-2019 14:55:18 21.9 C 40 %
796 09-08-2019 15:07:17 21.8 C 40 %
797 09-08-2019 15:19:18 23.1 C 32 %
798 09-08-2019 15:31:17 24.1 C 30 %
799 09-08-2019 15:43:17 26.1 C 25 %
800 09-08-2019 15:55:18 27 C 21 %
Sensor: Nr:Datum:Temp:Feuchte:
Aussen-T/F 801 09-08-2019 16:07:17 27.8 C 20 %
802 09-08-2019 16:19:17 27.3 C 20 %
803 09-08-2019 16:31:17 26.6 C 22 %
804 09-08-2019 16:43:17 26.8 C 20 %
805 09-08-2019 16:55:18 26.3 C 24 %
806 09-08-2019 17:07:17 24.7 C 32 %
807 09-08-2019 17:19:17 24.2 C 36 %
808 09-08-2019 17:31:17 23.5 C 37 %
809 09-08-2019 17:43:17 23.3 C 37 %
810 09-08-2019 17:55:18 22.7 C 41 %
811 09-08-2019 18:07:17 22.4 C 42 %
812 09-08-2019 18:19:17 22 C 44 %
813 09-08-2019 18:31:17 21.5 C 45 %
814 09-08-2019 18:43:17 21.3 C 46 %
815 09-08-2019 18:55:17 21.2 C 47 %
816 09-08-2019 19:07:17 21.1 C 47 %
817 09-08-2019 19:19:17 21.1 C 47 %
818 09-08-2019 19:31:17 21.2 C 47 %
819 09-08-2019 19:43:17 20.8 C 47 %
820 09-08-2019 19:55:17 20.1 C 46 %
821 09-08-2019 20:07:17 19.2 C 46 %
822 09-08-2019 20:19:17 19.3 C 48 %
823 09-08-2019 20:31:17 19.1 C 49 %
824 09-08-2019 20:43:17 19.1 C 49 %
825 09-08-2019 20:55:18 19.1 C 50 %
Sensor: Nr:Datum:Temp:Feuchte:
Aussen-T/F 826 09-08-2019 21:07:17 19.1 C 55 %
827 09-08-2019 21:19:17 19 C 57 %
828 09-08-2019 21:31:17 19.1 C 60 %
829 09-08-2019 21:43:17 19.2 C 61 %
830 09-08-2019 21:55:18 19.1 C 60 %
831 09-08-2019 22:07:17 19.2 C 60 %
832 09-08-2019 22:19:17 19.1 C 59 %
833 09-08-2019 22:31:17 18.9 C 59 %
834 09-08-2019 22:43:17 18.8 C 59 %
835 09-08-2019 22:55:18 18.9 C 60 %
836 09-08-2019 23:07:17 18.8 C 61 %
837 09-08-2019 23:19:18 18.5 C 58 %
838 09-08-2019 23:31:17 18.4 C 59 %
839 09-08-2019 23:43:17 18.4 C 60 %
840 09-08-2019 23:55:18 18.4 C 60 %
841 10-08-2019 00:07:17 18.4 C 61 %
842 10-08-2019 00:19:18 18.7 C 62 %
843 10-08-2019 00:31:17 18.7 C 62 %
844 10-08-2019 00:43:17 18.7 C 62 %
845 10-08-2019 00:55:18 18.8 C 62 %
846 10-08-2019 01:07:17 18.9 C 62 %
847 10-08-2019 01:19:18 18.5 C 60 %
848 10-08-2019 01:31:17 18.5 C 62 %
849 10-08-2019 01:43:17 18.4 C 62 %
850 10-08-2019 01:55:18 18.4 C 62 %
Sensor: Nr:Datum:Temp:Feuchte:
Aussen-T/F 851 10-08-2019 02:07:17 18.3 C 61 %
852 10-08-2019 02:19:17 18.1 C 60 %
853 10-08-2019 02:31:17 18.1 C 62 %
854 10-08-2019 02:43:17 18.2 C 62 %
855 10-08-2019 02:55:17 18.1 C 61 %
856 10-08-2019 03:07:18 18.1 C 61 %
857 10-08-2019 03:19:17 17.9 C 63 %
858 10-08-2019 03:31:18 17.9 C 62 %
859 10-08-2019 03:43:18 18.1 C 63 %
860 10-08-2019 03:55:17 18 C 62 %
861 10-08-2019 04:07:17 18.1 C 63 %
862 10-08-2019 04:19:17 17.8 C 62 %
863 10-08-2019 04:31:17 17.7 C 62 %
864 10-08-2019 04:43:17 17.4 C 62 %
865 10-08-2019 04:55:18 17.3 C 62 %
866 10-08-2019 05:07:17 17.1 C 62 %
867 10-08-2019 05:19:18 17.1 C 63 %
868 10-08-2019 05:31:17 17.1 C 63 %
869 10-08-2019 05:43:17 17.2 C 64 %
870 10-08-2019 05:55:18 17.2 C 63 %
871 10-08-2019 06:07:17 17.3 C 64 %
872 10-08-2019 06:19:17 17.2 C 63 %
873 10-08-2019 06:31:17 17.2 C 63 %
874 10-08-2019 06:43:17 17.1 C 63 %
875 10-08-2019 06:55:17 17 C 63 %
Sensor: Nr:Datum:Temp:Feuchte:
Aussen-T/F 876 10-08-2019 07:07:18 17 C 63 %
877 10-08-2019 07:19:17 16.9 C 61 %
878 10-08-2019 07:31:18 17 C 61 %
879 10-08-2019 07:43:18 17.2 C 63 %
880 10-08-2019 07:55:17 17.4 C 62 %
881 10-08-2019 08:07:18 17.1 C 53 %
882 10-08-2019 08:19:17 17.2 C 47 %
883 10-08-2019 08:31:18 17.5 C 40 %
884 10-08-2019 08:43:18 18.1 C 36 %
885 10-08-2019 08:55:17 18.4 C 36 %
886 10-08-2019 09:07:18 18.9 C 34 %
887 10-08-2019 09:19:17 19 C 34 %
888 10-08-2019 09:31:18 19.6 C 33 %
889 10-08-2019 09:43:18 20 C 31 %
890 10-08-2019 09:55:17 20.1 C 30 %
891 10-08-2019 10:07:18 20.4 C 30 %
892 10-08-2019 10:19:17 20.5 C 30 %
893 10-08-2019 10:31:18 20.7 C 30 %
894 10-08-2019 10:43:18 21.3 C 28 %
895 10-08-2019 10:55:17 21.9 C 26 %
896 10-08-2019 11:07:17 22.7 C 25 %
897 10-08-2019 11:19:17 22 C 24 %
898 10-08-2019 11:31:18 22 C 25 %
899 10-08-2019 11:43:18 21.9 C 25 %
900 10-08-2019 11:55:17 22.1 C 24 %
Sensor: Nr:Datum:Temp:Feuchte:
Aussen-T/F 901 10-08-2019 12:07:18 22.6 C 24 %
902 10-08-2019 12:19:17 22.6 C 24 %
903 10-08-2019 12:31:18 23.3 C 20 %
904 10-08-2019 12:43:18 23.6 C 20 %
905 10-08-2019 12:55:17 23.3 C 20 %
906 10-08-2019 13:07:17 23.9 C 20 %
907 10-08-2019 13:19:17 24.1 C 20 %
908 10-08-2019 13:31:17 24 C 20 %
909 10-08-2019 13:43:18 23.9 C 20 %
910 10-08-2019 13:55:17 23.4 C 20 %
911 10-08-2019 14:07:17 24.3 C 20 %
912 10-08-2019 14:19:17 24.3 C 20 %
913 10-08-2019 14:31:17 24.4 C 20 %
914 10-08-2019 14:43:17 24.8 C 20 %
915 10-08-2019 14:55:18 25.4 C 20 %
916 10-08-2019 15:07:17 25.3 C 20 %
917 10-08-2019 15:19:17 25.6 C 20 %
918 10-08-2019 15:31:17 25.2 C 20 %
919 10-08-2019 15:43:17 26.3 C 20 %
920 10-08-2019 15:55:18 25.7 C 20 %
921 10-08-2019 16:07:17 25.4 C 20 %
922 10-08-2019 16:19:17 26.2 C 20 %
923 10-08-2019 16:31:17 26 C 20 %
924 10-08-2019 16:43:17 25.1 C 20 %
925 10-08-2019 16:55:17 25.9 C 20 %
Sensor: Nr:Datum:Temp:Feuchte:
Aussen-T/F 926 10-08-2019 17:07:17 26.1 C 20 %
927 10-08-2019 17:19:18 26.6 C 20 %
928 10-08-2019 17:31:17 27.4 C 20 %
929 10-08-2019 17:43:17 27.3 C 20 %
930 10-08-2019 17:55:17 27.1 C 20 %
931 10-08-2019 18:07:18 26.9 C 20 %
932 10-08-2019 18:19:17 27 C 20 %
933 10-08-2019 18:31:18 25.6 C 20 %
934 10-08-2019 18:43:18 25.4 C 20 %
935 10-08-2019 18:55:17 26.1 C 20 %
936 10-08-2019 19:07:18 26.1 C 20 %
937 10-08-2019 19:19:17 25.6 C 20 %
938 10-08-2019 19:31:17 25 C 20 %
939 10-08-2019 19:43:17 24.8 C 20 %
940 10-08-2019 19:55:17 23.8 C 20 %
941 10-08-2019 20:07:17 23.8 C 20 %
942 10-08-2019 20:19:17 22.7 C 20 %
943 10-08-2019 20:31:17 21.7 C 20 %
944 10-08-2019 20:43:17 20.5 C 22 %
945 10-08-2019 20:55:17 19.7 C 26 %
946 10-08-2019 21:07:17 19.5 C 26 %
947 10-08-2019 21:19:17 19 C 26 %
948 10-08-2019 21:31:17 18.6 C 29 %
949 10-08-2019 21:43:17 18.3 C 30 %
950 10-08-2019 21:55:17 18.1 C 31 %
Sensor: Nr:Datum:Temp:Feuchte:
Aussen-T/F 951 10-08-2019 22:07:17 17.7 C 32 %
952 10-08-2019 22:19:17 17.5 C 32 %
953 10-08-2019 22:31:17 17.2 C 32 %
954 10-08-2019 22:43:17 17 C 33 %
955 10-08-2019 22:55:18 16.8 C 34 %
956 10-08-2019 23:07:17 16.5 C 35 %
957 10-08-2019 23:19:17 16.2 C 35 %
958 10-08-2019 23:31:17 16 C 34 %
959 10-08-2019 23:43:17 16 C 35 %
960 10-08-2019 23:55:17 15.8 C 35 %
961 11-08-2019 00:07:17 15.7 C 36 %
962 11-08-2019 00:19:17 15.6 C 37 %
963 11-08-2019 00:31:18 15.6 C 36 %
964 11-08-2019 00:43:18 15.4 C 37 %
965 11-08-2019 00:55:17 15.3 C 37 %
966 11-08-2019 01:07:17 15.4 C 39 %
967 11-08-2019 01:19:17 15.3 C 40 %
968 11-08-2019 01:31:17 15.1 C 40 %
969 11-08-2019 01:43:18 15.2 C 40 %
970 11-08-2019 01:55:17 15.8 C 39 %
971 11-08-2019 02:07:17 16 C 37 %
972 11-08-2019 02:19:17 15.9 C 37 %
973 11-08-2019 02:31:17 16 C 36 %
974 11-08-2019 02:43:17 15.9 C 36 %
975 11-08-2019 02:55:18 15.4 C 36 %
Sensor: Nr:Datum:Temp:Feuchte:
Aussen-T/F 976 11-08-2019 03:07:18 15.3 C 37 %
977 11-08-2019 03:19:17 14.9 C 39 %
978 11-08-2019 03:31:18 14.7 C 40 %
979 11-08-2019 03:43:18 14.6 C 41 %
980 11-08-2019 03:55:17 14.5 C 41 %
981 11-08-2019 04:07:17 14.5 C 41 %
982 11-08-2019 04:19:17 14.4 C 41 %
983 11-08-2019 04:31:17 14.1 C 41 %
984 11-08-2019 04:43:17 14 C 43 %
985 11-08-2019 04:55:17 14 C 42 %
986 11-08-2019 05:07:17 13.8 C 43 %
987 11-08-2019 05:19:17 13.4 C 45 %
988 11-08-2019 05:31:17 13.2 C 45 %
989 11-08-2019 05:43:17 13.2 C 46 %
990 11-08-2019 05:55:17 13.1 C 46 %
991 11-08-2019 06:07:17 13 C 46 %
992 11-08-2019 06:19:18 13.2 C 47 %
993 11-08-2019 06:31:17 13.8 C 46 %
994 11-08-2019 06:43:17 13.9 C 45 %
995 11-08-2019 06:55:17 13.9 C 45 %
996 11-08-2019 07:07:17 14.1 C 42 %
997 11-08-2019 07:19:17 14.3 C 41 %
998 11-08-2019 07:31:18 14.5 C 40 %
999 11-08-2019 07:43:18 14.5 C 40 %
1000 11-08-2019 07:55:17 14.5 C 42 %
Sensor: Nr:Datum:Temp:Feuchte:
Aussen-T/F 1001 11-08-2019 08:07:17 15 C 40 %
1002 11-08-2019 08:19:17 15.3 C 38 %
1003 11-08-2019 08:31:17 15.3 C 38 %
1004 11-08-2019 08:43:17 15.3 C 40 %
1005 11-08-2019 08:55:18 15.2 C 40 %
1006 11-08-2019 09:07:17 15.6 C 41 %
1007 11-08-2019 09:19:17 16.1 C 39 %
1008 11-08-2019 09:31:17 16.7 C 35 %
1009 11-08-2019 09:43:17 17.5 C 32 %
1010 11-08-2019 09:55:18 18.1 C 30 %
1011 11-08-2019 10:07:17 19.1 C 26 %
1012 11-08-2019 10:19:17 19.3 C 25 %
1013 11-08-2019 10:31:17 20.1 C 22 %
1014 11-08-2019 10:43:17 20.6 C 21 %
1015 11-08-2019 10:55:17 22.4 C 20 %
1016 11-08-2019 11:07:17 22.3 C 20 %
1017 11-08-2019 11:19:17 24.1 C 20 %
1018 11-08-2019 11:31:17 23 C 20 %
1019 11-08-2019 11:43:17 22.6 C 20 %
1020 11-08-2019 11:55:18 22.2 C 20 %
1021 11-08-2019 12:07:17 22.5 C 20 %
1022 11-08-2019 12:19:17 22.8 C 20 %
1023 11-08-2019 12:31:17 22.8 C 20 %
1024 11-08-2019 12:43:17 22.9 C 20 %
1025 11-08-2019 12:55:18 23.2 C 20 %
Sensor: Nr:Datum:Temp:Feuchte:
Aussen-T/F 1026 11-08-2019 13:07:17 23.3 C 20 %
1027 11-08-2019 13:19:17 23.3 C 20 %
1028 11-08-2019 13:31:17 23.3 C 20 %
1029 11-08-2019 13:43:17 23.6 C 20 %
1030 11-08-2019 13:55:17 23.7 C 20 %
1031 11-08-2019 14:07:17 23.6 C 20 %
1032 11-08-2019 14:19:17 23.8 C 20 %
1033 11-08-2019 14:31:17 23 C 20 %
1034 11-08-2019 14:43:17 22.7 C 20 %
1035 11-08-2019 14:55:17 22.1 C 20 %
1036 11-08-2019 15:07:17 21.8 C 20 %
1037 11-08-2019 15:19:17 21.7 C 20 %
1038 11-08-2019 15:31:17 21.6 C 20 %
1039 11-08-2019 15:43:17 21 C 20 %
1040 11-08-2019 15:55:17 20.8 C 20 %
1041 11-08-2019 16:07:17 20.6 C 20 %
1042 11-08-2019 16:19:17 20.4 C 20 %
1043 11-08-2019 16:31:17 19.8 C 21 %
1044 11-08-2019 16:43:17 18 C 32 %
1045 11-08-2019 16:55:18 16.6 C 45 %
1046 11-08-2019 17:07:17 16.6 C 46 %
1047 11-08-2019 17:19:18 16.3 C 47 %
1048 11-08-2019 17:31:17 16 C 45 %
1049 11-08-2019 17:43:17 16 C 47 %
1050 11-08-2019 17:55:17 15.9 C 48 %
Sensor: Nr:Datum:Temp:Feuchte:
Aussen-T/F 1051 11-08-2019 18:07:17 15.8 C 48 %
1052 11-08-2019 18:19:17 15.8 C 46 %
1053 11-08-2019 18:31:17 15.6 C 44 %
1054 11-08-2019 18:43:17 15.7 C 44 %
1055 11-08-2019 18:55:17 15.7 C 41 %
1056 11-08-2019 19:07:18 15.8 C 40 %
1057 11-08-2019 19:19:17 15.8 C 40 %
1058 11-08-2019 19:31:18 15.9 C 43 %
1059 11-08-2019 19:43:18 15.9 C 44 %
1060 11-08-2019 19:55:17 15.8 C 44 %
1061 11-08-2019 20:07:18 15.5 C 45 %
1062 11-08-2019 20:19:17 15.4 C 46 %
1063 11-08-2019 20:31:17 15.4 C 45 %
1064 11-08-2019 20:43:17 15.3 C 45 %
1065 11-08-2019 20:55:17 15.2 C 45 %
1066 11-08-2019 21:07:17 15.2 C 43 %
1067 11-08-2019 21:19:17 15.2 C 42 %
1068 11-08-2019 21:31:17 15.2 C 41 %
1069 11-08-2019 21:43:17 15 C 42 %
1070 11-08-2019 21:55:18 14.4 C 45 %
1071 11-08-2019 22:07:17 14.2 C 46 %
1072 11-08-2019 22:19:17 14.1 C 47 %
1073 11-08-2019 22:31:17 14 C 47 %
1074 11-08-2019 22:43:17 14.1 C 46 %
1075 11-08-2019 22:55:17 14.3 C 46 %
Sensor: Nr:Datum:Temp:Feuchte:
Aussen-T/F 1076 11-08-2019 23:07:17 14.4 C 44 %
1077 11-08-2019 23:19:17 14.5 C 42 %
1078 11-08-2019 23:31:17 14.5 C 45 %
1079 11-08-2019 23:43:17 14.8 C 44 %
1080 11-08-2019 23:55:17 15 C 42 %
1081 12-08-2019 00:07:17 15.2 C 41 %
1082 12-08-2019 00:19:17 15.1 C 42 %
1083 12-08-2019 00:31:17 15 C 42 %
1084 12-08-2019 00:43:17 15.2 C 40 %
1085 12-08-2019 00:55:18 14.7 C 42 %
1086 12-08-2019 01:07:17 14.5 C 45 %
1087 12-08-2019 01:19:17 14.4 C 45 %
1088 12-08-2019 01:31:17 14.1 C 46 %
1089 12-08-2019 01:43:18 14.1 C 46 %
1090 12-08-2019 01:55:17 14 C 46 %
1091 12-08-2019 02:07:17 13.7 C 48 %
1092 12-08-2019 02:19:17 13.7 C 48 %
1093 12-08-2019 02:31:17 13.5 C 50 %
1094 12-08-2019 02:43:17 13.3 C 50 %
1095 12-08-2019 02:55:17 13.1 C 49 %
1096 12-08-2019 03:07:17 12.9 C 50 %
1097 12-08-2019 03:19:17 12.7 C 50 %
1098 12-08-2019 03:31:17 12.5 C 50 %
1099 12-08-2019 03:43:17 12.5 C 51 %
1100 12-08-2019 03:55:17 12.4 C 51 %
Sensor: Nr:Datum:Temp:Feuchte:
Aussen-T/F 1101 12-08-2019 04:07:17 12.6 C 51 %
1102 12-08-2019 04:19:18 12.8 C 51 %
1103 12-08-2019 04:31:17 12.7 C 50 %
1104 12-08-2019 04:43:17 12.5 C 50 %
1105 12-08-2019 04:55:17 12.4 C 50 %
1106 12-08-2019 05:07:17 12.7 C 49 %
1107 12-08-2019 05:19:17 12.7 C 47 %
1108 12-08-2019 05:31:17 12.3 C 47 %
1109 12-08-2019 05:43:18 12.4 C 49 %
1110 12-08-2019 05:55:17 12.4 C 50 %
1111 12-08-2019 06:07:17 12.3 C 50 %
1112 12-08-2019 06:19:17 12.5 C 51 %
1113 12-08-2019 06:31:18 12.6 C 51 %
1114 12-08-2019 06:43:18 13.1 C 48 %
1115 12-08-2019 06:55:17 13 C 47 %
1116 12-08-2019 07:07:17 13 C 47 %
1117 12-08-2019 07:19:17 12.8 C 49 %
1118 12-08-2019 07:31:18 12.7 C 49 %
1119 12-08-2019 07:43:18 12.8 C 50 %
1120 12-08-2019 07:55:17 12.8 C 50 %
1121 12-08-2019 08:07:18 13.1 C 50 %
1122 12-08-2019 08:19:17 13.3 C 50 %
1123 12-08-2019 08:31:18 13.5 C 50 %
1124 12-08-2019 08:43:18 13.7 C 50 %
1125 12-08-2019 08:55:17 14.2 C 49 %
Sensor: Nr:Datum:Temp:Feuchte:
Aussen-T/F 1126 12-08-2019 09:07:18 14.6 C 45 %
1127 12-08-2019 09:19:17 15.2 C 39 %
1128 12-08-2019 09:31:18 15.4 C 39 %
1129 12-08-2019 09:43:18 16 C 36 %
1130 12-08-2019 09:55:17 16.6 C 34 %
1131 12-08-2019 10:07:18 16.8 C 33 %
1132 12-08-2019 10:19:17 17.6 C 31 %
1133 12-08-2019 10:31:17 18.1 C 30 %
1134 12-08-2019 10:43:17 19 C 28 %
1135 12-08-2019 10:55:17 19.9 C 27 %
1136 12-08-2019 11:07:18 21.9 C 23 %
1137 12-08-2019 11:19:17 22.6 C 20 %
1138 12-08-2019 11:31:17 22 C 20 %
1139 12-08-2019 11:43:17 21.7 C 21 %
1140 12-08-2019 11:55:17 21.8 C 21 %
1141 12-08-2019 12:07:17 21.6 C 20 %
1142 12-08-2019 12:19:17 21.4 C 20 %
1143 12-08-2019 12:31:17 21.6 C 21 %
1144 12-08-2019 12:43:17 22 C 20 %
1145 12-08-2019 12:55:17 22.1 C 20 %
1146 12-08-2019 13:07:18 22.4 C 20 %
1147 12-08-2019 13:19:17 22.4 C 20 %
1148 12-08-2019 13:31:18 22.3 C 20 %
1149 12-08-2019 13:43:18 21.9 C 20 %
1150 12-08-2019 13:55:17 22.2 C 20 %
Sensor: Nr:Datum:Temp:Feuchte:
Aussen-T/F 1151 12-08-2019 14:07:18 22.5 C 20 %
1152 12-08-2019 14:19:17 22.9 C 20 %
1153 12-08-2019 14:31:17 23.2 C 20 %
1154 12-08-2019 14:43:17 23.9 C 20 %
1155 12-08-2019 14:55:17 24.5 C 20 %
1156 12-08-2019 15:07:18 24.6 C 20 %
1157 12-08-2019 15:19:17 24.2 C 20 %
1158 12-08-2019 15:31:17 24.1 C 20 %
1159 12-08-2019 15:43:17 23.5 C 20 %
1160 12-08-2019 15:55:17 24.8 C 20 %
1161 12-08-2019 16:07:17 24.1 C 20 %
1162 12-08-2019 16:19:17 23.3 C 20 %
1163 12-08-2019 16:31:17 23.6 C 20 %
1164 12-08-2019 16:43:17 21.7 C 20 %
1165 12-08-2019 16:55:17 20 C 20 %
1166 12-08-2019 17:07:18 19.7 C 20 %
1167 12-08-2019 17:19:17 18.9 C 22 %
1168 12-08-2019 17:31:17 15.8 C 40 %
1169 12-08-2019 17:43:17 15.4 C 41 %
1170 12-08-2019 17:55:17 15.5 C 44 %
1171 12-08-2019 18:07:17 15.6 C 43 %
1172 12-08-2019 18:19:17 15.8 C 46 %
1173 12-08-2019 18:31:17 15.4 C 43 %
1174 12-08-2019 18:43:17 15.4 C 46 %
1175 12-08-2019 18:55:18 15.3 C 47 %
Sensor: Nr:Datum:Temp:Feuchte:
Aussen-T/F 1176 12-08-2019 19:07:17 15.6 C 47 %
1177 12-08-2019 19:19:18 15.7 C 47 %
1178 12-08-2019 19:31:17 15.6 C 45 %
1179 12-08-2019 19:43:17 15.5 C 46 %
1180 12-08-2019 19:55:17 15.4 C 46 %
1181 12-08-2019 20:07:17 15.7 C 46 %
1182 12-08-2019 20:19:17 15.3 C 45 %
1183 12-08-2019 20:31:17 15.1 C 45 %
1184 12-08-2019 20:43:18 15 C 47 %
1185 12-08-2019 20:55:17 14.9 C 49 %
1186 12-08-2019 21:07:17 15 C 49 %
1187 12-08-2019 21:19:17 15 C 49 %
1188 12-08-2019 21:31:17 15.1 C 49 %
1189 12-08-2019 21:43:17 15.2 C 48 %
1190 12-08-2019 21:55:17 14.9 C 48 %
1191 12-08-2019 22:07:17 14.7 C 49 %
1192 12-08-2019 22:19:17 14.7 C 49 %
1193 12-08-2019 22:31:17 14.7 C 50 %
1194 12-08-2019 22:43:17 14.8 C 49 %
1195 12-08-2019 22:55:18 14.7 C 46 %
1196 12-08-2019 23:07:17 14.4 C 41 %
1197 12-08-2019 23:19:18 14.2 C 41 %
1198 12-08-2019 23:31:17 13.6 C 43 %
1199 12-08-2019 23:43:17 13.5 C 47 %
1200 12-08-2019 23:55:17 13.3 C 50 %
Sensor: Nr:Datum:Temp:Feuchte:
Aussen-T/F 1201 13-08-2019 00:07:17 13.5 C 49 %
1202 13-08-2019 00:19:17 13.5 C 49 %
1203 13-08-2019 00:31:17 13.6 C 48 %
1204 13-08-2019 00:43:17 13.6 C 48 %
1205 13-08-2019 00:55:17 13.4 C 48 %
1206 13-08-2019 01:07:17 13.2 C 50 %
1207 13-08-2019 01:19:17 13 C 49 %
1208 13-08-2019 01:31:17 13 C 49 %
1209 13-08-2019 01:43:17 12.7 C 50 %
1210 13-08-2019 01:55:17 12.4 C 50 %
1211 13-08-2019 02:07:17 12.9 C 51 %
1212 13-08-2019 02:19:17 12.8 C 50 %
1213 13-08-2019 02:31:17 12.7 C 49 %
1214 13-08-2019 02:43:17 12.7 C 49 %
1215 13-08-2019 02:55:18 13.1 C 48 %
1216 13-08-2019 03:07:17 13 C 48 %
1217 13-08-2019 03:19:18 12.7 C 49 %
1218 13-08-2019 03:31:17 12.5 C 50 %
1219 13-08-2019 03:43:17 12.7 C 51 %
1220 13-08-2019 03:55:18 12.8 C 51 %
1221 13-08-2019 04:07:17 12.9 C 51 %
1222 13-08-2019 04:19:17 13 C 50 %
1223 13-08-2019 04:31:17 13.6 C 46 %
1224 13-08-2019 04:43:17 13.6 C 45 %
1225 13-08-2019 04:55:17 13.6 C 45 %
Sensor: Nr:Datum:Temp:Feuchte:
Aussen-T/F 1226 13-08-2019 05:07:17 13.5 C 44 %
1227 13-08-2019 05:19:17 13.2 C 45 %
1228 13-08-2019 05:31:17 13.1 C 45 %
1229 13-08-2019 05:43:17 12.9 C 47 %
1230 13-08-2019 05:55:18 12.9 C 48 %
1231 13-08-2019 06:07:17 12.8 C 48 %
1232 13-08-2019 06:19:17 12.5 C 49 %
1233 13-08-2019 06:31:17 12.3 C 49 %
1234 13-08-2019 06:43:17 12.6 C 49 %
1235 13-08-2019 06:55:17 12.8 C 49 %
1236 13-08-2019 07:07:17 13 C 46 %
1237 13-08-2019 07:19:18 13.1 C 43 %
1238 13-08-2019 07:31:17 13.1 C 43 %
1239 13-08-2019 07:43:17 13.4 C 39 %
1240 13-08-2019 07:55:18 13.4 C 39 %
1241 13-08-2019 08:07:17 13.4 C 40 %
1242 13-08-2019 08:19:17 13.4 C 40 %
1243 13-08-2019 08:31:17 13.6 C 40 %
1244 13-08-2019 08:43:17 13.9 C 39 %
1245 13-08-2019 08:55:18 14.2 C 36 %
1246 13-08-2019 09:07:17 14.7 C 35 %
1247 13-08-2019 09:19:17 14.8 C 35 %
1248 13-08-2019 09:31:17 15.1 C 34 %
1249 13-08-2019 09:43:17 15.6 C 31 %
1250 13-08-2019 09:55:18 16 C 28 %
Sensor: Nr:Datum:Temp:Feuchte:
Aussen-T/F 1251 13-08-2019 10:07:17 16.3 C 25 %
1252 13-08-2019 10:19:18 16.4 C 25 %
1253 13-08-2019 10:31:17 16.2 C 25 %
1254 13-08-2019 10:43:17 17 C 24 %
1255 13-08-2019 10:55:18 17.6 C 21 %
1256 13-08-2019 11:07:18 17.1 C 20 %
1257 13-08-2019 11:19:17 19.4 C 20 %
1258 13-08-2019 11:31:17 19.5 C 20 %
1259 13-08-2019 11:43:17 19.1 C 20 %
1260 13-08-2019 11:55:17 18 C 20 %
1261 13-08-2019 12:07:17 18.5 C 20 %
1262 13-08-2019 12:19:17 18.7 C 20 %
1263 13-08-2019 12:31:17 18.3 C 20 %
1264 13-08-2019 12:43:17 18.8 C 20 %
1265 13-08-2019 12:55:17 18.7 C 20 %
1266 13-08-2019 13:07:18 19.1 C 20 %
1267 13-08-2019 13:19:17 19.2 C 20 %
1268 13-08-2019 13:31:18 19.3 C 20 %
1269 13-08-2019 13:43:18 19.5 C 20 %
1270 13-08-2019 13:55:17 20.3 C 20 %
1271 13-08-2019 14:07:18 20.4 C 20 %
1272 13-08-2019 14:19:17 19.8 C 20 %
1273 13-08-2019 14:31:18 20.3 C 20 %
1274 13-08-2019 14:43:18 20.8 C 20 %
1275 13-08-2019 14:55:17 21.1 C 20 %
Sensor: Nr:Datum:Temp:Feuchte:
Aussen-T/F 1276 13-08-2019 15:07:18 22.1 C 20 %
1277 13-08-2019 15:19:17 22.4 C 20 %
1278 13-08-2019 15:31:17 22.2 C 20 %
1279 13-08-2019 15:43:17 22.5 C 20 %
1280 13-08-2019 15:55:17 22.1 C 20 %
1281 13-08-2019 16:07:17 22 C 20 %
1282 13-08-2019 16:19:17 21.3 C 20 %
1283 13-08-2019 16:31:17 22.1 C 20 %
1284 13-08-2019 16:43:17 22.2 C 20 %
1285 13-08-2019 16:55:17 22.9 C 20 %
1286 13-08-2019 17:07:18 22.5 C 20 %
1287 13-08-2019 17:19:17 21.3 C 20 %
1288 13-08-2019 17:31:17 21.4 C 20 %
1289 13-08-2019 17:43:18 21.5 C 20 %
1290 13-08-2019 17:55:17 21.2 C 20 %
1291 13-08-2019 18:07:17 21.1 C 20 %
1292 13-08-2019 18:19:17 22.3 C 20 %
1293 13-08-2019 18:31:17 22.4 C 20 %
1294 13-08-2019 18:43:17 21.3 C 20 %
1295 13-08-2019 18:55:17 20.6 C 20 %
1296 13-08-2019 19:07:17 20.1 C 20 %
1297 13-08-2019 19:19:17 19.5 C 20 %
1298 13-08-2019 19:31:17 17.9 C 20 %
1299 13-08-2019 19:43:17 15.9 C 26 %
1300 13-08-2019 19:55:18 15.2 C 33 %
Sensor: Nr:Datum:Temp:Feuchte:
Aussen-T/F 1301 13-08-2019 20:07:17 14.2 C 40 %
1302 13-08-2019 20:19:18 14.1 C 42 %
1303 13-08-2019 20:31:17 13.9 C 43 %
1304 13-08-2019 20:43:17 13.9 C 45 %
1305 13-08-2019 20:55:18 13.8 C 45 %
1306 13-08-2019 21:07:17 13.8 C 47 %
1307 13-08-2019 21:19:18 13.7 C 47 %
1308 13-08-2019 21:31:17 13.6 C 47 %
1309 13-08-2019 21:43:17 13.6 C 48 %
1310 13-08-2019 21:55:17 13.5 C 47 %
1311 13-08-2019 22:07:17 13.5 C 48 %
1312 13-08-2019 22:19:18 13.5 C 49 %
1313 13-08-2019 22:31:17 13.5 C 49 %
1314 13-08-2019 22:43:17 13.4 C 47 %
1315 13-08-2019 22:55:18 13.6 C 48 %
1316 13-08-2019 23:07:17 13.4 C 47 %
1317 13-08-2019 23:19:17 13.2 C 47 %
1318 13-08-2019 23:31:17 13.3 C 48 %
1319 13-08-2019 23:43:18 13.1 C 49 %
1320 13-08-2019 23:55:17 13.2 C 48 %
1321 14-08-2019 00:07:18 13.1 C 48 %
1322 14-08-2019 00:19:17 12.9 C 49 %
1323 14-08-2019 00:31:17 13 C 48 %
1324 14-08-2019 00:43:17 12.9 C 48 %
1325 14-08-2019 00:55:17 12.7 C 48 %
Sensor: Nr:Datum:Temp:Feuchte:
Aussen-T/F 1326 14-08-2019 01:07:17 12.6 C 48 %
1327 14-08-2019 01:19:17 12.6 C 48 %
1328 14-08-2019 01:31:18 12.5 C 48 %
1329 14-08-2019 01:43:18 12.5 C 48 %
1330 14-08-2019 01:55:17 12.5 C 48 %
1331 14-08-2019 02:07:17 12.1 C 47 %
1332 14-08-2019 02:19:17 12 C 47 %
1333 14-08-2019 02:31:17 11.9 C 49 %
1334 14-08-2019 02:43:17 11.7 C 49 %
1335 14-08-2019 02:55:17 11.8 C 49 %
1336 14-08-2019 03:07:17 11.9 C 50 %
1337 14-08-2019 03:19:17 11.9 C 50 %
1338 14-08-2019 03:31:17 12 C 49 %
1339 14-08-2019 03:43:17 11.9 C 50 %
1340 14-08-2019 03:55:17 11.8 C 49 %
1341 14-08-2019 04:07:17 11.5 C 49 %
1342 14-08-2019 04:19:18 11.2 C 49 %
1343 14-08-2019 04:31:17 10.9 C 50 %
1344 14-08-2019 04:43:17 10.9 C 51 %
1345 14-08-2019 04:55:18 11 C 50 %
1346 14-08-2019 05:07:17 11 C 50 %
1347 14-08-2019 05:19:17 10.6 C 51 %
1348 14-08-2019 05:31:18 10.6 C 51 %
1349 14-08-2019 05:43:18 10.6 C 51 %
1350 14-08-2019 05:55:17 10.5 C 52 %
Sensor: Nr:Datum:Temp:Feuchte:
Aussen-T/F 1351 14-08-2019 06:07:17 10.4 C 52 %
1352 14-08-2019 06:19:17 10.2 C 51 %
1353 14-08-2019 06:31:18 10.1 C 51 %
1354 14-08-2019 06:43:18 10.2 C 52 %
1355 14-08-2019 06:55:17 10.2 C 52 %
1356 14-08-2019 07:07:18 10.2 C 52 %
1357 14-08-2019 07:19:17 10.4 C 52 %
1358 14-08-2019 07:31:18 10.5 C 52 %
1359 14-08-2019 07:43:18 10.7 C 52 %
1360 14-08-2019 07:55:17 10.8 C 52 %
1361 14-08-2019 08:07:17 10.9 C 52 %
1362 14-08-2019 08:19:18 11.1 C 51 %
1363 14-08-2019 08:31:17 11.2 C 52 %
1364 14-08-2019 08:43:17 11.9 C 52 %
1365 14-08-2019 08:55:17 12.2 C 50 %
1366 14-08-2019 09:07:18 13 C 43 %
1367 14-08-2019 09:19:17 13.4 C 40 %
1368 14-08-2019 09:31:18 13.7 C 37 %
1369 14-08-2019 09:43:18 14.2 C 36 %
1370 14-08-2019 09:55:17 14.6 C 36 %
1371 14-08-2019 10:07:17 14.5 C 36 %
1372 14-08-2019 10:19:17 14.2 C 38 %
1373 14-08-2019 10:31:18 14.3 C 39 %
1374 14-08-2019 10:43:18 14.4 C 39 %
1375 14-08-2019 10:55:17 16.8 C 36 %
Sensor: Nr:Datum:Temp:Feuchte:
Aussen-T/F 1376 14-08-2019 11:07:17 18.8 C 29 %
1377 14-08-2019 11:19:17 17.4 C 29 %
1378 14-08-2019 11:31:17 16.8 C 30 %
1379 14-08-2019 11:43:17 17.8 C 25 %
1380 14-08-2019 11:55:17 17.4 C 23 %
1381 14-08-2019 12:07:17 17.8 C 21 %
1382 14-08-2019 12:19:17 18 C 20 %
1383 14-08-2019 12:31:17 18.3 C 21 %
1384 14-08-2019 12:43:17 18.6 C 20 %
1385 14-08-2019 12:55:18 18.7 C 20 %
1386 14-08-2019 13:07:17 19.1 C 20 %
1387 14-08-2019 13:19:18 19.3 C 20 %
1388 14-08-2019 13:31:17 19.6 C 20 %
1389 14-08-2019 13:43:17 19.8 C 20 %
1390 14-08-2019 13:55:17 20.2 C 20 %
1391 14-08-2019 14:07:17 20.9 C 20 %
1392 14-08-2019 14:19:17 21.3 C 20 %
1393 14-08-2019 14:31:17 21.5 C 20 %
1394 14-08-2019 14:43:17 22.4 C 20 %
1395 14-08-2019 14:55:17 22.7 C 20 %
1396 14-08-2019 15:07:17 23.2 C 20 %
1397 14-08-2019 15:19:17 23.6 C 20 %
1398 14-08-2019 15:31:17 23.7 C 20 %
1399 14-08-2019 15:43:17 22.7 C 20 %
1400 14-08-2019 15:55:17 24 C 20 %
Sensor: Nr:Datum:Temp:Feuchte:
Aussen-T/F 1401 14-08-2019 16:07:17 24.2 C 20 %
1402 14-08-2019 16:19:17 24.6 C 20 %
1403 14-08-2019 16:31:17 24.7 C 20 %
1404 14-08-2019 16:43:17 24.6 C 20 %
1405 14-08-2019 16:55:17 24.6 C 20 %
1406 14-08-2019 17:07:18 25.4 C 20 %
1407 14-08-2019 17:19:17 25.1 C 20 %
1408 14-08-2019 17:31:18 24.6 C 20 %
1409 14-08-2019 17:43:18 25.1 C 20 %
1410 14-08-2019 17:55:17 25.1 C 20 %
1411 14-08-2019 18:07:17 25.2 C 20 %
1412 14-08-2019 18:19:17 24.5 C 20 %
1413 14-08-2019 18:31:17 24.9 C 20 %
1414 14-08-2019 18:43:17 24.4 C 20 %
1415 14-08-2019 18:55:17 24.3 C 20 %
1416 14-08-2019 19:07:18 23.8 C 20 %
1417 14-08-2019 19:19:17 22.5 C 20 %
1418 14-08-2019 19:31:18 21.2 C 20 %
1419 14-08-2019 19:43:18 20.8 C 20 %
1420 14-08-2019 19:55:17 20.8 C 20 %
1421 14-08-2019 20:07:17 19.8 C 20 %
1422 14-08-2019 20:19:17 19.3 C 20 %
1423 14-08-2019 20:31:17 18.9 C 23 %
1424 14-08-2019 20:43:17 18.7 C 25 %
1425 14-08-2019 20:55:17 18.4 C 24 %
Sensor: Nr:Datum:Temp:Feuchte:
Aussen-T/F 1426 14-08-2019 21:07:17 18.2 C 25 %
1427 14-08-2019 21:19:17 17.9 C 27 %
1428 14-08-2019 21:31:17 17.9 C 27 %
1429 14-08-2019 21:43:17 17.8 C 27 %
1430 14-08-2019 21:55:18 17.7 C 27 %
1431 14-08-2019 22:07:17 17.6 C 27 %
1432 14-08-2019 22:19:17 17.6 C 28 %
1433 14-08-2019 22:31:17 17.5 C 27 %
1434 14-08-2019 22:43:17 17.5 C 27 %
1435 14-08-2019 22:55:18 17.5 C 28 %
1436 14-08-2019 23:07:17 17.4 C 27 %
1437 14-08-2019 23:19:17 17.4 C 27 %
1438 14-08-2019 23:31:17 17.4 C 27 %
1439 14-08-2019 23:43:17 17.4 C 28 %
1440 14-08-2019 23:55:17 17.4 C 27 %
1441 15-08-2019 00:07:18 17.3 C 28 %
1442 15-08-2019 00:19:17 17.3 C 27 %
1443 15-08-2019 00:31:18 17.2 C 28 %
1444 15-08-2019 00:43:18 17.7 C 25 %
1445 15-08-2019 00:55:17 17.5 C 27 %
1446 15-08-2019 01:07:18 17.5 C 27 %
1447 15-08-2019 01:19:17 17.2 C 27 %
1448 15-08-2019 01:31:18 17.2 C 28 %
1449 15-08-2019 01:43:18 17.2 C 28 %
1450 15-08-2019 01:55:17 16 C 37 %
Sensor: Nr:Datum:Temp:Feuchte:
Aussen-T/F 1451 15-08-2019 02:07:18 15.8 C 41 %
1452 15-08-2019 02:19:17 15.2 C 45 %
1453 15-08-2019 02:31:17 15.1 C 46 %
1454 15-08-2019 02:43:17 15 C 47 %
1455 15-08-2019 02:55:18 15 C 47 %
1456 15-08-2019 03:07:17 14.9 C 49 %
1457 15-08-2019 03:19:17 14.8 C 50 %
1458 15-08-2019 03:31:17 14.7 C 50 %
1459 15-08-2019 03:43:17 14.7 C 49 %
1460 15-08-2019 03:55:17 14.6 C 50 %
1461 15-08-2019 04:07:17 14.6 C 50 %
1462 15-08-2019 04:19:17 14.7 C 50 %
1463 15-08-2019 04:31:17 14.7 C 50 %
1464 15-08-2019 04:43:17 14.7 C 50 %
1465 15-08-2019 04:55:17 14.7 C 49 %
1466 15-08-2019 05:07:17 14.7 C 49 %
1467 15-08-2019 05:19:17 14.7 C 49 %
1468 15-08-2019 05:31:17 14.7 C 49 %
1469 15-08-2019 05:43:18 14.7 C 48 %
1470 15-08-2019 05:55:17 14.8 C 49 %
1471 15-08-2019 06:07:17 14.9 C 48 %
1472 15-08-2019 06:19:17 14.8 C 47 %
1473 15-08-2019 06:31:17 14.8 C 48 %
1474 15-08-2019 06:43:17 14.9 C 49 %
1475 15-08-2019 06:55:17 15.2 C 46 %
Sensor: Nr:Datum:Temp:Feuchte:
Aussen-T/F 1476 15-08-2019 07:07:17 15.3 C 45 %
1477 15-08-2019 07:19:18 15.5 C 42 %
1478 15-08-2019 07:31:17 16.1 C 41 %
1479 15-08-2019 07:43:17 16.5 C 35 %
1480 15-08-2019 07:55:18 17.4 C 31 %
1481 15-08-2019 08:07:17 17.6 C 30 %
1482 15-08-2019 08:19:17 17.3 C 31 %
1483 15-08-2019 08:31:17 17.3 C 34 %
1484 15-08-2019 08:43:18 18 C 30 %
1485 15-08-2019 08:55:17 18.3 C 30 %
1486 15-08-2019 09:07:17 18.5 C 30 %
1487 15-08-2019 09:19:17 18.6 C 30 %
1488 15-08-2019 09:31:18 18.7 C 30 %
1489 15-08-2019 09:43:18 18.8 C 30 %
1490 15-08-2019 09:55:17 19 C 29 %
1491 15-08-2019 10:07:18 19.2 C 29 %
1492 15-08-2019 10:19:17 19.4 C 29 %
1493 15-08-2019 10:31:18 19.7 C 28 %
1494 15-08-2019 10:43:18 20 C 28 %
1495 15-08-2019 10:55:17 19.9 C 28 %
1496 15-08-2019 11:07:17 19.6 C 29 %
1497 15-08-2019 11:19:17 19.5 C 30 %
1498 15-08-2019 11:31:18 19.5 C 30 %
1499 15-08-2019 11:43:18 19.9 C 29 %
1500 15-08-2019 11:55:17 19.5 C 30 %
Sensor: Nr:Datum:Temp:Feuchte:
Aussen-T/F 1501 15-08-2019 12:07:18 19.9 C 29 %
1502 15-08-2019 12:19:17 20.3 C 27 %
1503 15-08-2019 12:31:18 21 C 25 %
1504 15-08-2019 12:43:18 20.4 C 26 %
1505 15-08-2019 12:55:17 18.5 C 38 %
1506 15-08-2019 13:07:18 18.2 C 40 %
1507 15-08-2019 13:19:17 17.8 C 45 %
1508 15-08-2019 13:31:18 18.3 C 44 %
1509 15-08-2019 13:43:18 18.1 C 45 %
1510 15-08-2019 13:55:17 18.7 C 46 %
1511 15-08-2019 14:07:18 19.2 C 37 %
1512 15-08-2019 14:19:17 19.5 C 34 %
1513 15-08-2019 14:31:18 19.6 C 35 %
1514 15-08-2019 14:43:18 20.5 C 32 %
1515 15-08-2019 14:55:17 21.3 C 28 %
1516 15-08-2019 15:07:18 22 C 26 %
1517 15-08-2019 15:19:17 22.5 C 25 %
1518 15-08-2019 15:31:18 20.4 C 30 %
1519 15-08-2019 15:43:18 18.7 C 45 %
1520 15-08-2019 15:55:17 18.9 C 46 %
1521 15-08-2019 16:07:17 19.1 C 43 %
1522 15-08-2019 16:19:17 20 C 39 %
1523 15-08-2019 16:31:18 19.8 C 35 %
1524 15-08-2019 16:43:18 18.6 C 36 %
1525 15-08-2019 16:56:17 17.2 C 44 %
Sensor: Nr:Datum:Temp:Feuchte:
Aussen-T/F 1526 15-08-2019 17:07:18 17.2 C 48 %
1527 15-08-2019 17:19:17 16.7 C 48 %
1528 15-08-2019 17:32:17 16.9 C 48 %
1529 15-08-2019 17:44:17 16.8 C 46 %
1530 15-08-2019 17:55:17 16.8 C 45 %
1531 15-08-2019 18:07:17 16.8 C 45 %
1532 15-08-2019 18:20:17 16.7 C 47 %
1533 15-08-2019 18:31:17 16.7 C 46 %
1534 15-08-2019 18:43:17 16.7 C 46 %
1535 15-08-2019 18:55:17 16.9 C 46 %
1536 15-08-2019 19:08:17 17.4 C 46 %
1537 15-08-2019 19:20:17 17.4 C 44 %
1538 15-08-2019 19:31:17 17.2 C 43 %
1539 15-08-2019 19:43:17 17 C 45 %
1540 15-08-2019 19:55:18 17 C 46 %
1541 15-08-2019 20:08:17 17 C 46 %
1542 15-08-2019 20:20:17 17.1 C 46 %
1543 15-08-2019 20:31:17 16.9 C 46 %
1544 15-08-2019 20:43:17 16.7 C 46 %
1545 15-08-2019 20:55:18 16.4 C 48 %
1546 15-08-2019 21:08:17 16.3 C 46 %
1547 15-08-2019 21:20:17 16.4 C 44 %
1548 15-08-2019 21:32:17 16.7 C 40 %
1549 15-08-2019 21:43:17 16.2 C 46 %
1550 15-08-2019 21:55:18 15.9 C 49 %
Sensor: Nr:Datum:Temp:Feuchte:
Aussen-T/F 1551 15-08-2019 22:08:17 15.8 C 49 %
1552 15-08-2019 22:20:17 15.6 C 47 %
1553 15-08-2019 22:32:17 15.4 C 48 %
1554 15-08-2019 22:43:17 15.4 C 49 %
1555 15-08-2019 22:55:18 15.4 C 47 %
1556 15-08-2019 23:08:17 15.3 C 47 %
1557 15-08-2019 23:20:17 15.3 C 48 %
1558 15-08-2019 23:32:17 15.2 C 49 %
1559 15-08-2019 23:44:17 15.2 C 50 %
1560 15-08-2019 23:56:17 15.2 C 48 %
1561 16-08-2019 00:07:18 15.3 C 46 %
1562 16-08-2019 00:20:17 15.3 C 46 %
1563 16-08-2019 00:31:18 15 C 47 %
1564 16-08-2019 00:43:18 14.8 C 49 %
1565 16-08-2019 00:56:17 14.5 C 49 %
1566 16-08-2019 01:08:17 14.4 C 50 %
1567 16-08-2019 01:20:17 14.3 C 50 %
1568 16-08-2019 01:32:17 14.3 C 50 %
1569 16-08-2019 01:44:17 14.3 C 50 %
1570 16-08-2019 01:56:17 14.2 C 50 %
1571 16-08-2019 02:08:17 14.3 C 51 %
1572 16-08-2019 02:20:17 14.3 C 51 %
1573 16-08-2019 02:32:17 14.4 C 50 %
1574 16-08-2019 02:44:17 14.4 C 50 %
1575 16-08-2019 02:56:18 14.3 C 50 %
Sensor: Nr:Datum:Temp:Feuchte:
Aussen-T/F 1576 16-08-2019 03:08:17 14.4 C 50 %
1577 16-08-2019 03:20:18 14.5 C 50 %
1578 16-08-2019 03:32:17 14.5 C 50 %
1579 16-08-2019 03:44:17 14.4 C 49 %
1580 16-08-2019 03:56:18 14.4 C 49 %
1581 16-08-2019 04:08:17 14.1 C 49 %
1582 16-08-2019 04:20:18 13.7 C 49 %
1583 16-08-2019 04:32:17 13.4 C 49 %
1584 16-08-2019 04:44:17 13.3 C 50 %
1585 16-08-2019 04:56:18 13.3 C 50 %
1586 16-08-2019 05:08:17 13.1 C 51 %
1587 16-08-2019 05:20:17 13.2 C 51 %
1588 16-08-2019 05:32:17 13.1 C 51 %
1589 16-08-2019 05:44:17 13.1 C 51 %
1590 16-08-2019 05:56:17 13.5 C 54 %
1591 16-08-2019 06:08:17 13.4 C 53 %
1592 16-08-2019 06:20:17 13.4 C 53 %
1593 16-08-2019 06:32:17 13.6 C 51 %
1594 16-08-2019 06:44:17 13.8 C 49 %
1595 16-08-2019 06:56:17 14 C 46 %
1596 16-08-2019 07:08:17 14.2 C 44 %
1597 16-08-2019 07:20:17 14.4 C 40 %
1598 16-08-2019 07:32:18 14.5 C 40 %
1599 16-08-2019 07:44:18 14.6 C 40 %
1600 16-08-2019 07:56:17 14.6 C 40 %
Sensor: Nr:Datum:Temp:Feuchte:
Aussen-T/F 1601 16-08-2019 08:08:17 14.6 C 39 %
1602 16-08-2019 08:20:17 14.5 C 41 %
1603 16-08-2019 08:32:17 14.8 C 40 %
1604 16-08-2019 08:44:17 15.1 C 36 %
1605 16-08-2019 08:56:17 15.2 C 36 %
1606 16-08-2019 09:08:17 15.3 C 36 %
1607 16-08-2019 09:20:17 15.6 C 36 %
1608 16-08-2019 09:32:17 16 C 34 %
1609 16-08-2019 09:44:17 16.4 C 34 %
1610 16-08-2019 09:56:18 16.3 C 33 %
1611 16-08-2019 10:08:17 16.3 C 32 %
1612 16-08-2019 10:20:18 16.8 C 31 %
1613 16-08-2019 10:32:17 16.8 C 31 %
1614 16-08-2019 10:44:17 16.9 C 32 %
1615 16-08-2019 10:56:17 18.9 C 28 %
1616 16-08-2019 11:08:17 18.8 C 26 %
1617 16-08-2019 11:20:17 20 C 23 %
1618 16-08-2019 11:32:17 18.5 C 26 %
1619 16-08-2019 11:44:17 18.1 C 27 %
1620 16-08-2019 11:56:17 18.2 C 27 %
1621 16-08-2019 12:08:18 18.1 C 27 %
1622 16-08-2019 12:20:17 18.5 C 27 %
1623 16-08-2019 12:32:17 18.9 C 26 %
1624 16-08-2019 12:44:17 19.2 C 25 %
1625 16-08-2019 12:56:17 19.4 C 24 %
Sensor: Nr:Datum:Temp:Feuchte:
Aussen-T/F 1626 16-08-2019 13:08:18 19.6 C 22 %
1627 16-08-2019 13:20:17 19.8 C 21 %
1628 16-08-2019 13:32:18 20 C 21 %
1629 16-08-2019 13:44:18 20.1 C 21 %
1630 16-08-2019 13:56:17 20.2 C 21 %
1631 16-08-2019 14:08:18 20.1 C 21 %
1632 16-08-2019 14:20:17 20.6 C 21 %
1633 16-08-2019 14:32:18 20.8 C 20 %
1634 16-08-2019 14:44:18 21.6 C 20 %
1635 16-08-2019 14:56:17 22.1 C 20 %
1636 16-08-2019 15:08:17 22.6 C 20 %
1637 16-08-2019 15:20:17 22.4 C 20 %
1638 16-08-2019 15:32:18 22.9 C 20 %
1639 16-08-2019 15:44:18 22.2 C 20 %
1640 16-08-2019 15:56:17 23.5 C 20 %
1641 16-08-2019 16:08:18 23.7 C 20 %
1642 16-08-2019 16:20:17 24.2 C 20 %
1643 16-08-2019 16:32:17 24.3 C 20 %
1644 16-08-2019 16:44:17 24.6 C 20 %
1645 16-08-2019 16:56:17 24.7 C 20 %
1646 16-08-2019 17:08:17 24.9 C 20 %
1647 16-08-2019 17:20:17 25.3 C 20 %
1648 16-08-2019 17:32:17 25.1 C 20 %
1649 16-08-2019 17:44:17 25.2 C 20 %
1650 16-08-2019 17:56:17 25.5 C 20 %
Sensor: Nr:Datum:Temp:Feuchte:
Aussen-T/F 1651 16-08-2019 18:08:17 25.1 C 20 %
1652 16-08-2019 18:20:17 25.4 C 20 %
1653 16-08-2019 18:32:17 24.9 C 20 %
1654 16-08-2019 18:44:17 24.9 C 20 %
1655 16-08-2019 18:56:18 24.7 C 20 %
1656 16-08-2019 19:08:17 24.3 C 20 %
1657 16-08-2019 19:20:17 23.8 C 20 %
1658 16-08-2019 19:32:17 23.1 C 20 %
1659 16-08-2019 19:44:17 22.6 C 20 %
1660 16-08-2019 19:56:18 21.1 C 20 %
1661 16-08-2019 20:08:17 19.9 C 25 %
1662 16-08-2019 20:20:17 19.1 C 27 %
1663 16-08-2019 20:32:17 18.6 C 28 %
1664 16-08-2019 20:44:17 18 C 30 %
1665 16-08-2019 20:56:17 17.7 C 31 %
1666 16-08-2019 21:08:17 17.6 C 31 %
1667 16-08-2019 21:20:18 17.8 C 32 %
1668 16-08-2019 21:32:17 17.5 C 32 %
1669 16-08-2019 21:44:17 17 C 33 %
1670 16-08-2019 21:56:17 16.8 C 35 %
1671 16-08-2019 22:08:17 16.9 C 36 %
1672 16-08-2019 22:20:17 16.8 C 36 %
1673 16-08-2019 22:32:17 16.6 C 36 %
1674 16-08-2019 22:44:17 16.6 C 36 %
1675 16-08-2019 22:56:17 16.3 C 37 %
Sensor: Nr:Datum:Temp:Feuchte:
Aussen-T/F 1676 16-08-2019 23:08:17 16.2 C 37 %
1677 16-08-2019 23:20:17 16.1 C 38 %
1678 16-08-2019 23:32:17 16.1 C 38 %
1679 16-08-2019 23:44:17 15.9 C 38 %
1680 16-08-2019 23:56:17 15.6 C 38 %
1681 17-08-2019 00:08:17 15.4 C 40 %
1682 17-08-2019 00:20:18 15.4 C 40 %
1683 17-08-2019 00:32:17 15.6 C 40 %
1684 17-08-2019 00:44:17 15.8 C 40 %
1685 17-08-2019 00:56:17 15.8 C 40 %
1686 17-08-2019 01:08:17 16.1 C 40 %
1687 17-08-2019 01:20:17 16 C 40 %
1688 17-08-2019 01:32:17 16 C 40 %
1689 17-08-2019 01:44:17 15.8 C 40 %
1690 17-08-2019 01:56:17 15.8 C 41 %
1691 17-08-2019 02:08:17 15.8 C 41 %
1692 17-08-2019 02:20:18 15.7 C 41 %
1693 17-08-2019 02:32:17 15.7 C 41 %
1694 17-08-2019 02:44:17 15.8 C 40 %
1695 17-08-2019 02:56:17 15.5 C 40 %
1696 17-08-2019 03:08:17 15.3 C 43 %
1697 17-08-2019 03:20:17 15.3 C 45 %
1698 17-08-2019 03:32:17 15.3 C 46 %
1699 17-08-2019 03:44:18 15.2 C 46 %
1700 17-08-2019 03:56:17 15.2 C 47 %
Sensor: Nr:Datum:Temp:Feuchte:
Aussen-T/F 1701 17-08-2019 04:08:17 15.2 C 47 %
1702 17-08-2019 04:20:17 15.2 C 48 %
1703 17-08-2019 04:32:17 15.3 C 48 %
1704 17-08-2019 04:44:17 15.4 C 48 %
1705 17-08-2019 04:56:18 15.4 C 48 %
1706 17-08-2019 05:08:17 15.4 C 48 %
1707 17-08-2019 05:20:18 15.4 C 48 %
1708 17-08-2019 05:32:17 15.5 C 48 %
1709 17-08-2019 05:44:17 15.5 C 47 %
1710 17-08-2019 05:56:17 15.6 C 46 %
1711 17-08-2019 06:08:17 15.5 C 46 %
1712 17-08-2019 06:20:17 15.6 C 46 %
1713 17-08-2019 06:32:17 15.7 C 46 %
1714 17-08-2019 06:44:17 15.8 C 45 %
1715 17-08-2019 06:56:17 16 C 44 %
1716 17-08-2019 07:08:17 16.1 C 44 %
1717 17-08-2019 07:20:17 16.4 C 43 %
1718 17-08-2019 07:32:17 16.6 C 41 %
1719 17-08-2019 07:44:17 16.7 C 41 %
1720 17-08-2019 07:56:17 16.8 C 41 %
1721 17-08-2019 08:08:17 16.9 C 41 %
1722 17-08-2019 08:20:17 17 C 38 %
1723 17-08-2019 08:32:17 17.4 C 36 %
1724 17-08-2019 08:44:17 17.6 C 35 %
1725 17-08-2019 08:56:17 18.4 C 30 %
Sensor: Nr:Datum:Temp:Feuchte:
Aussen-T/F 1726 17-08-2019 09:08:17 18.5 C 29 %
1727 17-08-2019 09:20:18 18.6 C 27 %
1728 17-08-2019 09:32:17 18.4 C 29 %
1729 17-08-2019 09:44:17 18.9 C 28 %
1730 17-08-2019 09:56:17 18.9 C 29 %
1731 17-08-2019 10:08:18 19.1 C 30 %
1732 17-08-2019 10:20:17 19.1 C 29 %
1733 17-08-2019 10:32:17 18.8 C 29 %
1734 17-08-2019 10:44:17 18.6 C 32 %
1735 17-08-2019 10:56:17 17.8 C 34 %
1736 17-08-2019 11:08:18 17.7 C 40 %
1737 17-08-2019 11:20:17 17.4 C 41 %
1738 17-08-2019 11:32:18 17.7 C 41 %
1739 17-08-2019 11:44:18 18.2 C 38 %
1740 17-08-2019 11:56:17 18.1 C 37 %
1741 17-08-2019 12:08:17 18 C 39 %
1742 17-08-2019 12:20:17 18.1 C 39 %
1743 17-08-2019 12:32:17 18.9 C 37 %
1744 17-08-2019 12:44:17 19.9 C 34 %
1745 17-08-2019 12:56:17 20.4 C 29 %
1746 17-08-2019 13:08:17 20.7 C 28 %
1747 17-08-2019 13:20:17 20.6 C 25 %
1748 17-08-2019 13:32:17 21 C 25 %
1749 17-08-2019 13:44:17 21.3 C 23 %
1750 17-08-2019 13:56:18 20.9 C 25 %
Sensor: Nr:Datum:Temp:Feuchte:
Aussen-T/F 1751 17-08-2019 14:08:17 20.9 C 25 %
1752 17-08-2019 14:20:18 21.2 C 25 %
1753 17-08-2019 14:32:17 21.3 C 24 %
1754 17-08-2019 14:44:17 21.4 C 23 %
1755 17-08-2019 14:56:18 21.6 C 23 %
1756 17-08-2019 15:08:17 21.7 C 23 %
1757 17-08-2019 15:20:17 21.5 C 23 %
1758 17-08-2019 15:32:17 21.3 C 24 %
1759 17-08-2019 15:44:17 21.3 C 24 %
1760 17-08-2019 15:56:17 21.3 C 24 %
1761 17-08-2019 16:08:17 21.7 C 24 %
1762 17-08-2019 16:20:17 21.2 C 24 %
1763 17-08-2019 16:32:17 20.9 C 26 %
1764 17-08-2019 16:44:17 20.9 C 25 %
1765 17-08-2019 16:56:18 21 C 25 %
1766 17-08-2019 17:08:17 20.6 C 28 %
1767 17-08-2019 17:20:18 20.5 C 25 %
1768 17-08-2019 17:32:17 20.4 C 27 %
1769 17-08-2019 17:44:17 20.3 C 27 %
1770 17-08-2019 17:56:18 20.2 C 29 %
1771 17-08-2019 18:08:17 20.1 C 29 %
1772 17-08-2019 18:20:18 19.4 C 33 %
1773 17-08-2019 18:32:17 19.4 C 38 %
1774 17-08-2019 18:44:17 19.3 C 35 %
1775 17-08-2019 18:56:18 18.8 C 36 %
Sensor: Nr:Datum:Temp:Feuchte:
Aussen-T/F 1776 17-08-2019 19:08:17 18.6 C 43 %
1777 17-08-2019 19:20:17 18.3 C 44 %
1778 17-08-2019 19:32:17 18.1 C 43 %
1779 17-08-2019 19:44:17 18.1 C 45 %
1780 17-08-2019 19:56:18 17.9 C 46 %
1781 17-08-2019 20:08:17 17.8 C 46 %
1782 17-08-2019 20:20:17 17.8 C 47 %
1783 17-08-2019 20:32:17 17.6 C 47 %
1784 17-08-2019 20:44:17 17.6 C 47 %
1785 17-08-2019 20:56:17 17.5 C 47 %
1786 17-08-2019 21:08:17 17.6 C 47 %
1787 17-08-2019 21:20:17 17.4 C 47 %
1788 17-08-2019 21:32:17 17.4 C 48 %
1789 17-08-2019 21:44:17 17.5 C 48 %
1790 17-08-2019 21:56:18 17.4 C 47 %
1791 17-08-2019 22:08:17 17.3 C 48 %
1792 17-08-2019 22:20:17 17.3 C 48 %
1793 17-08-2019 22:32:18 17.3 C 48 %
1794 17-08-2019 22:44:18 17.3 C 49 %
1795 17-08-2019 22:56:17 17.2 C 49 %
1796 17-08-2019 23:08:17 17.2 C 49 %
1797 17-08-2019 23:20:17 17.2 C 49 %
1798 17-08-2019 23:32:17 17.1 C 49 %
1799 17-08-2019 23:44:17 17 C 49 %
1800 17-08-2019 23:56:17 17 C 49 %
Sensor: Nr:Datum:Temp:Feuchte:
Aussen-T/F 1801 18-08-2019 00:08:17 17.1 C 49 %
1802 18-08-2019 00:20:17 17 C 49 %
1803 18-08-2019 00:32:17 17.1 C 49 %
1804 18-08-2019 00:44:17 17.2 C 50 %
1805 18-08-2019 00:56:18 17.2 C 50 %
1806 18-08-2019 01:08:17 17.1 C 50 %
1807 18-08-2019 01:20:17 17 C 50 %
1808 18-08-2019 01:32:17 17 C 50 %
1809 18-08-2019 01:44:17 17 C 50 %
1810 18-08-2019 01:56:18 16.9 C 51 %
1811 18-08-2019 02:08:17 16.9 C 51 %
1812 18-08-2019 02:20:17 16.8 C 51 %
1813 18-08-2019 02:32:17 16.8 C 52 %
1814 18-08-2019 02:44:17 17 C 52 %
1815 18-08-2019 02:56:17 16.9 C 53 %
1816 18-08-2019 03:08:17 16.9 C 53 %
1817 18-08-2019 03:20:17 16.9 C 54 %
1818 18-08-2019 03:32:17 16.9 C 54 %
1819 18-08-2019 03:44:17 16.8 C 54 %
1820 18-08-2019 03:56:18 16.8 C 55 %
1821 18-08-2019 04:08:17 16.8 C 54 %
1822 18-08-2019 04:20:17 16.8 C 55 %
1823 18-08-2019 04:32:17 16.8 C 57 %
1824 18-08-2019 04:44:17 16.9 C 59 %
1825 18-08-2019 04:56:18 17 C 59 %
Sensor: Nr:Datum:Temp:Feuchte:
Aussen-T/F 1826 18-08-2019 05:08:17 17 C 59 %
1827 18-08-2019 05:20:17 17 C 59 %
1828 18-08-2019 05:32:17 17 C 60 %
1829 18-08-2019 05:44:17 17 C 60 %
1830 18-08-2019 05:56:18 17 C 60 %
1831 18-08-2019 06:08:17 17 C 60 %
1832 18-08-2019 06:20:17 16.9 C 61 %
1833 18-08-2019 06:32:17 16.9 C 60 %
1834 18-08-2019 06:44:17 16.9 C 61 %
1835 18-08-2019 06:56:17 16.9 C 61 %
1836 18-08-2019 07:08:18 16.9 C 62 %
1837 18-08-2019 07:20:17 17.1 C 62 %
1838 18-08-2019 07:32:18 17.1 C 61 %
1839 18-08-2019 07:44:18 17.2 C 61 %
1840 18-08-2019 07:56:17 17.3 C 61 %
1841 18-08-2019 08:08:18 17.5 C 62 %
1842 18-08-2019 08:20:17 17.6 C 61 %
1843 18-08-2019 08:32:18 17.7 C 60 %
1844 18-08-2019 08:44:18 17.8 C 60 %
1845 18-08-2019 08:56:17 18 C 58 %
1846 18-08-2019 09:08:18 18.3 C 59 %
1847 18-08-2019 09:20:17 18.5 C 59 %
1848 18-08-2019 09:32:17 18.8 C 58 %
1849 18-08-2019 09:44:17 18.8 C 55 %
1850 18-08-2019 09:56:17 19 C 50 %
Sensor: Nr:Datum:Temp:Feuchte:
Aussen-T/F 1851 18-08-2019 10:08:17 19.4 C 49 %
1852 18-08-2019 10:20:17 19.6 C 45 %
1853 18-08-2019 10:32:17 20 C 44 %
1854 18-08-2019 10:44:17 20.5 C 41 %
1855 18-08-2019 10:56:17 20.8 C 40 %
1856 18-08-2019 11:08:18 22.2 C 36 %
1857 18-08-2019 11:20:17 22.3 C 33 %
1858 18-08-2019 11:32:17 23.1 C 32 %
1859 18-08-2019 11:44:18 24 C 28 %
1860 18-08-2019 11:56:17 24.1 C 27 %
1861 18-08-2019 12:08:17 24.1 C 27 %
1862 18-08-2019 12:20:18 24.6 C 26 %
1863 18-08-2019 12:32:17 24.5 C 25 %
1864 18-08-2019 12:44:17 24.5 C 25 %
1865 18-08-2019 12:56:17 24.5 C 25 %
1866 18-08-2019 13:08:17 24.4 C 25 %
1867 18-08-2019 13:20:17 24.1 C 25 %
1868 18-08-2019 13:32:17 24.5 C 25 %
1869 18-08-2019 13:44:17 24.9 C 25 %
1870 18-08-2019 13:56:17 25.2 C 23 %
1871 18-08-2019 14:08:17 25 C 23 %
1872 18-08-2019 14:20:17 24.7 C 24 %
1873 18-08-2019 14:32:18 24.7 C 24 %
1874 18-08-2019 14:44:18 24.8 C 24 %
1875 18-08-2019 14:56:17 24.5 C 25 %
Sensor: Nr:Datum:Temp:Feuchte:
Aussen-T/F 1876 18-08-2019 15:08:18 24.3 C 25 %
1877 18-08-2019 15:20:17 24.8 C 25 %
1878 18-08-2019 15:32:18 25.4 C 23 %
1879 18-08-2019 15:44:18 25 C 23 %
1880 18-08-2019 15:56:17 25 C 23 %
1881 18-08-2019 16:08:17 25.6 C 22 %
1882 18-08-2019 16:20:17 25.3 C 22 %
1883 18-08-2019 16:32:17 25.3 C 22 %
1884 18-08-2019 16:44:17 25 C 22 %
1885 18-08-2019 16:56:18 24.6 C 23 %
1886 18-08-2019 17:08:17 25.7 C 21 %
1887 18-08-2019 17:20:18 25.3 C 21 %
1888 18-08-2019 17:32:17 24.6 C 21 %
1889 18-08-2019 17:44:17 23.5 C 23 %
1890 18-08-2019 17:56:18 20 C 42 %
1891 18-08-2019 18:08:17 19.8 C 48 %
1892 18-08-2019 18:20:17 19.8 C 48 %
1893 18-08-2019 18:32:17 19.8 C 48 %
1894 18-08-2019 18:44:17 20 C 48 %
1895 18-08-2019 18:56:18 19.9 C 48 %
1896 18-08-2019 19:08:18 19.7 C 48 %
1897 18-08-2019 19:20:17 19.6 C 48 %
1898 18-08-2019 19:32:18 19.5 C 48 %
1899 18-08-2019 19:44:18 19.3 C 48 %
1900 18-08-2019 19:56:17 19.3 C 48 %
Sensor: Nr:Datum:Temp:Feuchte:
Aussen-T/F 1901 18-08-2019 20:08:17 19.2 C 48 %
1902 18-08-2019 20:20:17 19.2 C 48 %
1903 18-08-2019 20:32:17 19.1 C 47 %
1904 18-08-2019 20:44:17 19.1 C 48 %
1905 18-08-2019 20:56:18 18.9 C 48 %
1906 18-08-2019 21:08:18 18.9 C 48 %
1907 18-08-2019 21:20:17 18.5 C 47 %
1908 18-08-2019 21:32:17 18.3 C 46 %
1909 18-08-2019 21:44:17 18 C 47 %
1910 18-08-2019 21:56:17 17.9 C 48 %
1911 18-08-2019 22:08:17 17.7 C 49 %
1912 18-08-2019 22:20:18 17.6 C 49 %
1913 18-08-2019 22:32:17 17.1 C 48 %
1914 18-08-2019 22:44:17 16.6 C 49 %
1915 18-08-2019 22:56:17 16.6 C 48 %
1916 18-08-2019 23:08:18 16.5 C 47 %
1917 18-08-2019 23:20:17 16.5 C 47 %
1918 18-08-2019 23:32:18 16.4 C 47 %
1919 18-08-2019 23:44:18 16.1 C 48 %
1920 18-08-2019 23:56:17 16.1 C 48 %
1921 19-08-2019 00:08:18 16 C 48 %
1922 19-08-2019 00:20:17 16 C 48 %
1923 19-08-2019 00:32:18 16 C 48 %
1924 19-08-2019 00:44:18 16.1 C 48 %
1925 19-08-2019 00:56:17 16.1 C 48 %
Sensor: Nr:Datum:Temp:Feuchte:
Aussen-T/F 1926 19-08-2019 01:08:18 16.1 C 47 %
1927 19-08-2019 01:20:17 16.1 C 46 %
1928 19-08-2019 01:32:18 16.1 C 46 %
1929 19-08-2019 01:44:18 16.1 C 46 %
1930 19-08-2019 01:56:17 16 C 46 %
1931 19-08-2019 02:08:17 16 C 45 %
1932 19-08-2019 02:20:17 15.8 C 47 %
1933 19-08-2019 02:32:17 15.6 C 48 %
1934 19-08-2019 02:44:17 15.6 C 49 %
1935 19-08-2019 02:56:17 15.6 C 48 %
1936 19-08-2019 03:08:18 15.5 C 48 %
1937 19-08-2019 03:20:17 15.3 C 49 %
1938 19-08-2019 03:32:17 15.1 C 48 %
1939 19-08-2019 03:44:17 15.1 C 48 %
1940 19-08-2019 03:56:17 14.8 C 49 %
1941 19-08-2019 04:08:18 14.8 C 50 %
1942 19-08-2019 04:20:17 14.7 C 50 %
1943 19-08-2019 04:32:18 14.6 C 50 %
1944 19-08-2019 04:44:18 14.8 C 51 %
1945 19-08-2019 04:56:17 14.9 C 52 %
1946 19-08-2019 05:08:18 15 C 51 %
1947 19-08-2019 05:20:17 15 C 50 %
1948 19-08-2019 05:32:18 15 C 50 %
1949 19-08-2019 05:44:18 14.8 C 51 %
1950 19-08-2019 05:56:17 14.6 C 50 %
Sensor: Nr:Datum:Temp:Feuchte:
Aussen-T/F 1951 19-08-2019 06:08:18 14.4 C 50 %
1952 19-08-2019 06:20:17 14.2 C 50 %
1953 19-08-2019 06:32:17 14.2 C 51 %
1954 19-08-2019 06:44:17 14.3 C 52 %
1955 19-08-2019 06:56:17 14.2 C 52 %
1956 19-08-2019 07:08:17 14.2 C 52 %
1957 19-08-2019 07:20:17 14.4 C 53 %
1958 19-08-2019 07:32:17 14.8 C 57 %
1959 19-08-2019 07:44:17 15.4 C 58 %
1960 19-08-2019 07:56:17 15.5 C 51 %
1961 19-08-2019 08:08:17 15.3 C 47 %
1962 19-08-2019 08:20:18 15.4 C 47 %
1963 19-08-2019 08:32:17 15.5 C 46 %
1964 19-08-2019 08:44:17 15.6 C 46 %
1965 19-08-2019 08:56:17 15.6 C 46 %
1966 19-08-2019 09:08:18 15.8 C 45 %
1967 19-08-2019 09:20:17 16 C 43 %
1968 19-08-2019 09:32:17 16.2 C 40 %
1969 19-08-2019 09:44:17 16.7 C 36 %
1970 19-08-2019 09:56:17 16.7 C 36 %
1971 19-08-2019 10:08:18 16.8 C 35 %
1972 19-08-2019 10:20:17 17.6 C 30 %
1973 19-08-2019 10:32:18 17.7 C 30 %
1974 19-08-2019 10:44:18 18 C 28 %
1975 19-08-2019 10:56:17 20.9 C 22 %
Sensor: Nr:Datum:Temp:Feuchte:
Aussen-T/F 1976 19-08-2019 11:08:17 22.2 C 21 %
1977 19-08-2019 11:20:17 23.3 C 20 %
1978 19-08-2019 11:32:17 20 C 20 %
1979 19-08-2019 11:44:17 19.6 C 20 %
1980 19-08-2019 11:56:17 19.7 C 20 %
1981 19-08-2019 12:08:17 20 C 20 %
1982 19-08-2019 12:20:17 20.6 C 20 %
1983 19-08-2019 12:32:17 20.8 C 20 %
1984 19-08-2019 12:44:17 20.7 C 20 %
1985 19-08-2019 12:56:18 20.9 C 20 %
1986 19-08-2019 13:08:17 21.1 C 20 %
1987 19-08-2019 13:20:18 21.6 C 20 %
1988 19-08-2019 13:32:17 21.9 C 20 %
1989 19-08-2019 13:44:17 22.2 C 20 %
1990 19-08-2019 13:56:17 22.6 C 20 %
1991 19-08-2019 14:08:18 22.8 C 20 %
1992 19-08-2019 14:20:17 23 C 20 %
1993 19-08-2019 14:32:18 23.6 C 20 %
1994 19-08-2019 14:44:18 23.7 C 20 %
1995 19-08-2019 14:56:17 24 C 20 %
1996 19-08-2019 15:08:18 24.1 C 20 %
1997 19-08-2019 15:20:17 24.1 C 20 %
1998 19-08-2019 15:32:18 24.5 C 20 %
1999 19-08-2019 15:44:18 23.7 C 20 %
2000 19-08-2019 15:56:17 23.1 C 20 %
Sensor: Nr:Datum:Temp:Feuchte:
Aussen-T/F 2001 19-08-2019 16:08:18 22.6 C 20 %
2002 19-08-2019 16:20:17 24 C 20 %
2003 19-08-2019 16:32:17 24.6 C 20 %
2004 19-08-2019 16:44:17 25.5 C 20 %
2005 19-08-2019 16:56:17 25.6 C 20 %
2006 19-08-2019 17:08:18 24.7 C 20 %
2007 19-08-2019 17:20:18 24.8 C 20 %
2008 19-08-2019 17:32:17 23.7 C 20 %
2009 19-08-2019 17:44:17 23.5 C 20 %
2010 19-08-2019 17:56:17 23.2 C 20 %
2011 19-08-2019 18:08:17 23.5 C 20 %
2012 19-08-2019 18:20:17 24.1 C 20 %
2013 19-08-2019 18:32:18 24.1 C 20 %
2014 19-08-2019 18:44:18 23.3 C 20 %
2015 19-08-2019 18:56:17 24.4 C 20 %
2016 19-08-2019 19:08:18 24.4 C 20 %
2017 19-08-2019 19:20:17 23.1 C 20 %
2018 19-08-2019 19:32:17 21.9 C 20 %
2019 19-08-2019 19:44:17 20.9 C 20 %
2020 19-08-2019 19:56:17 20.5 C 20 %
2021 19-08-2019 20:08:17 19.7 C 21 %
2022 19-08-2019 20:20:18 19.1 C 24 %
2023 19-08-2019 20:32:17 18.6 C 24 %
2024 19-08-2019 20:44:17 17.9 C 27 %
2025 19-08-2019 20:56:18 17.6 C 27 %
Sensor: Nr:Datum:Temp:Feuchte:
Aussen-T/F 2026 19-08-2019 21:08:17 17.1 C 27 %
2027 19-08-2019 21:20:18 16.9 C 28 %
2028 19-08-2019 21:32:17 16.6 C 29 %
2029 19-08-2019 21:44:17 16.3 C 30 %
2030 19-08-2019 21:56:17 16.2 C 30 %
2031 19-08-2019 22:08:17 16.4 C 30 %
2032 19-08-2019 22:20:17 16.6 C 30 %
2033 19-08-2019 22:32:18 16.5 C 31 %
2034 19-08-2019 22:44:18 16.1 C 31 %
2035 19-08-2019 22:56:17 15.4 C 33 %
2036 19-08-2019 23:08:18 15.2 C 34 %
2037 19-08-2019 23:20:17 14.5 C 36 %
2038 19-08-2019 23:32:18 14.4 C 37 %
2039 19-08-2019 23:44:18 14.3 C 36 %
2040 19-08-2019 23:56:17 14 C 37 %
2041 20-08-2019 00:08:18 13.9 C 39 %
2042 20-08-2019 00:20:17 13.7 C 39 %
2043 20-08-2019 00:32:17 13.7 C 38 %
2044 20-08-2019 00:44:17 13.4 C 39 %
2045 20-08-2019 00:56:17 13.4 C 40 %
2046 20-08-2019 01:08:18 13.3 C 40 %
2047 20-08-2019 01:20:17 13.4 C 40 %
2048 20-08-2019 01:32:18 12.9 C 42 %
2049 20-08-2019 01:44:18 12.8 C 42 %
2050 20-08-2019 01:56:17 12.9 C 43 %
Sensor: Nr:Datum:Temp:Feuchte:
Aussen-T/F 2051 20-08-2019 02:08:18 12.7 C 42 %
2052 20-08-2019 02:20:17 12.8 C 42 %
2053 20-08-2019 02:32:18 12.9 C 42 %
2054 20-08-2019 02:44:18 12.8 C 41 %
2055 20-08-2019 02:56:17 12.7 C 42 %
2056 20-08-2019 03:08:18 12.2 C 42 %
2057 20-08-2019 03:20:17 12 C 44 %
2058 20-08-2019 03:32:18 11.8 C 45 %
2059 20-08-2019 03:44:18 11.7 C 46 %
2060 20-08-2019 03:56:17 11.6 C 48 %
2061 20-08-2019 04:08:18 11.3 C 47 %
2062 20-08-2019 04:20:17 11.2 C 48 %
2063 20-08-2019 04:32:17 11 C 48 %
2064 20-08-2019 04:44:17 11 C 48 %
2065 20-08-2019 04:56:17 11 C 49 %
2066 20-08-2019 05:08:17 10.9 C 50 %
2067 20-08-2019 05:20:18 10.8 C 50 %
2068 20-08-2019 05:32:17 10.9 C 51 %
2069 20-08-2019 05:44:17 10.7 C 50 %
2070 20-08-2019 05:56:17 10.4 C 50 %
2071 20-08-2019 06:08:17 10.4 C 50 %
2072 20-08-2019 06:20:18 10.3 C 50 %
2073 20-08-2019 06:32:17 10.3 C 51 %
2074 20-08-2019 06:44:17 10.2 C 51 %
2075 20-08-2019 06:56:17 10.4 C 51 %
Sensor: Nr:Datum:Temp:Feuchte:
Aussen-T/F 2076 20-08-2019 07:08:17 10.8 C 51 %
2077 20-08-2019 07:20:17 10.8 C 50 %
2078 20-08-2019 07:32:17 11.1 C 50 %
2079 20-08-2019 07:44:17 11.3 C 49 %
2080 20-08-2019 07:56:17 11.4 C 49 %
2081 20-08-2019 08:08:17 11.4 C 49 %
2082 20-08-2019 08:20:17 11.5 C 48 %
2083 20-08-2019 08:32:17 11.7 C 48 %
2084 20-08-2019 08:44:17 11.9 C 48 %
2085 20-08-2019 08:56:17 12.1 C 47 %
2086 20-08-2019 09:08:17 12.2 C 46 %
2087 20-08-2019 09:20:18 12.8 C 47 %
2088 20-08-2019 09:32:17 13.4 C 45 %
2089 20-08-2019 09:44:17 14.2 C 37 %
2090 20-08-2019 09:56:17 15 C 35 %
2091 20-08-2019 10:08:18 15.6 C 32 %
2092 20-08-2019 10:20:17 16.1 C 30 %
2093 20-08-2019 10:32:18 16.6 C 29 %
2094 20-08-2019 10:44:18 17 C 27 %
2095 20-08-2019 10:56:17 17.4 C 25 %
2096 20-08-2019 11:08:18 17.7 C 25 %
2097 20-08-2019 11:20:17 17.9 C 23 %
2098 20-08-2019 11:32:18 17.9 C 20 %
2099 20-08-2019 11:44:18 18.2 C 20 %
2100 20-08-2019 11:56:17 18.4 C 20 %
Sensor: Nr:Datum:Temp:Feuchte:
Aussen-T/F 2101 20-08-2019 12:08:17 18.7 C 20 %
2102 20-08-2019 12:20:17 19 C 20 %
2103 20-08-2019 12:32:18 19.4 C 20 %
2104 20-08-2019 12:44:18 19.5 C 20 %
2105 20-08-2019 12:56:17 19.7 C 20 %
2106 20-08-2019 13:08:18 19.7 C 20 %
2107 20-08-2019 13:20:17 20 C 20 %
2108 20-08-2019 13:32:18 20.3 C 20 %
2109 20-08-2019 13:44:18 20.2 C 20 %
2110 20-08-2019 13:56:17 20.5 C 20 %
2111 20-08-2019 14:08:18 20.7 C 20 %
2112 20-08-2019 14:20:17 21.1 C 20 %
2113 20-08-2019 14:32:18 21.1 C 20 %
2114 20-08-2019 14:44:18 21.4 C 20 %
2115 20-08-2019 14:56:17 21.6 C 20 %
2116 20-08-2019 15:08:18 21.8 C 20 %
2117 20-08-2019 15:20:17 21.5 C 20 %
2118 20-08-2019 15:32:18 21.9 C 20 %
2119 20-08-2019 15:44:18 22 C 20 %
2120 20-08-2019 15:56:17 21.9 C 20 %
2121 20-08-2019 16:08:18 21.9 C 20 %
2122 20-08-2019 16:20:17 22.1 C 20 %
2123 20-08-2019 16:32:17 21.7 C 20 %
2124 20-08-2019 16:44:17 20.9 C 20 %
2125 20-08-2019 16:56:18 20.3 C 20 %
Sensor: Nr:Datum:Temp:Feuchte:
Aussen-T/F 2126 20-08-2019 17:08:17 20.8 C 20 %
2127 20-08-2019 17:20:18 21.1 C 20 %
2128 20-08-2019 17:32:17 20.8 C 20 %
2129 20-08-2019 17:44:17 20.2 C 20 %
2130 20-08-2019 17:56:17 20.5 C 20 %
2131 20-08-2019 18:08:17 20.6 C 21 %
2132 20-08-2019 18:20:17 20.4 C 22 %
2133 20-08-2019 18:32:17 20.1 C 22 %
2134 20-08-2019 18:44:17 19.7 C 24 %
2135 20-08-2019 18:56:17 19.3 C 25 %
2136 20-08-2019 19:08:17 18.9 C 26 %
2137 20-08-2019 19:20:17 18.7 C 27 %
2138 20-08-2019 19:32:17 18.3 C 26 %
2139 20-08-2019 19:44:17 18.2 C 27 %
2140 20-08-2019 19:56:17 17.8 C 28 %
2141 20-08-2019 20:08:17 17.4 C 28 %
2142 20-08-2019 20:20:17 17.3 C 28 %
2143 20-08-2019 20:32:18 17.1 C 29 %
2144 20-08-2019 20:44:18 17 C 30 %
2145 20-08-2019 20:56:17 17.1 C 28 %
2146 20-08-2019 21:08:17 17.3 C 27 %
2147 20-08-2019 21:20:17 16.8 C 30 %
2148 20-08-2019 21:32:17 16.2 C 31 %
2149 20-08-2019 21:44:17 15.8 C 32 %
2150 20-08-2019 21:56:17 15.8 C 35 %
Sensor: Nr:Datum:Temp:Feuchte:
Aussen-T/F 2151 20-08-2019 22:08:18 16.1 C 31 %
2152 20-08-2019 22:20:17 16.1 C 31 %
2153 20-08-2019 22:32:18 16.4 C 30 %
2154 20-08-2019 22:44:18 16.2 C 30 %
2155 20-08-2019 22:56:17 15.9 C 31 %
2156 20-08-2019 23:08:17 15.6 C 33 %
2157 20-08-2019 23:20:17 15.5 C 32 %
2158 20-08-2019 23:32:17 15 C 33 %
2159 20-08-2019 23:44:17 14.5 C 35 %
2160 20-08-2019 23:56:17 14.2 C 37 %
2161 21-08-2019 00:08:17 13.8 C 40 %
2162 21-08-2019 00:20:17 13.7 C 41 %
2163 21-08-2019 00:32:17 13.7 C 41 %
2164 21-08-2019 00:44:17 13.6 C 41 %
2165 21-08-2019 00:56:18 13.7 C 41 %
2166 21-08-2019 01:08:17 13.4 C 41 %
2167 21-08-2019 01:20:18 13.2 C 43 %
2168 21-08-2019 01:32:17 13.2 C 43 %
2169 21-08-2019 01:44:17 12.8 C 43 %
2170 21-08-2019 01:56:18 12.6 C 44 %
2171 21-08-2019 02:08:17 12.4 C 45 %
2172 21-08-2019 02:20:18 12.2 C 46 %
2173 21-08-2019 02:32:17 12.2 C 47 %
2174 21-08-2019 02:44:17 12 C 46 %
2175 21-08-2019 02:56:17 11.8 C 48 %
Sensor: Nr:Datum:Temp:Feuchte:
Aussen-T/F 2176 21-08-2019 03:08:17 11.7 C 48 %
2177 21-08-2019 03:20:18 11.7 C 49 %
2178 21-08-2019 03:32:17 11.7 C 50 %
2179 21-08-2019 03:44:17 11.6 C 50 %
2180 21-08-2019 03:56:18 11.3 C 49 %
2181 21-08-2019 04:08:17 11.1 C 49 %
2182 21-08-2019 04:20:18 11 C 49 %
2183 21-08-2019 04:32:17 11 C 50 %
2184 21-08-2019 04:44:17 10.8 C 50 %
2185 21-08-2019 04:56:17 10.7 C 50 %
2186 21-08-2019 05:08:17 10.7 C 51 %
2187 21-08-2019 05:20:17 10.6 C 50 %
2188 21-08-2019 05:32:18 10.4 C 50 %
2189 21-08-2019 05:44:18 10.3 C 51 %
2190 21-08-2019 05:56:17 10.3 C 51 %
2191 21-08-2019 06:08:17 10.2 C 51 %
2192 21-08-2019 06:20:18 10.2 C 51 %
2193 21-08-2019 06:32:17 10.1 C 51 %
2194 21-08-2019 06:44:17 10.1 C 51 %
2195 21-08-2019 06:56:18 10.1 C 51 %
2196 21-08-2019 07:08:17 10.1 C 51 %
2197 21-08-2019 07:20:17 10.2 C 51 %
2198 21-08-2019 07:32:17 10.3 C 51 %
2199 21-08-2019 07:44:17 10.7 C 51 %
2200 21-08-2019 07:56:18 10.7 C 51 %
Sensor: Nr:Datum:Temp:Feuchte:
Aussen-T/F 2201 21-08-2019 08:08:17 10.8 C 51 %
2202 21-08-2019 08:20:18 10.8 C 51 %
2203 21-08-2019 08:32:17 11.1 C 50 %
2204 21-08-2019 08:44:17 11.2 C 50 %
2205 21-08-2019 08:56:17 11.3 C 50 %
2206 21-08-2019 09:08:17 11.8 C 51 %
2207 21-08-2019 09:20:17 11.8 C 50 %
2208 21-08-2019 09:32:17 12.1 C 49 %
2209 21-08-2019 09:44:17 12.4 C 48 %
2210 21-08-2019 09:56:17 12.9 C 47 %
2211 21-08-2019 10:08:17 13.2 C 45 %
2212 21-08-2019 10:20:18 13.5 C 45 %
2213 21-08-2019 10:32:17 14.2 C 41 %
2214 21-08-2019 10:44:17 14.8 C 40 %
2215 21-08-2019 10:56:18 16.6 C 36 %
2216 21-08-2019 11:08:17 20.4 C 28 %
2217 21-08-2019 11:20:18 20.3 C 23 %
2218 21-08-2019 11:32:17 18.3 C 26 %
2219 21-08-2019 11:44:17 18.3 C 25 %
2220 21-08-2019 11:56:17 18.6 C 25 %
2221 21-08-2019 12:08:17 19.1 C 22 %
2222 21-08-2019 12:20:17 18.3 C 27 %
2223 21-08-2019 12:32:17 19.3 C 20 %
2224 21-08-2019 12:44:17 18.8 C 22 %
2225 21-08-2019 12:56:18 18.8 C 22 %
Sensor: Nr:Datum:Temp:Feuchte:
Aussen-T/F 2226 21-08-2019 13:08:17 19.5 C 20 %
2227 21-08-2019 13:20:18 19.9 C 20 %
2228 21-08-2019 13:32:17 20.8 C 20 %
2229 21-08-2019 13:44:17 21.3 C 20 %
2230 21-08-2019 13:56:17 21.6 C 20 %
2231 21-08-2019 14:08:17 21.6 C 20 %
2232 21-08-2019 14:20:17 22 C 20 %
2233 21-08-2019 14:32:18 22.5 C 20 %
2234 21-08-2019 14:44:18 22.6 C 20 %
2235 21-08-2019 14:56:17 23.1 C 20 %
2236 21-08-2019 15:08:18 22.6 C 20 %
2237 21-08-2019 15:20:17 22.7 C 20 %
2238 21-08-2019 15:32:17 23.9 C 20 %
2239 21-08-2019 15:44:17 24.5 C 20 %
2240 21-08-2019 15:56:17 24.7 C 20 %
2241 21-08-2019 16:08:18 24.2 C 20 %
2242 21-08-2019 16:20:17 24.5 C 20 %
2243 21-08-2019 16:32:18 25 C 20 %
2244 21-08-2019 16:44:18 25 C 20 %
2245 21-08-2019 16:56:17 24.8 C 20 %
2246 21-08-2019 17:08:18 24.9 C 20 %
2247 21-08-2019 17:20:17 24.4 C 20 %
2248 21-08-2019 17:32:17 24.7 C 20 %
2249 21-08-2019 17:44:17 24.5 C 20 %
2250 21-08-2019 17:56:17 24.6 C 20 %
Sensor: Nr:Datum:Temp:Feuchte:
Aussen-T/F 2251 21-08-2019 18:08:18 24.5 C 20 %
2252 21-08-2019 18:20:17 24.5 C 20 %
2253 21-08-2019 18:32:17 24.7 C 20 %
2254 21-08-2019 18:44:17 24.7 C 20 %
2255 21-08-2019 18:56:17 24.2 C 20 %
2256 21-08-2019 19:08:17 24.1 C 20 %
2257 21-08-2019 19:20:17 23.3 C 20 %
2258 21-08-2019 19:32:18 22.7 C 20 %
2259 21-08-2019 19:44:18 21.7 C 20 %
2260 21-08-2019 19:56:17 20.8 C 20 %
2261 21-08-2019 20:08:18 20 C 20 %
2262 21-08-2019 20:20:17 19.3 C 20 %
2263 21-08-2019 20:32:18 18.8 C 20 %
2264 21-08-2019 20:44:18 18.3 C 20 %
2265 21-08-2019 20:56:17 17.8 C 20 %
2266 21-08-2019 21:08:17 17.4 C 20 %
2267 21-08-2019 21:20:17 17.1 C 20 %
2268 21-08-2019 21:32:17 16.8 C 20 %
2269 21-08-2019 21:44:17 16.5 C 20 %
2270 21-08-2019 21:56:18 16.1 C 21 %
2271 21-08-2019 22:08:17 16 C 22 %
2272 21-08-2019 22:20:18 15.8 C 22 %
2273 21-08-2019 22:32:17 15.6 C 23 %
2274 21-08-2019 22:44:17 15.5 C 24 %
2275 21-08-2019 22:56:18 15.4 C 25 %
Sensor: Nr:Datum:Temp:Feuchte:
Aussen-T/F 2276 21-08-2019 23:08:17 15.1 C 26 %
2277 21-08-2019 23:20:18 14.5 C 29 %
2278 21-08-2019 23:32:17 14.5 C 29 %
2279 21-08-2019 23:44:17 13.8 C 31 %
2280 21-08-2019 23:56:17 13.5 C 34 %
2281 22-08-2019 00:08:17 13.4 C 34 %
2282 22-08-2019 00:20:17 13.1 C 34 %
2283 22-08-2019 00:32:17 12.8 C 36 %
2284 22-08-2019 00:44:17 12.6 C 37 %
2285 22-08-2019 00:56:18 12.4 C 37 %
2286 22-08-2019 01:08:17 12.1 C 37 %
2287 22-08-2019 01:20:17 12 C 38 %
2288 22-08-2019 01:32:17 11.9 C 39 %
2289 22-08-2019 01:44:17 11.8 C 40 %
2290 22-08-2019 01:56:18 11.6 C 40 %
2291 22-08-2019 02:08:18 11.5 C 41 %
2292 22-08-2019 02:20:17 11.3 C 42 %
2293 22-08-2019 02:32:17 11.2 C 42 %
2294 22-08-2019 02:44:17 11.1 C 43 %
2295 22-08-2019 02:56:18 11.1 C 44 %
2296 22-08-2019 03:08:17 11 C 44 %
2297 22-08-2019 03:20:18 11 C 45 %
2298 22-08-2019 03:32:17 10.7 C 45 %
2299 22-08-2019 03:44:17 10.7 C 46 %
2300 22-08-2019 03:56:17 10.5 C 46 %
Sensor: Nr:Datum:Temp:Feuchte:
Aussen-T/F 2301 22-08-2019 04:08:17 10.3 C 46 %
2302 22-08-2019 04:20:17 10.4 C 47 %
2303 22-08-2019 04:32:17 10.2 C 47 %
2304 22-08-2019 04:44:17 10.1 C 47 %
2305 22-08-2019 04:56:17 10 C 48 %
2306 22-08-2019 05:08:18 9.9 C 48 %
2307 22-08-2019 05:20:17 9.8 C 49 %
2308 22-08-2019 05:32:18 9.6 C 49 %
2309 22-08-2019 05:44:18 9.5 C 49 %
2310 22-08-2019 05:56:17 9.5 C 50 %
2311 22-08-2019 06:08:18 9.5 C 50 %
2312 22-08-2019 06:20:17 9.6 C 50 %
2313 22-08-2019 06:32:18 9.5 C 50 %
2314 22-08-2019 06:44:18 9.6 C 51 %
2315 22-08-2019 06:56:17 9.7 C 51 %
2316 22-08-2019 07:08:17 9.6 C 50 %
2317 22-08-2019 07:20:18 9.7 C 50 %
2318 22-08-2019 07:32:17 9.7 C 51 %
2319 22-08-2019 07:44:17 9.7 C 51 %
2320 22-08-2019 07:56:17 10.1 C 50 %
2321 22-08-2019 08:08:17 10.1 C 50 %
2322 22-08-2019 08:20:17 10.2 C 50 %
2323 22-08-2019 08:32:17 10.5 C 50 %
2324 22-08-2019 08:44:17 10.7 C 50 %
2325 22-08-2019 08:56:17 11 C 50 %
Sensor: Nr:Datum:Temp:Feuchte:
Aussen-T/F 2326 22-08-2019 09:08:17 11.2 C 49 %
2327 22-08-2019 09:20:18 11.5 C 50 %
2328 22-08-2019 09:32:17 11.9 C 49 %
2329 22-08-2019 09:44:17 12.2 C 48 %
2330 22-08-2019 09:56:17 12.2 C 48 %
2331 22-08-2019 10:08:17 13.4 C 43 %
2332 22-08-2019 10:20:18 14 C 38 %
2333 22-08-2019 10:32:17 14.7 C 35 %
2334 22-08-2019 10:44:17 15.1 C 34 %
2335 22-08-2019 10:56:18 16.1 C 32 %
2336 22-08-2019 11:08:17 21.1 C 23 %
2337 22-08-2019 11:20:17 21 C 20 %
2338 22-08-2019 11:32:17 19.3 C 21 %
2339 22-08-2019 11:44:17 18.3 C 25 %
2340 22-08-2019 11:56:17 18.4 C 27 %
2341 22-08-2019 12:08:17 18.9 C 26 %
2342 22-08-2019 12:20:17 19.4 C 22 %
2343 22-08-2019 12:32:17 20.5 C 20 %
2344 22-08-2019 12:44:18 21.1 C 20 %
2345 22-08-2019 12:56:17 21.6 C 20 %
2346 22-08-2019 13:08:17 22 C 20 %
2347 22-08-2019 13:20:17 22.1 C 20 %
2348 22-08-2019 13:32:17 22.3 C 20 %
2349 22-08-2019 13:44:17 22.5 C 20 %
2350 22-08-2019 13:56:17 22.9 C 20 %
Sensor: Nr:Datum:Temp:Feuchte:
Aussen-T/F 2351 22-08-2019 14:08:17 23.1 C 20 %
2352 22-08-2019 14:20:17 23.8 C 20 %
2353 22-08-2019 14:32:18 24.1 C 20 %
2354 22-08-2019 14:44:18 25.2 C 20 %
2355 22-08-2019 14:56:17 25.5 C 20 %
2356 22-08-2019 15:08:18 25.9 C 20 %
2357 22-08-2019 15:20:17 26.9 C 20 %
2358 22-08-2019 15:32:18 26.7 C 20 %
2359 22-08-2019 15:44:18 27 C 20 %
2360 22-08-2019 15:56:17 27.1 C 20 %
2361 22-08-2019 16:08:17 27.1 C 20 %
2362 22-08-2019 16:20:17 27.1 C 20 %
2363 22-08-2019 16:32:18 27.6 C 20 %
2364 22-08-2019 16:44:18 27.6 C 20 %
2365 22-08-2019 16:56:17 27.2 C 20 %
2366 22-08-2019 17:08:18 28 C 20 %
2367 22-08-2019 17:20:17 27.5 C 20 %
2368 22-08-2019 17:32:17 27.5 C 20 %
2369 22-08-2019 17:44:17 27.7 C 20 %
2370 22-08-2019 17:56:17 28.2 C 20 %
2371 22-08-2019 18:08:18 28.3 C 20 %
2372 22-08-2019 18:20:17 27.8 C 20 %
2373 22-08-2019 18:32:18 27.9 C 20 %
2374 22-08-2019 18:44:18 28 C 20 %
2375 22-08-2019 18:56:17 27.3 C 20 %
Sensor: Nr:Datum:Temp:Feuchte:
Aussen-T/F 2376 22-08-2019 19:08:18 26.6 C 20 %
2377 22-08-2019 19:20:17 24.5 C 20 %
2378 22-08-2019 19:32:18 23.4 C 20 %
2379 22-08-2019 19:44:18 22.9 C 20 %
2380 22-08-2019 19:56:17 22.5 C 20 %
2381 22-08-2019 20:08:18 21.2 C 20 %
2382 22-08-2019 20:20:17 20.4 C 20 %
2383 22-08-2019 20:32:17 20.4 C 20 %
2384 22-08-2019 20:44:17 19.2 C 20 %
2385 22-08-2019 20:56:17 18.8 C 20 %
2386 22-08-2019 21:08:17 18.2 C 20 %
2387 22-08-2019 21:20:17 17.9 C 20 %
2388 22-08-2019 21:32:18 17.4 C 20 %
2389 22-08-2019 21:44:18 17.2 C 22 %
2390 22-08-2019 21:56:17 17.3 C 22 %
2391 22-08-2019 22:08:18 16.6 C 24 %
2392 22-08-2019 22:20:17 16 C 26 %
2393 22-08-2019 22:32:18 15.8 C 27 %
2394 22-08-2019 22:44:18 15.5 C 28 %
2395 22-08-2019 22:56:17 15.3 C 27 %
2396 22-08-2019 23:08:18 14.7 C 30 %
2397 22-08-2019 23:20:17 14.5 C 31 %
2398 22-08-2019 23:32:18 14.2 C 31 %
2399 22-08-2019 23:44:18 14.2 C 31 %
2400 22-08-2019 23:56:17 14 C 31 %
Sensor: Nr:Datum:Temp:Feuchte:
Aussen-T/F 2401 23-08-2019 00:08:18 13.8 C 32 %
2402 23-08-2019 00:20:17 13.5 C 34 %
2403 23-08-2019 00:32:18 13.4 C 34 %
2404 23-08-2019 00:44:18 13.2 C 35 %
2405 23-08-2019 00:56:17 13.1 C 35 %
2406 23-08-2019 01:08:18 13.1 C 36 %
2407 23-08-2019 01:20:17 13.1 C 36 %
2408 23-08-2019 01:32:18 12.9 C 37 %
2409 23-08-2019 01:44:18 12.8 C 37 %
2410 23-08-2019 01:56:17 12.7 C 38 %
2411 23-08-2019 02:08:17 12.7 C 39 %
2412 23-08-2019 02:20:17 12.7 C 39 %
2413 23-08-2019 02:32:17 12.2 C 40 %
2414 23-08-2019 02:44:17 12 C 40 %
2415 23-08-2019 02:56:18 11.8 C 42 %
2416 23-08-2019 03:08:17 11.7 C 42 %
2417 23-08-2019 03:20:18 11.7 C 43 %
2418 23-08-2019 03:32:17 11.6 C 43 %
2419 23-08-2019 03:44:17 11.6 C 45 %
2420 23-08-2019 03:56:18 11.5 C 45 %
2421 23-08-2019 04:08:17 11.4 C 45 %
2422 23-08-2019 04:20:17 11.2 C 45 %
2423 23-08-2019 04:32:17 11.3 C 46 %
2424 23-08-2019 04:44:17 11.2 C 46 %
2425 23-08-2019 04:56:17 11.3 C 46 %
Sensor: Nr:Datum:Temp:Feuchte:
Aussen-T/F 2426 23-08-2019 05:08:17 11.2 C 46 %
2427 23-08-2019 05:20:17 10.9 C 47 %
2428 23-08-2019 05:32:17 10.8 C 47 %
2429 23-08-2019 05:44:17 10.7 C 47 %
2430 23-08-2019 05:56:18 10.8 C 47 %
2431 23-08-2019 06:08:17 10.5 C 48 %
2432 23-08-2019 06:20:17 10.4 C 48 %
2433 23-08-2019 06:32:18 10.4 C 49 %
2434 23-08-2019 06:44:18 10.4 C 49 %
2435 23-08-2019 06:56:17 10.4 C 49 %
2436 23-08-2019 07:08:18 10.5 C 49 %
2437 23-08-2019 07:20:17 10.5 C 49 %
2438 23-08-2019 07:32:17 10.7 C 50 %
2439 23-08-2019 07:44:17 11 C 49 %
2440 23-08-2019 07:56:17 11.1 C 49 %
2441 23-08-2019 08:08:18 11.1 C 48 %
2442 23-08-2019 08:20:17 11.2 C 48 %
2443 23-08-2019 08:32:17 11.4 C 48 %
2444 23-08-2019 08:44:17 11.6 C 49 %
2445 23-08-2019 08:56:18 11.8 C 49 %
2446 23-08-2019 09:08:17 12.1 C 48 %
2447 23-08-2019 09:20:18 12.3 C 48 %
2448 23-08-2019 09:32:17 12.6 C 48 %
2449 23-08-2019 09:44:17 13 C 46 %
2450 23-08-2019 09:56:17 13.4 C 46 %
Sensor: Nr:Datum:Temp:Feuchte:
Aussen-T/F 2451 23-08-2019 10:08:17 14 C 43 %
2452 23-08-2019 10:20:17 14.7 C 41 %
2453 23-08-2019 10:32:17 15.4 C 37 %
2454 23-08-2019 10:44:17 16.1 C 34 %
2455 23-08-2019 10:56:18 17.8 C 31 %
2456 23-08-2019 11:08:17 18.1 C 29 %
2457 23-08-2019 11:20:17 21.6 C 20 %
2458 23-08-2019 11:32:17 19.1 C 25 %
2459 23-08-2019 11:44:17 19.2 C 27 %
2460 23-08-2019 11:56:17 19.2 C 28 %
2461 23-08-2019 12:08:17 20.1 C 25 %
2462 23-08-2019 12:20:17 20.6 C 25 %
2463 23-08-2019 12:32:18 21.3 C 20 %
2464 23-08-2019 12:44:18 21.8 C 20 %
2465 23-08-2019 12:56:17 22.8 C 20 %
2466 23-08-2019 13:08:18 23.3 C 20 %
2467 23-08-2019 13:20:17 23.4 C 20 %
2468 23-08-2019 13:32:17 23.7 C 20 %
2469 23-08-2019 13:44:17 23.6 C 20 %
2470 23-08-2019 13:56:17 24.4 C 20 %
2471 23-08-2019 14:08:18 25.1 C 20 %
2472 23-08-2019 14:20:17 26.2 C 20 %
2473 23-08-2019 14:32:17 26.5 C 20 %
2474 23-08-2019 14:44:17 26.8 C 20 %
2475 23-08-2019 14:56:18 27.6 C 20 %
Sensor: Nr:Datum:Temp:Feuchte:
Aussen-T/F 2476 23-08-2019 15:08:17 27.9 C 20 %
2477 23-08-2019 15:20:17 28.3 C 20 %
2478 23-08-2019 15:32:17 28.5 C 20 %
2479 23-08-2019 15:44:17 28.8 C 20 %
2480 23-08-2019 15:56:18 28.7 C 20 %
2481 23-08-2019 16:08:17 29 C 20 %
2482 23-08-2019 16:20:17 29.3 C 20 %
2483 23-08-2019 16:32:17 29.2 C 20 %
2484 23-08-2019 16:44:17 29.5 C 20 %
2485 23-08-2019 16:56:17 29.4 C 20 %
2486 23-08-2019 17:08:17 29.1 C 20 %
2487 23-08-2019 17:20:17 29.1 C 20 %
2488 23-08-2019 17:32:17 29.4 C 20 %
2489 23-08-2019 17:44:17 29.3 C 20 %
2490 23-08-2019 17:56:17 29.1 C 20 %
2491 23-08-2019 18:08:17 29 C 20 %
2492 23-08-2019 18:20:17 29.1 C 20 %
2493 23-08-2019 18:32:17 28.9 C 20 %
2494 23-08-2019 18:44:18 28.8 C 20 %
2495 23-08-2019 18:56:17 28.6 C 20 %
2496 23-08-2019 19:08:17 28.2 C 20 %
2497 23-08-2019 19:20:17 26.6 C 20 %
2498 23-08-2019 19:32:17 25.8 C 20 %
2499 23-08-2019 19:44:17 24.7 C 20 %
2500 23-08-2019 19:56:17 23.7 C 20 %
Sensor: Nr:Datum:Temp:Feuchte:
Aussen-T/F 2501 23-08-2019 20:08:17 22.9 C 20 %
2502 23-08-2019 20:20:17 22.4 C 20 %
2503 23-08-2019 20:32:17 22 C 20 %
2504 23-08-2019 20:44:17 21.6 C 20 %
2505 23-08-2019 20:56:17 20.1 C 20 %
2506 23-08-2019 21:08:17 19.7 C 20 %
2507 23-08-2019 21:20:17 19.4 C 20 %
2508 23-08-2019 21:32:17 19.4 C 20 %
2509 23-08-2019 21:44:17 19.2 C 20 %
2510 23-08-2019 21:56:17 18.7 C 20 %
2511 23-08-2019 22:08:17 17.9 C 21 %
2512 23-08-2019 22:20:17 17.5 C 22 %
2513 23-08-2019 22:32:18 17.1 C 24 %
2514 23-08-2019 22:44:18 16.8 C 25 %
2515 23-08-2019 22:56:17 16.5 C 25 %
2516 23-08-2019 23:08:17 16 C 26 %
2517 23-08-2019 23:20:17 15.9 C 27 %
2518 23-08-2019 23:32:17 15.6 C 28 %
2519 23-08-2019 23:44:17 15.4 C 28 %
2520 23-08-2019 23:56:17 15.2 C 29 %
2521 24-08-2019 00:08:17 14.9 C 30 %
2522 24-08-2019 00:20:18 14.5 C 30 %
2523 24-08-2019 00:32:17 14.4 C 31 %
2524 24-08-2019 00:44:17 14.2 C 32 %
2525 24-08-2019 00:56:17 14 C 34 %
Sensor: Nr:Datum:Temp:Feuchte:
Aussen-T/F 2526 24-08-2019 01:08:17 13.8 C 35 %
2527 24-08-2019 01:20:17 13.7 C 36 %
2528 24-08-2019 01:32:18 13.7 C 36 %
2529 24-08-2019 01:44:18 13.5 C 36 %
2530 24-08-2019 01:56:17 13.5 C 37 %
2531 24-08-2019 02:08:18 13.5 C 37 %
2532 24-08-2019 02:20:17 13.1 C 38 %
2533 24-08-2019 02:32:17 13 C 39 %
2534 24-08-2019 02:44:17 12.6 C 40 %
2535 24-08-2019 02:56:17 12.8 C 41 %
2536 24-08-2019 03:08:17 12.5 C 40 %
2537 24-08-2019 03:20:17 12.4 C 41 %
2538 24-08-2019 03:32:17 12.3 C 42 %
2539 24-08-2019 03:44:17 12.3 C 42 %
2540 24-08-2019 03:56:17 12.2 C 43 %
2541 24-08-2019 04:08:17 12 C 43 %
2542 24-08-2019 04:20:17 11.8 C 44 %
2543 24-08-2019 04:32:17 11.7 C 45 %
2544 24-08-2019 04:44:17 11.7 C 45 %
2545 24-08-2019 04:56:17 11.6 C 46 %
2546 24-08-2019 05:08:18 11.5 C 46 %
2547 24-08-2019 05:20:17 11.5 C 46 %
2548 24-08-2019 05:32:18 11.4 C 47 %
2549 24-08-2019 05:44:18 11.4 C 47 %
2550 24-08-2019 05:56:17 11.5 C 48 %
Sensor: Nr:Datum:Temp:Feuchte:
Aussen-T/F 2551 24-08-2019 06:08:17 11.5 C 47 %
2552 24-08-2019 06:20:17 11.1 C 47 %
2553 24-08-2019 06:32:17 11.2 C 47 %
2554 24-08-2019 06:44:17 11.2 C 48 %
2555 24-08-2019 06:56:17 11.4 C 49 %
2556 24-08-2019 07:08:17 11.6 C 49 %
2557 24-08-2019 07:20:18 11.5 C 47 %
2558 24-08-2019 07:32:17 11.5 C 47 %
2559 24-08-2019 07:44:17 11.7 C 48 %
2560 24-08-2019 07:56:17 11.8 C 48 %
2561 24-08-2019 08:08:17 11.9 C 48 %
2562 24-08-2019 08:20:18 12.1 C 47 %
2563 24-08-2019 08:32:17 12.3 C 46 %
2564 24-08-2019 08:44:17 12.2 C 46 %
2565 24-08-2019 08:56:18 12.7 C 46 %
2566 24-08-2019 09:08:17 12.7 C 46 %
2567 24-08-2019 09:20:17 13.1 C 46 %
2568 24-08-2019 09:32:17 13.1 C 46 %
2569 24-08-2019 09:44:17 14 C 44 %
2570 24-08-2019 09:56:18 14.5 C 43 %
2571 24-08-2019 10:08:17 14.9 C 41 %
2572 24-08-2019 10:20:18 15.9 C 36 %
2573 24-08-2019 10:32:17 16.4 C 34 %
2574 24-08-2019 10:44:17 17.3 C 31 %
2575 24-08-2019 10:56:18 18.2 C 30 %
Sensor: Nr:Datum:Temp:Feuchte:
Aussen-T/F 2576 24-08-2019 11:08:17 18.6 C 28 %
2577 24-08-2019 11:20:17 21.2 C 21 %
2578 24-08-2019 11:32:17 20.1 C 23 %
2579 24-08-2019 11:44:17 20 C 25 %
2580 24-08-2019 11:56:17 20.4 C 25 %
2581 24-08-2019 12:08:18 20.7 C 24 %
2582 24-08-2019 12:20:17 21.5 C 22 %
2583 24-08-2019 12:32:17 22 C 21 %
2584 24-08-2019 12:44:17 22.8 C 20 %
2585 24-08-2019 12:56:18 24 C 20 %
2586 24-08-2019 13:08:17 24.6 C 20 %
2587 24-08-2019 13:20:17 24.9 C 20 %
2588 24-08-2019 13:32:17 25.3 C 20 %
2589 24-08-2019 13:44:17 25.6 C 20 %
2590 24-08-2019 13:56:17 26.2 C 20 %
2591 24-08-2019 14:08:17 26.6 C 20 %
2592 24-08-2019 14:20:17 26.8 C 20 %
2593 24-08-2019 14:32:17 27.3 C 20 %
2594 24-08-2019 14:44:17 28.1 C 20 %
2595 24-08-2019 14:56:17 28.8 C 20 %
2596 24-08-2019 15:08:17 28.8 C 20 %
2597 24-08-2019 15:20:17 29.1 C 20 %
2598 24-08-2019 15:32:17 29.3 C 20 %
2599 24-08-2019 15:44:17 29.6 C 20 %
2600 24-08-2019 15:56:17 29.6 C 20 %
Sensor: Nr:Datum:Temp:Feuchte:
Aussen-T/F 2601 24-08-2019 16:08:17 30 C 20 %
2602 24-08-2019 16:20:17 30.5 C 20 %
2603 24-08-2019 16:32:17 30.1 C 20 %
2604 24-08-2019 16:44:17 30 C 20 %
2605 24-08-2019 16:56:17 29.9 C 20 %
2606 24-08-2019 17:08:17 30.1 C 20 %
2607 24-08-2019 17:20:18 30.1 C 20 %
2608 24-08-2019 17:32:17 30.1 C 20 %
2609 24-08-2019 17:44:17 30.6 C 20 %
2610 24-08-2019 17:56:18 31 C 20 %
2611 24-08-2019 18:08:17 30.5 C 20 %
2612 24-08-2019 18:20:17 30.6 C 20 %
2613 24-08-2019 18:32:17 30.2 C 20 %
2614 24-08-2019 18:44:17 30.2 C 20 %
2615 24-08-2019 18:56:18 30.1 C 20 %
2616 24-08-2019 19:08:17 30 C 20 %
2617 24-08-2019 19:20:18 28.1 C 20 %
2618 24-08-2019 19:32:17 26.5 C 20 %
2619 24-08-2019 19:44:17 25.6 C 20 %
2620 24-08-2019 19:56:17 24.8 C 20 %
2621 24-08-2019 20:08:17 24.1 C 20 %
2622 24-08-2019 20:20:17 23.4 C 20 %
2623 24-08-2019 20:32:17 23.2 C 20 %
2624 24-08-2019 20:44:17 22.8 C 20 %
2625 24-08-2019 20:56:18 22.2 C 20 %
Sensor: Nr:Datum:Temp:Feuchte:
Aussen-T/F 2626 24-08-2019 21:08:17 22 C 20 %
2627 24-08-2019 21:20:18 21.3 C 20 %
2628 24-08-2019 21:32:17 21 C 20 %
2629 24-08-2019 21:44:17 20.7 C 21 %
2630 24-08-2019 21:56:17 20.1 C 23 %
2631 24-08-2019 22:08:18 19.8 C 25 %
2632 24-08-2019 22:20:17 19.6 C 25 %
2633 24-08-2019 22:32:17 19 C 26 %
2634 24-08-2019 22:44:17 18.6 C 27 %
2635 24-08-2019 22:56:17 18.4 C 27 %
2636 24-08-2019 23:08:17 18 C 28 %
2637 24-08-2019 23:20:18 17.7 C 30 %
2638 24-08-2019 23:32:17 17.6 C 30 %
2639 24-08-2019 23:44:17 17.2 C 31 %
2640 24-08-2019 23:56:17 17.2 C 32 %
2641 25-08-2019 00:08:17 17.1 C 31 %
2642 25-08-2019 00:20:17 17.1 C 31 %
2643 25-08-2019 00:32:17 17 C 32 %
2644 25-08-2019 00:44:17 17 C 32 %
2645 25-08-2019 00:56:18 16.8 C 33 %
2646 25-08-2019 01:08:17 16.6 C 34 %
2647 25-08-2019 01:20:18 16.4 C 35 %
2648 25-08-2019 01:32:17 16.6 C 35 %
2649 25-08-2019 01:44:17 16.5 C 35 %
2650 25-08-2019 01:56:17 16.7 C 34 %
Sensor: Nr:Datum:Temp:Feuchte:
Aussen-T/F 2651 25-08-2019 02:08:17 16.2 C 35 %
2652 25-08-2019 02:20:17 15.8 C 37 %
2653 25-08-2019 02:32:17 15.5 C 37 %
2654 25-08-2019 02:44:18 15.4 C 39 %
2655 25-08-2019 02:56:17 15.3 C 39 %
2656 25-08-2019 03:08:17 15.2 C 40 %
2657 25-08-2019 03:20:17 15.1 C 40 %
2658 25-08-2019 03:32:17 15.3 C 40 %
2659 25-08-2019 03:44:17 15.7 C 39 %
2660 25-08-2019 03:56:18 15.4 C 38 %
2661 25-08-2019 04:08:17 15.1 C 40 %
2662 25-08-2019 04:20:18 15 C 40 %
2663 25-08-2019 04:32:17 14.9 C 41 %
2664 25-08-2019 04:44:17 14.9 C 41 %
2665 25-08-2019 04:56:17 14.6 C 41 %
2666 25-08-2019 05:08:17 14.7 C 42 %
2667 25-08-2019 05:20:17 14.5 C 42 %
2668 25-08-2019 05:32:17 14.6 C 42 %
2669 25-08-2019 05:44:17 14.4 C 42 %
2670 25-08-2019 05:56:17 14.3 C 43 %
2671 25-08-2019 06:08:17 14.5 C 43 %
2672 25-08-2019 06:20:18 14.2 C 42 %
2673 25-08-2019 06:32:17 14.2 C 44 %
2674 25-08-2019 06:44:17 14.3 C 43 %
2675 25-08-2019 06:56:17 14.4 C 43 %
Sensor: Nr:Datum:Temp:Feuchte:
Aussen-T/F 2676 25-08-2019 07:08:17 14.8 C 43 %
2677 25-08-2019 07:20:17 14.8 C 42 %
2678 25-08-2019 07:32:18 15 C 42 %
2679 25-08-2019 07:44:18 15.2 C 42 %
2680 25-08-2019 07:56:17 15.7 C 39 %
2681 25-08-2019 08:08:17 15.9 C 38 %
2682 25-08-2019 08:20:17 16.2 C 38 %
2683 25-08-2019 08:32:17 16.4 C 37 %
2684 25-08-2019 08:44:17 16.7 C 37 %
2685 25-08-2019 08:56:18 16.9 C 37 %
2686 25-08-2019 09:08:17 17.1 C 36 %
2687 25-08-2019 09:20:18 17.5 C 36 %
2688 25-08-2019 09:32:17 17.8 C 35 %
2689 25-08-2019 09:44:17 18 C 33 %
2690 25-08-2019 09:56:17 18.3 C 31 %
2691 25-08-2019 10:08:17 18.6 C 31 %
2692 25-08-2019 10:20:17 19 C 31 %
2693 25-08-2019 10:32:17 19.3 C 30 %
2694 25-08-2019 10:44:17 19.9 C 30 %
2695 25-08-2019 10:56:17 20.6 C 29 %
2696 25-08-2019 11:08:17 22.2 C 26 %
2697 25-08-2019 11:20:18 22.8 C 22 %
2698 25-08-2019 11:32:17 22.9 C 22 %
2699 25-08-2019 11:44:18 22.9 C 23 %
2700 25-08-2019 11:56:17 23.6 C 21 %
Sensor: Nr:Datum:Temp:Feuchte:
Aussen-T/F 2701 25-08-2019 12:08:18 24.2 C 20 %
2702 25-08-2019 12:20:17 24.7 C 20 %
2703 25-08-2019 12:32:18 25.2 C 20 %
2704 25-08-2019 12:44:18 25.6 C 20 %
2705 25-08-2019 12:56:17 25.7 C 20 %
2706 25-08-2019 13:08:17 25.9 C 20 %
2707 25-08-2019 13:20:17 26.8 C 20 %
2708 25-08-2019 13:32:17 27 C 20 %
2709 25-08-2019 13:44:17 27.2 C 20 %
2710 25-08-2019 13:56:17 27.5 C 20 %
2711 25-08-2019 14:08:18 28 C 20 %
2712 25-08-2019 14:20:17 28.1 C 20 %
2713 25-08-2019 14:32:17 27.9 C 20 %
2714 25-08-2019 14:44:17 29.5 C 20 %
2715 25-08-2019 14:56:17 30 C 20 %
2716 25-08-2019 15:08:18 30.6 C 20 %
2717 25-08-2019 15:20:17 30.7 C 20 %
2718 25-08-2019 15:32:18 31.2 C 20 %
2719 25-08-2019 15:44:18 31.6 C 20 %
2720 25-08-2019 15:56:17 32.1 C 20 %
2721 25-08-2019 16:08:17 32.5 C 20 %
2722 25-08-2019 16:20:18 31.4 C 20 %
2723 25-08-2019 16:32:17 31.1 C 20 %
2724 25-08-2019 16:44:17 31.1 C 20 %
2725 25-08-2019 16:56:18 31.3 C 20 %
Sensor: Nr:Datum:Temp:Feuchte:
Aussen-T/F 2726 25-08-2019 17:08:17 31.9 C 20 %
2727 25-08-2019 17:20:17 32.3 C 20 %
2728 25-08-2019 17:32:18 32.3 C 20 %
2729 25-08-2019 17:44:18 32.6 C 20 %
2730 25-08-2019 17:56:17 31.5 C 20 %
2731 25-08-2019 18:08:18 30.2 C 20 %
2732 25-08-2019 18:20:18 29.4 C 20 %
2733 25-08-2019 18:32:17 29.5 C 20 %
2734 25-08-2019 18:44:17 28.9 C 20 %
2735 25-08-2019 18:56:18 28.2 C 20 %
2736 25-08-2019 19:08:17 27.6 C 20 %
2737 25-08-2019 19:20:18 27 C 20 %
2738 25-08-2019 19:32:17 25.8 C 20 %
2739 25-08-2019 19:44:17 25 C 20 %
2740 25-08-2019 19:56:18 24.8 C 20 %
2741 25-08-2019 20:08:17 24.1 C 20 %
2742 25-08-2019 20:20:18 24 C 21 %
2743 25-08-2019 20:32:17 23.8 C 23 %
2744 25-08-2019 20:44:17 23.4 C 25 %
2745 25-08-2019 20:56:17 23.3 C 25 %
2746 25-08-2019 21:08:17 23.1 C 25 %
2747 25-08-2019 21:20:17 22.9 C 26 %
2748 25-08-2019 21:32:18 22.5 C 27 %
2749 25-08-2019 21:44:18 22 C 29 %
2750 25-08-2019 21:56:17 21.6 C 31 %
Sensor: Nr:Datum:Temp:Feuchte:
Aussen-T/F 2751 25-08-2019 22:08:18 21.2 C 32 %
2752 25-08-2019 22:20:17 21.1 C 32 %
2753 25-08-2019 22:32:18 20.7 C 35 %
2754 25-08-2019 22:44:18 20.4 C 35 %
2755 25-08-2019 22:56:17 20.1 C 36 %
2756 25-08-2019 23:08:18 19.9 C 37 %
2757 25-08-2019 23:20:17 19.7 C 37 %
2758 25-08-2019 23:32:18 19.5 C 38 %
2759 25-08-2019 23:44:18 19.5 C 38 %
2760 25-08-2019 23:56:17 19.4 C 39 %
2761 26-08-2019 00:08:18 19.3 C 40 %
2762 26-08-2019 00:20:17 19.2 C 40 %
2763 26-08-2019 00:32:17 19.1 C 40 %
2764 26-08-2019 00:44:17 19.1 C 41 %
2765 26-08-2019 00:56:18 19.1 C 40 %
2766 26-08-2019 01:08:17 18.8 C 41 %
2767 26-08-2019 01:20:18 18.7 C 41 %
2768 26-08-2019 01:32:17 18.7 C 42 %
2769 26-08-2019 01:44:17 18.5 C 41 %
2770 26-08-2019 01:56:17 18.4 C 42 %
2771 26-08-2019 02:08:17 18.1 C 43 %
2772 26-08-2019 02:20:17 18 C 44 %
2773 26-08-2019 02:32:17 18.1 C 43 %
2774 26-08-2019 02:44:17 18.2 C 45 %
2775 26-08-2019 02:56:17 18.2 C 43 %
Sensor: Nr:Datum:Temp:Feuchte:
Aussen-T/F 2776 26-08-2019 03:08:17 18 C 42 %
2777 26-08-2019 03:20:17 17.7 C 44 %
2778 26-08-2019 03:32:17 17.6 C 45 %
2779 26-08-2019 03:44:18 17.4 C 45 %
2780 26-08-2019 03:56:17 17.3 C 45 %
2781 26-08-2019 04:08:17 17.2 C 46 %
2782 26-08-2019 04:20:17 17.2 C 46 %
2783 26-08-2019 04:32:17 17.1 C 46 %
2784 26-08-2019 04:44:17 17 C 46 %
2785 26-08-2019 04:56:18 16.9 C 47 %
2786 26-08-2019 05:08:17 16.8 C 47 %
2787 26-08-2019 05:20:17 17.2 C 48 %
2788 26-08-2019 05:32:17 17 C 46 %
2789 26-08-2019 05:44:17 16.8 C 46 %
2790 26-08-2019 05:56:18 16.6 C 46 %
2791 26-08-2019 06:08:17 16.7 C 47 %
2792 26-08-2019 06:20:18 16.4 C 46 %
2793 26-08-2019 06:32:17 16.5 C 48 %
2794 26-08-2019 06:44:17 16.4 C 47 %
2795 26-08-2019 06:56:17 16.5 C 48 %
2796 26-08-2019 07:08:17 16.4 C 47 %
2797 26-08-2019 07:20:17 16.6 C 47 %
2798 26-08-2019 07:32:17 16.7 C 47 %
2799 26-08-2019 07:44:17 16.8 C 48 %
2800 26-08-2019 07:56:17 16.8 C 48 %
Sensor: Nr:Datum:Temp:Feuchte:
Aussen-T/F 2801 26-08-2019 08:08:17 17.5 C 47 %
2802 26-08-2019 08:20:17 17.7 C 46 %
2803 26-08-2019 08:32:17 17.9 C 46 %
2804 26-08-2019 08:44:17 18.1 C 45 %
2805 26-08-2019 08:56:17 18.3 C 44 %
2806 26-08-2019 09:08:17 18.5 C 44 %
2807 26-08-2019 09:20:17 18.8 C 44 %
2808 26-08-2019 09:32:17 19.1 C 43 %
2809 26-08-2019 09:44:17 19.5 C 42 %
2810 26-08-2019 09:56:18 19.8 C 40 %
2811 26-08-2019 10:08:17 20 C 39 %
2812 26-08-2019 10:20:17 20.6 C 37 %
2813 26-08-2019 10:32:17 21 C 35 %
2814 26-08-2019 10:44:17 21.6 C 35 %
2815 26-08-2019 10:56:18 22.6 C 30 %
2816 26-08-2019 11:08:17 25.1 C 24 %
2817 26-08-2019 11:20:18 23.7 C 26 %
2818 26-08-2019 11:32:17 23.7 C 27 %
2819 26-08-2019 11:44:17 24.1 C 26 %
2820 26-08-2019 11:56:17 24.7 C 25 %
2821 26-08-2019 12:08:17 25 C 24 %
2822 26-08-2019 12:20:17 25.5 C 22 %
2823 26-08-2019 12:32:17 25.9 C 22 %
2824 26-08-2019 12:44:17 26.5 C 21 %
2825 26-08-2019 12:56:17 27.1 C 20 %
Sensor: Nr:Datum:Temp:Feuchte:
Aussen-T/F 2826 26-08-2019 13:08:18 27.5 C 20 %
2827 26-08-2019 13:20:17 28.2 C 20 %
2828 26-08-2019 13:32:17 28.7 C 20 %
2829 26-08-2019 13:44:17 28.7 C 20 %
2830 26-08-2019 13:56:17 29.2 C 20 %
2831 26-08-2019 14:08:18 29.2 C 20 %
2832 26-08-2019 14:20:17 29.6 C 20 %
2833 26-08-2019 14:32:17 29.8 C 20 %
2834 26-08-2019 14:44:17 30.9 C 20 %
2835 26-08-2019 14:56:17 31.2 C 20 %
2836 26-08-2019 15:08:17 32.2 C 20 %
2837 26-08-2019 15:20:18 31.8 C 20 %
2838 26-08-2019 15:32:17 30.5 C 20 %
2839 26-08-2019 15:44:17 29.3 C 20 %
2840 26-08-2019 15:56:18 29 C 20 %
2841 26-08-2019 16:08:17 28.8 C 20 %
2842 26-08-2019 16:20:17 28.4 C 20 %
2843 26-08-2019 16:32:17 28.2 C 20 %
2844 26-08-2019 16:44:17 28 C 20 %
2845 26-08-2019 16:56:17 27.9 C 20 %
2846 26-08-2019 17:08:17 27.5 C 20 %
2847 26-08-2019 17:20:17 26.9 C 20 %
2848 26-08-2019 17:32:17 26.5 C 20 %
2849 26-08-2019 17:44:17 26.1 C 20 %
2850 26-08-2019 17:56:17 26 C 20 %
Sensor: Nr:Datum:Temp:Feuchte:
Aussen-T/F 2851 26-08-2019 18:08:17 25.8 C 21 %
2852 26-08-2019 18:20:17 26.6 C 20 %
2853 26-08-2019 18:32:17 27.4 C 20 %
2854 26-08-2019 18:44:17 28.1 C 20 %
2855 26-08-2019 18:56:17 28.4 C 20 %
2856 26-08-2019 19:08:17 27.6 C 20 %
2857 26-08-2019 19:20:17 26.9 C 20 %
2858 26-08-2019 19:32:17 26.3 C 20 %
2859 26-08-2019 19:44:17 25.8 C 21 %
2860 26-08-2019 19:56:18 25.3 C 22 %
2861 26-08-2019 20:08:17 24.8 C 23 %
2862 26-08-2019 20:20:17 23.6 C 25 %
2863 26-08-2019 20:32:17 23.5 C 26 %
2864 26-08-2019 20:44:18 23.1 C 26 %
2865 26-08-2019 20:56:17 22.6 C 29 %
2866 26-08-2019 21:08:17 22.5 C 30 %
2867 26-08-2019 21:20:17 21.9 C 31 %
2868 26-08-2019 21:32:17 21.5 C 32 %
2869 26-08-2019 21:44:17 21.5 C 32 %
2870 26-08-2019 21:56:17 21.2 C 34 %
2871 26-08-2019 22:08:17 20.9 C 36 %
2872 26-08-2019 22:20:17 20.7 C 36 %
2873 26-08-2019 22:32:17 20.6 C 36 %
2874 26-08-2019 22:44:17 20.1 C 38 %
2875 26-08-2019 22:56:18 20.1 C 39 %
Sensor: Nr:Datum:Temp:Feuchte:
Aussen-T/F 2876 26-08-2019 23:08:17 19.8 C 40 %
2877 26-08-2019 23:20:18 19.8 C 40 %
2878 26-08-2019 23:32:17 19.5 C 41 %
2879 26-08-2019 23:44:17 19.5 C 41 %
2880 26-08-2019 23:56:17 19.5 C 41 %
2881 27-08-2019 00:08:17 19.2 C 42 %
2882 27-08-2019 00:20:17 18.9 C 43 %
2883 27-08-2019 00:32:18 18.8 C 43 %
2884 27-08-2019 00:44:18 18.7 C 44 %
2885 27-08-2019 00:56:17 18.7 C 45 %
2886 27-08-2019 01:08:18 18.9 C 45 %
2887 27-08-2019 01:20:17 18.9 C 45 %
2888 27-08-2019 01:32:18 18.7 C 44 %
2889 27-08-2019 01:44:18 18.3 C 45 %
2890 27-08-2019 01:56:17 18.2 C 45 %
2891 27-08-2019 02:08:17 18.1 C 46 %
2892 27-08-2019 02:20:17 18.1 C 46 %
2893 27-08-2019 02:32:18 18 C 46 %
2894 27-08-2019 02:44:18 17.8 C 46 %
2895 27-08-2019 02:56:17 17.7 C 46 %
2896 27-08-2019 03:08:18 17.5 C 46 %
2897 27-08-2019 03:20:17 17.5 C 47 %
2898 27-08-2019 03:32:18 17.5 C 47 %
2899 27-08-2019 03:44:18 17.6 C 48 %
2900 27-08-2019 03:56:17 17.9 C 48 %
Sensor: Nr:Datum:Temp:Feuchte:
Aussen-T/F 2901 27-08-2019 04:08:18 17.6 C 47 %
2902 27-08-2019 04:20:17 17.4 C 46 %
2903 27-08-2019 04:32:18 17.1 C 46 %
2904 27-08-2019 04:44:18 16.9 C 47 %
2905 27-08-2019 04:56:17 16.8 C 47 %
2906 27-08-2019 05:08:18 16.8 C 48 %
2907 27-08-2019 05:20:17 16.7 C 47 %
2908 27-08-2019 05:32:18 17 C 48 %
2909 27-08-2019 05:44:18 16.8 C 48 %
2910 27-08-2019 05:56:17 16.8 C 48 %
2911 27-08-2019 06:08:18 16.6 C 48 %
2912 27-08-2019 06:20:17 16.5 C 48 %
2913 27-08-2019 06:32:18 16.4 C 48 %
2914 27-08-2019 06:44:18 16.3 C 48 %
2915 27-08-2019 06:56:17 16.3 C 48 %
2916 27-08-2019 07:08:17 16.7 C 49 %
2917 27-08-2019 07:20:17 16.8 C 49 %
2918 27-08-2019 07:32:17 16.6 C 48 %
2919 27-08-2019 07:44:17 16.7 C 48 %
2920 27-08-2019 07:56:17 16.7 C 48 %
2921 27-08-2019 08:08:18 17 C 48 %
2922 27-08-2019 08:20:17 17.2 C 48 %
2923 27-08-2019 08:32:18 17.5 C 48 %
2924 27-08-2019 08:44:18 17.7 C 48 %
2925 27-08-2019 08:56:17 18 C 47 %
Sensor: Nr:Datum:Temp:Feuchte:
Aussen-T/F 2926 27-08-2019 09:08:17 18.3 C 47 %
2927 27-08-2019 09:20:17 18.5 C 47 %
2928 27-08-2019 09:32:18 18.5 C 47 %
2929 27-08-2019 09:44:18 19.2 C 46 %
2930 27-08-2019 09:56:17 19.5 C 44 %
2931 27-08-2019 10:08:18 19.7 C 43 %
2932 27-08-2019 10:20:17 20.2 C 39 %
2933 27-08-2019 10:32:17 20.9 C 37 %
2934 27-08-2019 10:44:17 21.5 C 35 %
2935 27-08-2019 10:56:17 22.4 C 32 %
2936 27-08-2019 11:08:18 23.9 C 27 %
2937 27-08-2019 11:20:17 23.6 C 28 %
2938 27-08-2019 11:32:17 23.6 C 28 %
2939 27-08-2019 11:44:17 23.7 C 28 %
2940 27-08-2019 11:56:17 24.1 C 28 %
2941 27-08-2019 12:08:18 24.8 C 27 %
2942 27-08-2019 12:20:17 25.3 C 26 %
2943 27-08-2019 12:32:18 25.6 C 25 %
2944 27-08-2019 12:44:18 26.3 C 21 %
2945 27-08-2019 12:56:17 26.8 C 22 %
2946 27-08-2019 13:08:17 28.2 C 20 %
2947 27-08-2019 13:20:18 28.8 C 20 %
2948 27-08-2019 13:32:17 28.8 C 20 %
2949 27-08-2019 13:44:17 28.9 C 20 %
2950 27-08-2019 13:56:18 28.9 C 20 %
Sensor: Nr:Datum:Temp:Feuchte:
Aussen-T/F 2951 27-08-2019 14:08:17 29.5 C 20 %
2952 27-08-2019 14:21:17 30.3 C 20 %
2953 27-08-2019 14:32:18 30.9 C 20 %
2954 27-08-2019 14:44:18 31.4 C 20 %
2955 27-08-2019 14:56:17 32.1 C 20 %
2956 27-08-2019 15:09:17 32.2 C 20 %
2957 27-08-2019 15:20:17 32.5 C 20 %
2958 27-08-2019 15:33:17 32.5 C 20 %
2959 27-08-2019 15:44:17 33.2 C 20 %
2960 27-08-2019 15:56:17 33.4 C 20 %
2961 27-08-2019 16:09:17 33.4 C 20 %
2962 27-08-2019 16:20:17 33.4 C 20 %
2963 27-08-2019 16:33:17 33.5 C 20 %
2964 27-08-2019 16:45:17 33.6 C 20 %
2965 27-08-2019 16:56:17 33.9 C 20 %
2966 27-08-2019 17:08:18 33.9 C 20 %
2967 27-08-2019 17:20:17 32.7 C 20 %
2968 27-08-2019 17:33:17 31.2 C 20 %
2969 27-08-2019 17:44:17 28.6 C 20 %
2970 27-08-2019 17:56:17 28.6 C 20 %
2971 27-08-2019 18:08:18 27.2 C 20 %
2972 27-08-2019 18:20:17 28.3 C 20 %
2973 27-08-2019 18:32:17 31.2 C 20 %
2974 27-08-2019 18:44:18 31.2 C 20 %
2975 27-08-2019 18:57:17 29.5 C 20 %
Sensor: Nr:Datum:Temp:Feuchte:
Aussen-T/F 2976 27-08-2019 19:08:17 28.7 C 20 %
2977 27-08-2019 19:21:17 28.3 C 20 %
2978 27-08-2019 19:32:17 25.2 C 24 %
2979 27-08-2019 19:44:17 24 C 28 %
2980 27-08-2019 19:57:17 24.1 C 30 %
2981 27-08-2019 20:09:17 23.6 C 31 %
2982 27-08-2019 20:20:18 23.1 C 31 %
2983 27-08-2019 20:33:17 22.7 C 33 %
2984 27-08-2019 20:44:17 22.4 C 32 %
2985 27-08-2019 20:56:17 22 C 34 %
2986 27-08-2019 21:09:17 21.9 C 35 %
2987 27-08-2019 21:20:17 22.4 C 34 %
2988 27-08-2019 21:33:17 22.2 C 32 %
2989 27-08-2019 21:45:17 21.7 C 35 %
2990 27-08-2019 21:56:17 21.2 C 35 %
2991 27-08-2019 22:09:17 20.9 C 37 %
2992 27-08-2019 22:20:18 21.1 C 38 %
2993 27-08-2019 22:33:17 20.7 C 38 %
2994 27-08-2019 22:44:18 20.6 C 39 %
2995 27-08-2019 22:56:18 20.5 C 39 %
2996 27-08-2019 23:09:17 20.5 C 39 %
2997 27-08-2019 23:21:17 20.6 C 40 %
2998 27-08-2019 23:33:17 20.5 C 38 %
2999 27-08-2019 23:45:17 19.8 C 40 %
3000 27-08-2019 23:57:17 19.6 C 41 %
Sensor: Nr:Datum:Temp:Feuchte:
Aussen-T/F 3001 28-08-2019 00:09:17 20 C 41 %
3002 28-08-2019 00:21:17 19.6 C 41 %
3003 28-08-2019 00:33:17 19.7 C 43 %
3004 28-08-2019 00:45:17 19.5 C 42 %
3005 28-08-2019 00:57:17 19.5 C 42 %
3006 28-08-2019 01:09:17 19.3 C 43 %
3007 28-08-2019 01:21:17 19.5 C 44 %
3008 28-08-2019 01:33:17 19.6 C 44 %
3009 28-08-2019 01:45:17 19.5 C 43 %
3010 28-08-2019 01:57:17 19.4 C 43 %
3011 28-08-2019 02:09:18 19.3 C 44 %
3012 28-08-2019 02:21:17 19.1 C 45 %
3013 28-08-2019 02:33:18 19.1 C 45 %
3014 28-08-2019 02:45:17 18.9 C 45 %
3015 28-08-2019 02:57:17 18.7 C 45 %
3016 28-08-2019 03:09:17 18.7 C 45 %
3017 28-08-2019 03:21:18 18.5 C 46 %
3018 28-08-2019 03:33:17 18.5 C 45 %
3019 28-08-2019 03:45:17 18.8 C 47 %
3020 28-08-2019 03:57:17 18.5 C 45 %
3021 28-08-2019 04:09:17 18.2 C 45 %
3022 28-08-2019 04:21:18 18.1 C 45 %
3023 28-08-2019 04:33:17 17.8 C 46 %
3024 28-08-2019 04:45:17 17.8 C 47 %
3025 28-08-2019 04:57:17 17.9 C 47 %
Sensor: Nr:Datum:Temp:Feuchte:
Aussen-T/F 3026 28-08-2019 05:09:17 17.8 C 47 %
3027 28-08-2019 05:21:18 17.8 C 47 %
3028 28-08-2019 05:33:17 17.7 C 47 %
3029 28-08-2019 05:45:18 17.8 C 47 %
3030 28-08-2019 05:57:18 17.8 C 47 %
3031 28-08-2019 06:09:17 17.8 C 47 %
3032 28-08-2019 06:21:17 18.2 C 47 %
3033 28-08-2019 06:33:17 17.9 C 47 %
3034 28-08-2019 06:45:18 17.7 C 47 %
3035 28-08-2019 06:57:18 17.7 C 47 %
3036 28-08-2019 07:09:17 17.7 C 47 %
3037 28-08-2019 07:21:18 17.9 C 47 %
3038 28-08-2019 07:33:17 17.9 C 47 %
3039 28-08-2019 07:45:17 17.8 C 47 %
3040 28-08-2019 07:57:17 17.9 C 47 %
3041 28-08-2019 08:09:17 18.9 C 47 %
3042 28-08-2019 08:21:18 19.1 C 44 %
3043 28-08-2019 08:33:17 19.3 C 42 %
3044 28-08-2019 08:45:17 19.5 C 40 %
3045 28-08-2019 08:57:17 19.6 C 41 %
3046 28-08-2019 09:09:17 19.6 C 41 %
3047 28-08-2019 09:21:17 20.2 C 37 %
3048 28-08-2019 09:33:17 20.9 C 38 %
3049 28-08-2019 09:45:18 21.5 C 30 %
3050 28-08-2019 09:57:18 22.1 C 28 %
Sensor: Nr:Datum:Temp:Feuchte:
Aussen-T/F 3051 28-08-2019 10:09:17 22.9 C 25 %
3052 28-08-2019 10:21:18 23.2 C 22 %
3053 28-08-2019 10:33:17 23.2 C 22 %
3054 28-08-2019 10:45:17 23.2 C 22 %
3055 28-08-2019 10:57:18 23.8 C 21 %
3056 28-08-2019 11:09:17 24.2 C 20 %
3057 28-08-2019 11:21:17 24.3 C 21 %
3058 28-08-2019 11:33:17 24.3 C 21 %
3059 28-08-2019 11:45:18 24.3 C 20 %
3060 28-08-2019 11:57:18 24.1 C 21 %
3061 28-08-2019 12:09:17 23.9 C 25 %
3062 28-08-2019 12:21:18 24.2 C 20 %
3063 28-08-2019 12:33:17 25.2 C 20 %
3064 28-08-2019 12:45:17 25.7 C 20 %
3065 28-08-2019 12:57:17 25.9 C 20 %
3066 28-08-2019 13:09:17 26 C 20 %
3067 28-08-2019 13:21:18 26.3 C 20 %
3068 28-08-2019 13:33:17 27.2 C 20 %
3069 28-08-2019 13:45:17 27.7 C 20 %
3070 28-08-2019 13:57:17 28.1 C 20 %
3071 28-08-2019 14:09:17 28.8 C 20 %
3072 28-08-2019 14:21:18 29 C 20 %
3073 28-08-2019 14:33:17 29.6 C 20 %
3074 28-08-2019 14:45:18 30.4 C 20 %
3075 28-08-2019 14:57:18 30.7 C 20 %
Sensor: Nr:Datum:Temp:Feuchte:
Aussen-T/F 3076 28-08-2019 15:09:17 30.7 C 20 %
3077 28-08-2019 15:21:18 30.5 C 20 %
3078 28-08-2019 15:33:17 31.3 C 20 %
3079 28-08-2019 15:45:18 31.6 C 20 %
3080 28-08-2019 15:57:18 31.6 C 20 %
3081 28-08-2019 16:09:17 32.1 C 20 %
3082 28-08-2019 16:21:17 32.6 C 20 %
3083 28-08-2019 16:33:17 32.4 C 20 %
3084 28-08-2019 16:45:18 32.4 C 20 %
3085 28-08-2019 16:57:18 32 C 20 %
3086 28-08-2019 17:09:17 31.8 C 20 %
3087 28-08-2019 17:21:17 32.3 C 20 %
3088 28-08-2019 17:33:17 32.5 C 20 %
3089 28-08-2019 17:45:17 32.7 C 20 %
3090 28-08-2019 17:57:17 32.7 C 20 %
3091 28-08-2019 18:09:17 32.1 C 20 %
3092 28-08-2019 18:21:17 31.5 C 20 %
3093 28-08-2019 18:33:17 30.8 C 20 %
3094 28-08-2019 18:45:18 30 C 20 %
3095 28-08-2019 18:57:18 29.1 C 20 %
3096 28-08-2019 19:09:17 28.3 C 20 %
3097 28-08-2019 19:21:17 27.2 C 20 %
3098 28-08-2019 19:33:17 26.9 C 20 %
3099 28-08-2019 19:45:17 26.3 C 20 %
3100 28-08-2019 19:57:17 25.8 C 20 %
Sensor: Nr:Datum:Temp:Feuchte:
Aussen-T/F 3101 28-08-2019 20:09:18 25.7 C 20 %
3102 28-08-2019 20:21:17 25.2 C 20 %
3103 28-08-2019 20:33:18 24.9 C 20 %
3104 28-08-2019 20:45:17 24.6 C 20 %
3105 28-08-2019 20:57:17 24.3 C 20 %
3106 28-08-2019 21:09:18 24 C 20 %
3107 28-08-2019 21:21:17 24 C 20 %
3108 28-08-2019 21:33:17 24 C 20 %
3109 28-08-2019 21:45:18 23.3 C 20 %
3110 28-08-2019 21:57:18 22.7 C 20 %
3111 28-08-2019 22:09:17 22.2 C 20 %
3112 28-08-2019 22:21:17 22.2 C 20 %
3113 28-08-2019 22:33:17 22 C 22 %
3114 28-08-2019 22:45:18 21.8 C 23 %
3115 28-08-2019 22:57:18 21.6 C 24 %
3116 28-08-2019 23:09:17 21.5 C 24 %
3117 28-08-2019 23:21:17 21.2 C 25 %
3118 28-08-2019 23:33:17 21.1 C 25 %
3119 28-08-2019 23:45:17 21 C 25 %
3120 28-08-2019 23:57:17 20.8 C 26 %
3121 29-08-2019 00:09:17 20.7 C 27 %
3122 29-08-2019 00:21:17 20.5 C 27 %
3123 29-08-2019 00:33:17 20.6 C 28 %
3124 29-08-2019 00:45:17 20.5 C 28 %
3125 29-08-2019 00:57:17 20.4 C 28 %
Sensor: Nr:Datum:Temp:Feuchte:
Aussen-T/F 3126 29-08-2019 01:09:17 20.3 C 28 %
3127 29-08-2019 01:21:17 20 C 29 %
3128 29-08-2019 01:33:17 19.6 C 30 %
3129 29-08-2019 01:45:17 19.4 C 31 %
3130 29-08-2019 01:57:17 19.5 C 31 %
3131 29-08-2019 02:09:17 19.2 C 31 %
3132 29-08-2019 02:21:17 19 C 31 %
3133 29-08-2019 02:33:17 19 C 33 %
3134 29-08-2019 02:45:17 18.9 C 33 %
3135 29-08-2019 02:57:17 18.4 C 34 %
3136 29-08-2019 03:09:18 18.2 C 35 %
3137 29-08-2019 03:21:17 18 C 35 %
3138 29-08-2019 03:33:17 17.8 C 36 %
3139 29-08-2019 03:45:17 17.7 C 37 %
3140 29-08-2019 03:57:17 17.7 C 38 %
3141 29-08-2019 04:09:18 17.5 C 38 %
3142 29-08-2019 04:21:17 17.4 C 39 %
3143 29-08-2019 04:33:17 17.2 C 40 %
3144 29-08-2019 04:45:17 17.2 C 40 %
3145 29-08-2019 04:57:17 17.4 C 40 %
3146 29-08-2019 05:09:17 17.9 C 41 %
3147 29-08-2019 05:21:17 18 C 40 %
3148 29-08-2019 05:33:18 18.1 C 40 %
3149 29-08-2019 05:45:17 18.4 C 40 %
3150 29-08-2019 05:57:17 18.4 C 40 %
Sensor: Nr:Datum:Temp:Feuchte:
Aussen-T/F 3151 29-08-2019 06:09:17 18.8 C 39 %
3152 29-08-2019 06:21:17 18.9 C 39 %
3153 29-08-2019 06:33:17 18.4 C 38 %
3154 29-08-2019 06:45:17 18.7 C 41 %
3155 29-08-2019 06:57:17 18.9 C 38 %
3156 29-08-2019 07:09:17 19.2 C 38 %
3157 29-08-2019 07:21:17 19.3 C 38 %
3158 29-08-2019 07:33:17 19 C 38 %
3159 29-08-2019 07:45:18 19.2 C 40 %
3160 29-08-2019 07:57:18 19.7 C 37 %
3161 29-08-2019 08:09:17 20 C 35 %
3162 29-08-2019 08:21:17 20.1 C 35 %
3163 29-08-2019 08:33:17 20.3 C 34 %
3164 29-08-2019 08:45:18 20.4 C 34 %
3165 29-08-2019 08:57:18 20.8 C 33 %
3166 29-08-2019 09:09:17 20.8 C 31 %
3167 29-08-2019 09:21:17 21.1 C 30 %
3168 29-08-2019 09:33:17 21.2 C 31 %
3169 29-08-2019 09:45:17 21.5 C 30 %
3170 29-08-2019 09:57:17 21.7 C 29 %
3171 29-08-2019 10:09:17 21.1 C 30 %
3172 29-08-2019 10:21:17 20.1 C 40 %
3173 29-08-2019 10:33:17 20.5 C 40 %
3174 29-08-2019 10:45:17 21.3 C 35 %
3175 29-08-2019 10:57:17 21.9 C 31 %
Sensor: Nr:Datum:Temp:Feuchte:
Aussen-T/F 3176 29-08-2019 11:09:17 22.3 C 28 %
3177 29-08-2019 11:21:17 22.5 C 27 %
3178 29-08-2019 11:33:17 23 C 26 %
3179 29-08-2019 11:45:18 23.3 C 25 %
3180 29-08-2019 11:57:18 23.3 C 25 %
3181 29-08-2019 12:09:17 23.4 C 25 %
3182 29-08-2019 12:21:17 23.6 C 25 %
3183 29-08-2019 12:33:17 23.8 C 23 %
3184 29-08-2019 12:45:17 24.3 C 22 %
3185 29-08-2019 12:57:17 24.5 C 22 %
3186 29-08-2019 13:09:17 25.2 C 20 %
3187 29-08-2019 13:21:17 25.5 C 20 %
3188 29-08-2019 13:33:17 25.9 C 20 %
3189 29-08-2019 13:45:17 26.3 C 20 %
3190 29-08-2019 13:57:18 26.8 C 20 %
3191 29-08-2019 14:09:17 27.4 C 20 %
3192 29-08-2019 14:21:17 26.9 C 20 %
3193 29-08-2019 14:33:17 27.2 C 20 %
3194 29-08-2019 14:45:17 27.8 C 20 %
3195 29-08-2019 14:57:17 28.1 C 20 %
3196 29-08-2019 15:09:17 28.1 C 20 %
3197 29-08-2019 15:21:17 28.8 C 20 %
3198 29-08-2019 15:33:17 27.8 C 20 %
3199 29-08-2019 15:45:18 28.6 C 20 %
3200 29-08-2019 15:57:18 29.1 C 20 %
Sensor: Nr:Datum:Temp:Feuchte:
Aussen-T/F 3201 29-08-2019 16:09:17 28.8 C 20 %
3202 29-08-2019 16:21:17 28.7 C 20 %
3203 29-08-2019 16:33:17 28.6 C 20 %
3204 29-08-2019 16:45:18 28.1 C 20 %
3205 29-08-2019 16:57:18 28.1 C 20 %
3206 29-08-2019 17:09:17 28 C 20 %
3207 29-08-2019 17:21:17 27.2 C 20 %
3208 29-08-2019 17:33:17 27.3 C 20 %
3209 29-08-2019 17:45:17 28.1 C 20 %
3210 29-08-2019 17:57:17 27.5 C 20 %
3211 29-08-2019 18:09:17 27.2 C 20 %
3212 29-08-2019 18:21:17 26.9 C 20 %
3213 29-08-2019 18:33:17 26.4 C 20 %
3214 29-08-2019 18:45:17 26.1 C 20 %
3215 29-08-2019 18:57:17 25.8 C 20 %
3216 29-08-2019 19:09:17 25.3 C 20 %
3217 29-08-2019 19:21:17 25.1 C 20 %
3218 29-08-2019 19:33:17 25 C 20 %
3219 29-08-2019 19:45:18 24.3 C 20 %
3220 29-08-2019 19:57:18 24 C 20 %
3221 29-08-2019 20:09:17 23.8 C 20 %
3222 29-08-2019 20:21:17 22.9 C 20 %
3223 29-08-2019 20:33:17 21.7 C 23 %
3224 29-08-2019 20:45:17 21.2 C 25 %
3225 29-08-2019 20:57:17 21 C 26 %
Sensor: Nr:Datum:Temp:Feuchte:
Aussen-T/F 3226 29-08-2019 21:09:17 20.9 C 27 %
3227 29-08-2019 21:21:17 20.6 C 28 %
3228 29-08-2019 21:33:17 20.6 C 28 %
3229 29-08-2019 21:45:18 20.6 C 27 %
3230 29-08-2019 21:57:18 20.7 C 27 %
3231 29-08-2019 22:09:17 20.7 C 29 %
3232 29-08-2019 22:21:17 20.5 C 29 %
3233 29-08-2019 22:33:17 20.4 C 29 %
3234 29-08-2019 22:45:17 20.2 C 30 %
3235 29-08-2019 22:57:17 20.5 C 29 %
3236 29-08-2019 23:09:17 20.6 C 30 %
3237 29-08-2019 23:21:17 20.5 C 30 %
3238 29-08-2019 23:33:17 20.4 C 30 %
3239 29-08-2019 23:45:17 20.3 C 29 %
3240 29-08-2019 23:57:17 20.5 C 27 %
3241 30-08-2019 00:09:17 20.6 C 27 %
3242 30-08-2019 00:21:17 20.5 C 27 %
3243 30-08-2019 00:33:17 20.1 C 28 %
3244 30-08-2019 00:45:17 20 C 30 %
3245 30-08-2019 00:57:17 19.7 C 31 %
3246 30-08-2019 01:09:17 19.2 C 32 %
3247 30-08-2019 01:21:18 19 C 34 %
3248 30-08-2019 01:33:17 18.9 C 35 %
3249 30-08-2019 01:45:17 18.9 C 35 %
3250 30-08-2019 01:57:17 18.2 C 36 %
Sensor: Nr:Datum:Temp:Feuchte:
Aussen-T/F 3251 30-08-2019 02:09:18 17.9 C 38 %
3252 30-08-2019 02:21:17 17.9 C 38 %
3253 30-08-2019 02:33:17 17.9 C 38 %
3254 30-08-2019 02:45:17 17.6 C 40 %
3255 30-08-2019 02:57:17 17.4 C 40 %
3256 30-08-2019 03:09:18 17.3 C 40 %
3257 30-08-2019 03:21:17 17.3 C 40 %
3258 30-08-2019 03:33:18 17 C 41 %
3259 30-08-2019 03:45:17 17.1 C 42 %
3260 30-08-2019 03:57:17 17.1 C 42 %
3261 30-08-2019 04:09:18 16.8 C 42 %
3262 30-08-2019 04:21:17 16.6 C 42 %
3263 30-08-2019 04:33:17 16.3 C 43 %
3264 30-08-2019 04:45:17 16 C 43 %
3265 30-08-2019 04:57:17 15.9 C 45 %
3266 30-08-2019 05:09:18 15.6 C 45 %
3267 30-08-2019 05:21:17 15.6 C 45 %
3268 30-08-2019 05:33:17 15.6 C 46 %
3269 30-08-2019 05:45:17 16.5 C 46 %
3270 30-08-2019 05:57:17 16.8 C 45 %
3271 30-08-2019 06:09:17 16.5 C 44 %
3272 30-08-2019 06:21:18 15.9 C 44 %
3273 30-08-2019 06:33:17 15.8 C 43 %
3274 30-08-2019 06:45:17 15.4 C 45 %
3275 30-08-2019 06:57:17 15.4 C 45 %
Sensor: Nr:Datum:Temp:Feuchte:
Aussen-T/F 3276 30-08-2019 07:09:17 15.3 C 46 %
3277 30-08-2019 07:21:18 15.3 C 46 %
3278 30-08-2019 07:33:17 15.4 C 46 %
3279 30-08-2019 07:45:17 15.4 C 46 %
3280 30-08-2019 07:57:17 16 C 45 %
3281 30-08-2019 08:09:17 16 C 45 %
3282 30-08-2019 08:21:18 16 C 45 %
3283 30-08-2019 08:33:17 16.7 C 45 %
3284 30-08-2019 08:45:17 17.4 C 44 %
3285 30-08-2019 08:57:17 17.6 C 44 %
3286 30-08-2019 09:09:17 18.3 C 34 %
3287 30-08-2019 09:21:17 18.7 C 33 %
3288 30-08-2019 09:33:17 19.3 C 31 %
3289 30-08-2019 09:45:17 19.3 C 31 %
3290 30-08-2019 09:57:17 19.5 C 28 %
3291 30-08-2019 10:09:18 19.6 C 28 %
3292 30-08-2019 10:21:17 19.7 C 28 %
3293 30-08-2019 10:33:18 20 C 27 %
3294 30-08-2019 10:45:17 20.4 C 27 %
3295 30-08-2019 10:57:17 20.4 C 27 %
3296 30-08-2019 11:09:18 21.3 C 25 %
3297 30-08-2019 11:21:17 21.4 C 24 %
3298 30-08-2019 11:33:18 21.7 C 23 %
3299 30-08-2019 11:45:17 21.7 C 23 %
3300 30-08-2019 11:57:17 22 C 22 %
Sensor: Nr:Datum:Temp:Feuchte:
Aussen-T/F 3301 30-08-2019 12:09:18 22.2 C 21 %
3302 30-08-2019 12:21:17 22.4 C 21 %
3303 30-08-2019 12:33:17 22.7 C 21 %
3304 30-08-2019 12:45:18 22.9 C 21 %
3305 30-08-2019 12:57:18 23 C 20 %
3306 30-08-2019 13:09:17 23 C 20 %
3307 30-08-2019 13:21:17 23.6 C 20 %
3308 30-08-2019 13:33:17 24.1 C 20 %
3309 30-08-2019 13:45:17 24.5 C 20 %
3310 30-08-2019 13:57:18 24.6 C 20 %
3311 30-08-2019 14:09:17 25.1 C 20 %
3312 30-08-2019 14:21:17 25.5 C 20 %
3313 30-08-2019 14:33:17 25.7 C 20 %
3314 30-08-2019 14:45:18 26 C 20 %
3315 30-08-2019 14:57:18 26.5 C 20 %
3316 30-08-2019 15:09:17 26.8 C 20 %
3317 30-08-2019 15:21:17 27.3 C 20 %
3318 30-08-2019 15:33:17 27.8 C 20 %
3319 30-08-2019 15:45:18 28.1 C 20 %
3320 30-08-2019 15:57:18 28.3 C 20 %
3321 30-08-2019 16:09:17 28.2 C 20 %
3322 30-08-2019 16:21:17 28.5 C 20 %
3323 30-08-2019 16:33:17 28.8 C 20 %
3324 30-08-2019 16:45:18 29 C 20 %
3325 30-08-2019 16:57:18 29.7 C 20 %
Sensor: Nr:Datum:Temp:Feuchte:
Aussen-T/F 3326 30-08-2019 17:09:17 29.9 C 20 %
3327 30-08-2019 17:21:17 29.6 C 20 %
3328 30-08-2019 17:33:17 30 C 20 %
3329 30-08-2019 17:45:18 29.8 C 20 %
3330 30-08-2019 17:57:18 30.4 C 20 %
3331 30-08-2019 18:09:17 30.8 C 20 %
3332 30-08-2019 18:21:17 29.4 C 20 %
3333 30-08-2019 18:33:17 29.4 C 20 %
3334 30-08-2019 18:45:17 29 C 20 %
3335 30-08-2019 18:57:18 28.7 C 20 %
3336 30-08-2019 19:09:17 28.3 C 20 %
3337 30-08-2019 19:21:17 27.3 C 20 %
3338 30-08-2019 19:33:17 25.6 C 20 %
3339 30-08-2019 19:45:18 24.9 C 20 %
3340 30-08-2019 19:57:18 23.7 C 20 %
3341 30-08-2019 20:09:17 22.8 C 20 %
3342 30-08-2019 20:21:18 22.2 C 20 %
3343 30-08-2019 20:33:17 21.8 C 20 %
3344 30-08-2019 20:45:18 21.4 C 20 %
3345 30-08-2019 20:57:18 21 C 20 %
3346 30-08-2019 21:09:17 20.6 C 20 %
3347 30-08-2019 21:21:17 20.1 C 20 %
3348 30-08-2019 21:33:17 19.5 C 20 %
3349 30-08-2019 21:45:18 19.1 C 20 %
3350 30-08-2019 21:57:18 18.9 C 22 %
Sensor: Nr:Datum:Temp:Feuchte:
Aussen-T/F 3351 30-08-2019 22:09:17 18.5 C 23 %
3352 30-08-2019 22:21:17 18.3 C 25 %
3353 30-08-2019 22:33:17 18 C 25 %
3354 30-08-2019 22:45:17 17.8 C 25 %
3355 30-08-2019 22:57:18 17.7 C 26 %
3356 30-08-2019 23:09:17 17.3 C 27 %
3357 30-08-2019 23:21:17 17 C 27 %
3358 30-08-2019 23:33:17 17.2 C 28 %
3359 30-08-2019 23:45:17 16.8 C 29 %
3360 30-08-2019 23:57:17 16.6 C 30 %
3361 31-08-2019 00:09:17 16.7 C 30 %
3362 31-08-2019 00:21:17 16.4 C 30 %
3363 31-08-2019 00:33:17 16.2 C 32 %
3364 31-08-2019 00:45:17 16.1 C 33 %
3365 31-08-2019 00:57:17 16 C 34 %
3366 31-08-2019 01:09:17 15.7 C 35 %
3367 31-08-2019 01:21:18 15.6 C 35 %
3368 31-08-2019 01:33:17 15.6 C 35 %
3369 31-08-2019 01:45:17 15.5 C 36 %
3370 31-08-2019 01:57:17 15.3 C 36 %
3371 31-08-2019 02:09:17 15.2 C 37 %
3372 31-08-2019 02:21:17 15.1 C 37 %
3373 31-08-2019 02:33:17 15 C 37 %
3374 31-08-2019 02:45:17 14.9 C 39 %
3375 31-08-2019 02:57:17 14.8 C 40 %
Sensor: Nr:Datum:Temp:Feuchte:
Aussen-T/F 3376 31-08-2019 03:09:17 14.7 C 40 %
3377 31-08-2019 03:21:17 14.7 C 41 %
3378 31-08-2019 03:33:18 14.5 C 41 %
3379 31-08-2019 03:45:17 14.5 C 41 %
3380 31-08-2019 03:57:17 14.4 C 41 %
3381 31-08-2019 04:09:18 14.4 C 41 %
3382 31-08-2019 04:21:17 14.3 C 42 %
3383 31-08-2019 04:33:18 14.3 C 42 %
3384 31-08-2019 04:45:17 14.2 C 42 %
3385 31-08-2019 04:57:17 14.2 C 43 %
3386 31-08-2019 05:09:18 14.1 C 42 %
3387 31-08-2019 05:21:17 14.3 C 43 %
3388 31-08-2019 05:33:17 14.5 C 44 %
3389 31-08-2019 05:45:17 14.6 C 43 %
3390 31-08-2019 05:57:17 14.7 C 44 %
3391 31-08-2019 06:09:18 14.6 C 43 %
3392 31-08-2019 06:21:17 14.4 C 43 %
3393 31-08-2019 06:33:17 14.1 C 43 %
3394 31-08-2019 06:45:18 14.1 C 43 %
3395 31-08-2019 06:57:18 14.1 C 45 %
3396 31-08-2019 07:09:17 14.2 C 44 %
3397 31-08-2019 07:21:17 14.3 C 44 %
3398 31-08-2019 07:33:17 14.4 C 44 %
3399 31-08-2019 07:45:17 14.7 C 44 %
3400 31-08-2019 07:57:17 14.8 C 43 %
Sensor: Nr:Datum:Temp:Feuchte:
Aussen-T/F 3401 31-08-2019 08:09:17 14.9 C 43 %
3402 31-08-2019 08:21:18 15 C 42 %
3403 31-08-2019 08:33:17 15.3 C 42 %
3404 31-08-2019 08:45:17 15.4 C 42 %
3405 31-08-2019 08:57:17 15.6 C 42 %
3406 31-08-2019 09:09:17 15.9 C 42 %
3407 31-08-2019 09:21:17 16.3 C 41 %
3408 31-08-2019 09:33:18 16.6 C 40 %
3409 31-08-2019 09:45:17 16.9 C 39 %
3410 31-08-2019 09:57:17 17.1 C 38 %
3411 31-08-2019 10:09:18 17.6 C 36 %
3412 31-08-2019 10:21:17 18.2 C 34 %
3413 31-08-2019 10:33:18 18.7 C 31 %
3414 31-08-2019 10:45:17 19.3 C 30 %
3415 31-08-2019 10:57:17 20 C 29 %
3416 31-08-2019 11:09:18 20.9 C 27 %
3417 31-08-2019 11:21:17 21 C 26 %
3418 31-08-2019 11:33:18 21.2 C 26 %
3419 31-08-2019 11:45:17 21.9 C 25 %
3420 31-08-2019 11:57:17 22.6 C 25 %
3421 31-08-2019 12:09:18 22.7 C 25 %
3422 31-08-2019 12:21:17 22.7 C 25 %
3423 31-08-2019 12:33:17 24.3 C 21 %
3424 31-08-2019 12:45:17 24.8 C 21 %
3425 31-08-2019 12:57:17 25.1 C 20 %
Sensor: Nr:Datum:Temp:Feuchte:
Aussen-T/F 3426 31-08-2019 13:09:18 26.9 C 20 %
3427 31-08-2019 13:21:17 27.9 C 20 %
3428 31-08-2019 13:33:17 28.5 C 20 %
3429 31-08-2019 13:45:17 28.9 C 20 %
3430 31-08-2019 13:57:17 29.3 C 20 %
3431 31-08-2019 14:09:17 29.6 C 20 %
3432 31-08-2019 14:21:17 30 C 20 %
3433 31-08-2019 14:33:18 30.9 C 20 %
3434 31-08-2019 14:45:17 31.1 C 20 %
3435 31-08-2019 14:57:17 31 C 20 %
3436 31-08-2019 15:09:18 31.4 C 20 %
3437 31-08-2019 15:21:17 31.5 C 20 %
3438 31-08-2019 15:33:18 32.2 C 20 %
3439 31-08-2019 15:45:17 32.6 C 20 %
3440 31-08-2019 15:57:17 33.1 C 20 %
3441 31-08-2019 16:09:18 32.2 C 20 %
3442 31-08-2019 16:21:17 32.2 C 20 %
3443 31-08-2019 16:33:17 33 C 20 %
3444 31-08-2019 16:45:17 32.8 C 20 %
3445 31-08-2019 16:57:17 33.3 C 20 %
3446 31-08-2019 17:09:17 33.9 C 20 %
3447 31-08-2019 17:21:17 34.5 C 20 %
3448 31-08-2019 17:33:17 34 C 20 %
3449 31-08-2019 17:45:17 34.2 C 20 %
3450 31-08-2019 17:57:17 34.4 C 20 %
Sensor: Nr:Datum:Temp:Feuchte:
Aussen-T/F 3451 31-08-2019 18:09:17 34.4 C 20 %
3452 31-08-2019 18:21:18 33.8 C 20 %
3453 31-08-2019 18:33:17 33.4 C 20 %
3454 31-08-2019 18:45:18 33.2 C 20 %
3455 31-08-2019 18:57:18 32.7 C 20 %
3456 31-08-2019 19:09:17 31.7 C 20 %
3457 31-08-2019 19:21:17 30.1 C 20 %
3458 31-08-2019 19:33:17 28.8 C 20 %
3459 31-08-2019 19:45:17 27.9 C 20 %
3460 31-08-2019 19:57:17 27.5 C 20 %
3461 31-08-2019 20:09:17 26.3 C 20 %
3462 31-08-2019 20:21:17 25 C 20 %
3463 31-08-2019 20:33:17 24.5 C 20 %
3464 31-08-2019 20:45:17 24.4 C 20 %
3465 31-08-2019 20:57:17 23.9 C 20 %
3466 31-08-2019 21:09:17 24 C 20 %
3467 31-08-2019 21:21:17 24.3 C 20 %
3468 31-08-2019 21:33:18 24.4 C 20 %
3469 31-08-2019 21:45:17 24.4 C 20 %
3470 31-08-2019 21:57:17 27.1 C 20 %
3471 31-08-2019 22:09:17 26 C 20 %
3472 31-08-2019 22:21:17 23.5 C 23 %
3473 31-08-2019 22:33:18 21.7 C 32 %
3474 31-08-2019 22:45:17 20.9 C 40 %
3475 31-08-2019 22:57:17 20.6 C 47 %
Sensor: Nr:Datum:Temp:Feuchte:
Aussen-T/F 3476 31-08-2019 23:09:18 20 C 45 %
3477 31-08-2019 23:21:17 19.7 C 45 %
3478 31-08-2019 23:33:18 19.7 C 45 %
3479 31-08-2019 23:45:17 19.8 C 45 %
3480 31-08-2019 23:57:17 19.7 C 45 %
3481 01-09-2019 00:09:18 19.7 C 45 %
3482 01-09-2019 00:21:17 19.7 C 45 %
3483 01-09-2019 00:33:18 19.4 C 44 %
3484 01-09-2019 00:45:17 19.3 C 45 %
3485 01-09-2019 00:57:17 19.3 C 46 %
3486 01-09-2019 01:09:17 19.6 C 44 %
3487 01-09-2019 01:21:17 19.5 C 41 %
3488 01-09-2019 01:33:17 19.5 C 40 %
3489 01-09-2019 01:45:17 19.7 C 37 %
3490 01-09-2019 01:57:17 19.5 C 36 %
3491 01-09-2019 02:09:17 19.3 C 36 %
3492 01-09-2019 02:21:17 19.2 C 35 %
3493 01-09-2019 02:33:18 18.7 C 36 %
3494 01-09-2019 02:45:17 18.2 C 37 %
3495 01-09-2019 02:57:17 18 C 38 %
3496 01-09-2019 03:09:18 17.9 C 39 %
3497 01-09-2019 03:21:17 17.7 C 40 %
3498 01-09-2019 03:33:17 17.8 C 36 %
3499 01-09-2019 03:45:17 18 C 31 %
3500 01-09-2019 03:57:17 17.5 C 32 %
Sensor: Nr:Datum:Temp:Feuchte:
Aussen-T/F 3501 01-09-2019 04:09:18 17.4 C 32 %
3502 01-09-2019 04:21:17 17.9 C 31 %
3503 01-09-2019 04:33:17 17.2 C 32 %
3504 01-09-2019 04:45:18 16.9 C 34 %
3505 01-09-2019 04:57:18 17 C 33 %
3506 01-09-2019 05:09:17 17.6 C 30 %
3507 01-09-2019 05:21:18 18.1 C 27 %
3508 01-09-2019 05:33:17 18.2 C 26 %
3509 01-09-2019 05:45:18 18.2 C 27 %
3510 01-09-2019 05:57:18 17.8 C 28 %
3511 01-09-2019 06:09:17 17.8 C 27 %
3512 01-09-2019 06:21:17 17.8 C 27 %
3513 01-09-2019 06:33:18 16.5 C 32 %
3514 01-09-2019 06:45:17 16.1 C 34 %
3515 01-09-2019 06:57:17 15.9 C 36 %
3516 01-09-2019 07:09:17 15.8 C 36 %
3517 01-09-2019 07:21:17 15.7 C 38 %
3518 01-09-2019 07:33:17 15.9 C 39 %
3519 01-09-2019 07:45:17 16.5 C 37 %
3520 01-09-2019 07:57:17 17.7 C 30 %
3521 01-09-2019 08:09:17 17.9 C 30 %
3522 01-09-2019 08:21:17 18 C 29 %
3523 01-09-2019 08:33:17 18.3 C 28 %
3524 01-09-2019 08:45:17 18.2 C 27 %
3525 01-09-2019 08:57:17 18.2 C 29 %
Sensor: Nr:Datum:Temp:Feuchte:
Aussen-T/F 3526 01-09-2019 09:09:17 18.3 C 27 %
3527 01-09-2019 09:21:17 18.7 C 27 %
3528 01-09-2019 09:33:17 18.9 C 27 %
3529 01-09-2019 09:45:17 18.9 C 26 %
3530 01-09-2019 09:57:18 19.3 C 24 %
3531 01-09-2019 10:09:17 19.4 C 24 %
3532 01-09-2019 10:21:17 19.5 C 24 %
3533 01-09-2019 10:33:18 19.6 C 23 %
3534 01-09-2019 10:45:17 20.2 C 22 %
3535 01-09-2019 10:57:17 20.4 C 21 %
3536 01-09-2019 11:09:17 20.4 C 21 %
3537 01-09-2019 11:21:17 20.5 C 21 %
3538 01-09-2019 11:33:17 20.8 C 21 %
3539 01-09-2019 11:45:17 20.7 C 21 %
3540 01-09-2019 11:57:17 20.6 C 22 %
3541 01-09-2019 12:09:18 19.9 C 23 %
3542 01-09-2019 12:21:17 19.9 C 24 %
3543 01-09-2019 12:33:17 20.4 C 22 %
3544 01-09-2019 12:45:17 20.9 C 22 %
3545 01-09-2019 12:57:17 21.7 C 20 %
3546 01-09-2019 13:09:17 20.4 C 24 %
3547 01-09-2019 13:21:17 19.5 C 28 %
3548 01-09-2019 13:33:17 19.7 C 26 %
3549 01-09-2019 13:45:18 19.8 C 25 %
3550 01-09-2019 13:57:18 19.8 C 25 %
Sensor: Nr:Datum:Temp:Feuchte:
Aussen-T/F 3551 01-09-2019 14:09:17 20.6 C 22 %
3552 01-09-2019 14:21:17 20.7 C 22 %
3553 01-09-2019 14:33:17 21.1 C 21 %
3554 01-09-2019 14:45:18 21.2 C 20 %
3555 01-09-2019 14:57:18 21.2 C 20 %
3556 01-09-2019 15:09:17 21.1 C 20 %
3557 01-09-2019 15:21:17 21.1 C 20 %
3558 01-09-2019 15:33:17 21.1 C 20 %
3559 01-09-2019 15:45:17 21 C 20 %
3560 01-09-2019 15:57:17 21.2 C 20 %
3561 01-09-2019 16:09:17 21 C 20 %
3562 01-09-2019 16:21:17 21 C 20 %
3563 01-09-2019 16:33:17 20.8 C 20 %
3564 01-09-2019 16:45:17 20.7 C 20 %
3565 01-09-2019 16:57:17 20.5 C 20 %
3566 01-09-2019 17:09:17 20.4 C 20 %
3567 01-09-2019 17:21:17 20.4 C 20 %
3568 01-09-2019 17:33:17 20.4 C 20 %
3569 01-09-2019 17:45:17 20.4 C 20 %
3570 01-09-2019 17:57:17 20.4 C 20 %
3571 01-09-2019 18:09:17 20.5 C 20 %
3572 01-09-2019 18:21:18 21.3 C 20 %
3573 01-09-2019 18:33:17 21.7 C 20 %
3574 01-09-2019 18:45:18 22.1 C 20 %
3575 01-09-2019 18:57:18 21.8 C 20 %
Sensor: Nr:Datum:Temp:Feuchte:
Aussen-T/F 3576 01-09-2019 19:09:17 21.2 C 20 %
3577 01-09-2019 19:21:17 20.4 C 20 %
3578 01-09-2019 19:33:17 20.2 C 20 %
3579 01-09-2019 19:45:17 19.8 C 20 %
3580 01-09-2019 19:57:17 19.5 C 20 %
3581 01-09-2019 20:09:17 19.5 C 20 %
3582 01-09-2019 20:21:17 18.2 C 20 %
3583 01-09-2019 20:33:17 17.1 C 20 %
3584 01-09-2019 20:45:18 16.6 C 22 %
3585 01-09-2019 20:57:18 16.5 C 24 %
3586 01-09-2019 21:09:17 16.8 C 23 %
3587 01-09-2019 21:21:17 16.7 C 23 %
3588 01-09-2019 21:33:17 16.7 C 22 %
3589 01-09-2019 21:45:17 16.7 C 22 %
3590 01-09-2019 21:57:17 16.6 C 24 %
3591 01-09-2019 22:09:17 16.4 C 22 %
3592 01-09-2019 22:21:18 16.3 C 23 %
3593 01-09-2019 22:33:17 16.3 C 22 %
3594 01-09-2019 22:45:17 16.1 C 22 %
3595 01-09-2019 22:57:17 15.8 C 25 %
3596 01-09-2019 23:09:17 15.7 C 25 %
3597 01-09-2019 23:21:17 15.4 C 26 %
3598 01-09-2019 23:33:17 15.4 C 26 %
3599 01-09-2019 23:45:17 15.4 C 26 %
3600 01-09-2019 23:57:18 15 C 26 %
Sensor: Nr:Datum:Temp:Feuchte:
Aussen-T/F 3601 02-09-2019 00:09:17 14.4 C 27 %
3602 02-09-2019 00:21:18 14.2 C 27 %
3603 02-09-2019 00:33:17 14.1 C 26 %
3604 02-09-2019 00:45:18 14 C 26 %
3605 02-09-2019 00:57:18 13.7 C 28 %
3606 02-09-2019 01:09:17 13.5 C 29 %
3607 02-09-2019 01:21:18 13.2 C 27 %
3608 02-09-2019 01:33:17 13 C 28 %
3609 02-09-2019 01:45:18 13 C 29 %
3610 02-09-2019 01:57:18 13.2 C 30 %
3611 02-09-2019 02:09:17 13.5 C 28 %
3612 02-09-2019 02:21:17 13.7 C 30 %
3613 02-09-2019 02:33:18 13.8 C 30 %
3614 02-09-2019 02:45:17 13.8 C 31 %
3615 02-09-2019 02:57:17 13.6 C 31 %
3616 02-09-2019 03:09:17 13.5 C 33 %
3617 02-09-2019 03:21:17 13.4 C 34 %
3618 02-09-2019 03:33:17 12.8 C 35 %
3619 02-09-2019 03:45:18 12.5 C 36 %
3620 02-09-2019 03:57:18 12.3 C 36 %
3621 02-09-2019 04:09:17 12.2 C 35 %
3622 02-09-2019 04:21:17 11.9 C 37 %
3623 02-09-2019 04:33:17 11.8 C 37 %
3624 02-09-2019 04:45:17 11.9 C 37 %
3625 02-09-2019 04:57:17 11.7 C 37 %
Sensor: Nr:Datum:Temp:Feuchte:
Aussen-T/F 3626 02-09-2019 05:09:17 11.5 C 39 %
3627 02-09-2019 05:21:17 11.1 C 39 %
3628 02-09-2019 05:33:17 10.9 C 41 %
3629 02-09-2019 05:45:17 10.8 C 42 %
3630 02-09-2019 05:57:17 10.5 C 43 %
3631 02-09-2019 06:09:17 10.2 C 43 %
3632 02-09-2019 06:21:17 10 C 45 %
3633 02-09-2019 06:33:18 9.8 C 46 %
3634 02-09-2019 06:45:17 9.7 C 46 %
3635 02-09-2019 06:57:17 9.7 C 46 %
3636 02-09-2019 07:09:17 9.7 C 47 %
3637 02-09-2019 07:21:17 9.8 C 47 %
3638 02-09-2019 07:33:17 9.9 C 47 %
3639 02-09-2019 07:45:17 10 C 46 %
3640 02-09-2019 07:57:17 10.1 C 47 %
3641 02-09-2019 08:09:18 10.1 C 46 %
3642 02-09-2019 08:21:17 10.2 C 47 %
3643 02-09-2019 08:33:18 10.3 C 47 %
3644 02-09-2019 08:45:17 10.6 C 47 %
3645 02-09-2019 08:57:17 10.6 C 46 %
3646 02-09-2019 09:09:18 10.9 C 46 %
3647 02-09-2019 09:21:17 10.9 C 46 %
3648 02-09-2019 09:33:18 11.2 C 44 %
3649 02-09-2019 09:45:17 11.3 C 44 %
3650 02-09-2019 09:57:17 11.9 C 42 %
Sensor: Nr:Datum:Temp:Feuchte:
Aussen-T/F 3651 02-09-2019 10:09:17 12.5 C 39 %
3652 02-09-2019 10:21:17 13 C 36 %
3653 02-09-2019 10:33:17 14 C 32 %
3654 02-09-2019 10:45:17 14.5 C 31 %
3655 02-09-2019 10:57:17 15.4 C 25 %
3656 02-09-2019 11:09:17 16.4 C 20 %
3657 02-09-2019 11:21:17 16.9 C 20 %
3658 02-09-2019 11:33:17 17.4 C 20 %
3659 02-09-2019 11:45:18 17.2 C 20 %
3660 02-09-2019 11:57:18 17.5 C 20 %
3661 02-09-2019 12:09:17 17.5 C 20 %
3662 02-09-2019 12:21:17 17.7 C 20 %
3663 02-09-2019 12:33:17 17.9 C 20 %
3664 02-09-2019 12:45:17 17.9 C 20 %
3665 02-09-2019 12:57:17 18 C 20 %
3666 02-09-2019 13:09:17 18.1 C 20 %
3667 02-09-2019 13:21:17 18.5 C 20 %
3668 02-09-2019 13:33:17 18.8 C 20 %
3669 02-09-2019 13:45:17 19.2 C 20 %
3670 02-09-2019 13:57:17 19.5 C 20 %
3671 02-09-2019 14:09:17 19.6 C 20 %
3672 02-09-2019 14:21:18 20 C 20 %
3673 02-09-2019 14:33:17 20.4 C 20 %
3674 02-09-2019 14:45:18 20.1 C 20 %
3675 02-09-2019 14:57:18 20.4 C 20 %
Sensor: Nr:Datum:Temp:Feuchte:
Aussen-T/F 3676 02-09-2019 15:09:17 20.9 C 20 %
3677 02-09-2019 15:21:17 20.7 C 20 %
3678 02-09-2019 15:33:17 19.9 C 20 %
3679 02-09-2019 15:45:18 20.8 C 20 %
3680 02-09-2019 15:57:18 21.8 C 20 %
3681 02-09-2019 16:09:17 22.3 C 20 %
3682 02-09-2019 16:21:17 22.7 C 20 %
3683 02-09-2019 16:33:17 22.9 C 20 %
3684 02-09-2019 16:45:17 22.5 C 20 %
3685 02-09-2019 16:57:17 23 C 20 %
3686 02-09-2019 17:09:18 23.2 C 20 %
3687 02-09-2019 17:21:17 23.6 C 20 %
3688 02-09-2019 17:33:17 23 C 20 %
3689 02-09-2019 17:45:17 23.2 C 20 %
3690 02-09-2019 17:57:17 23.6 C 20 %
3691 02-09-2019 18:09:18 23.1 C 20 %
3692 02-09-2019 18:21:17 22.8 C 20 %
3693 02-09-2019 18:33:18 23.5 C 20 %
3694 02-09-2019 18:45:17 23.2 C 20 %
3695 02-09-2019 18:57:17 23 C 20 %
3696 02-09-2019 19:09:18 22.5 C 20 %
3697 02-09-2019 19:21:17 20.1 C 20 %
3698 02-09-2019 19:33:17 18.8 C 20 %
3699 02-09-2019 19:45:17 17.5 C 20 %
3700 02-09-2019 19:57:17 17.2 C 20 %
Sensor: Nr:Datum:Temp:Feuchte:
Aussen-T/F 3701 02-09-2019 20:09:17 17.2 C 20 %
3702 02-09-2019 20:21:18 16.9 C 20 %
3703 02-09-2019 20:33:17 16.1 C 20 %
3704 02-09-2019 20:45:18 15.9 C 20 %
3705 02-09-2019 20:57:18 15.4 C 20 %
3706 02-09-2019 21:09:17 15.1 C 20 %
3707 02-09-2019 21:21:17 14.9 C 20 %
3708 02-09-2019 21:33:17 14.8 C 20 %
3709 02-09-2019 21:45:17 14.3 C 20 %
3710 02-09-2019 21:57:17 13.5 C 20 %
3711 02-09-2019 22:09:18 13.3 C 20 %
3712 02-09-2019 22:21:17 13 C 20 %
3713 02-09-2019 22:33:18 13.1 C 20 %
3714 02-09-2019 22:45:17 13.2 C 20 %
3715 02-09-2019 22:57:17 13.3 C 21 %
3716 02-09-2019 23:09:18 13.1 C 21 %
3717 02-09-2019 23:21:17 13 C 22 %
3718 02-09-2019 23:33:18 12.9 C 24 %
3719 02-09-2019 23:45:17 12.8 C 25 %
3720 02-09-2019 23:57:17 12.8 C 25 %
3721 03-09-2019 00:09:18 12.4 C 25 %
3722 03-09-2019 00:21:17 12.5 C 26 %
3723 03-09-2019 00:33:18 12.1 C 25 %
3724 03-09-2019 00:45:17 12.2 C 26 %
3725 03-09-2019 00:57:17 12.3 C 27 %
Sensor: Nr:Datum:Temp:Feuchte:
Aussen-T/F 3726 03-09-2019 01:09:17 12.2 C 26 %
3727 03-09-2019 01:21:17 12.5 C 27 %
3728 03-09-2019 01:33:18 12.3 C 27 %
3729 03-09-2019 01:45:17 11.8 C 27 %
3730 03-09-2019 01:57:17 11.4 C 27 %
3731 03-09-2019 02:09:18 10.9 C 30 %
3732 03-09-2019 02:21:17 10.8 C 30 %
3733 03-09-2019 02:33:18 10.5 C 32 %
3734 03-09-2019 02:45:17 10.4 C 32 %
3735 03-09-2019 02:57:17 10.2 C 32 %
3736 03-09-2019 03:09:17 10 C 32 %
3737 03-09-2019 03:21:17 10 C 33 %
3738 03-09-2019 03:33:18 10.1 C 35 %
3739 03-09-2019 03:45:17 9.8 C 35 %
3740 03-09-2019 03:57:17 10 C 35 %
3741 03-09-2019 04:09:17 10.2 C 36 %
3742 03-09-2019 04:21:17 10.3 C 36 %
3743 03-09-2019 04:33:17 10.3 C 35 %
3744 03-09-2019 04:45:18 10.2 C 35 %
3745 03-09-2019 04:57:18 9.8 C 35 %
3746 03-09-2019 05:09:17 9.4 C 36 %
3747 03-09-2019 05:21:17 9.3 C 37 %
3748 03-09-2019 05:33:17 9 C 37 %
3749 03-09-2019 05:45:17 9.3 C 40 %
3750 03-09-2019 05:57:18 9.3 C 40 %
Sensor: Nr:Datum:Temp:Feuchte:
Aussen-T/F 3751 03-09-2019 06:09:17 9.1 C 40 %
3752 03-09-2019 06:21:17 8.8 C 40 %
3753 03-09-2019 06:33:17 8.6 C 40 %
3754 03-09-2019 06:45:17 8.5 C 41 %
3755 03-09-2019 06:57:17 8.4 C 42 %
3756 03-09-2019 07:09:17 8.5 C 42 %
3757 03-09-2019 07:21:17 8.7 C 43 %
3758 03-09-2019 07:33:17 8.9 C 43 %
3759 03-09-2019 07:45:17 8.8 C 43 %
3760 03-09-2019 07:57:17 9 C 42 %
3761 03-09-2019 08:09:17 9.2 C 43 %
3762 03-09-2019 08:21:18 9.3 C 42 %
3763 03-09-2019 08:33:17 9.5 C 42 %
3764 03-09-2019 08:45:18 9.6 C 41 %
3765 03-09-2019 08:57:18 9.8 C 41 %
3766 03-09-2019 09:09:17 10.1 C 41 %
3767 03-09-2019 09:21:17 10.4 C 40 %
3768 03-09-2019 09:33:17 10.9 C 39 %
3769 03-09-2019 09:45:18 11.2 C 37 %
3770 03-09-2019 09:57:18 11.7 C 36 %
3771 03-09-2019 10:09:17 12.4 C 34 %
3772 03-09-2019 10:21:18 13.3 C 31 %
3773 03-09-2019 10:33:17 14 C 27 %
3774 03-09-2019 10:45:17 15.1 C 21 %
3775 03-09-2019 10:57:17 16.2 C 20 %
Sensor: Nr:Datum:Temp:Feuchte:
Aussen-T/F 3776 03-09-2019 11:09:17 16.6 C 20 %
3777 03-09-2019 11:21:18 16.6 C 20 %
3778 03-09-2019 11:33:17 18.9 C 20 %
3779 03-09-2019 11:45:17 18.7 C 20 %
3780 03-09-2019 11:57:17 19.6 C 20 %
3781 03-09-2019 12:09:17 19.4 C 20 %
3782 03-09-2019 12:21:18 19.7 C 20 %
3783 03-09-2019 12:33:17 20 C 20 %
3784 03-09-2019 12:45:17 20.1 C 20 %
3785 03-09-2019 12:57:17 20.5 C 20 %
3786 03-09-2019 13:09:17 20.6 C 20 %
3787 03-09-2019 13:21:17 21 C 20 %
3788 03-09-2019 13:33:17 21.3 C 20 %
3789 03-09-2019 13:45:17 21.7 C 20 %
3790 03-09-2019 13:57:17 21.9 C 20 %
3791 03-09-2019 14:09:17 22.2 C 20 %
3792 03-09-2019 14:21:18 22.5 C 20 %
3793 03-09-2019 14:33:17 22.9 C 20 %
3794 03-09-2019 14:45:17 23.3 C 20 %
3795 03-09-2019 14:57:18 23.8 C 20 %
3796 03-09-2019 15:09:17 24.2 C 20 %
3797 03-09-2019 15:21:17 24.9 C 20 %
3798 03-09-2019 15:33:17 25.6 C 20 %
3799 03-09-2019 15:45:17 24.1 C 20 %
3800 03-09-2019 15:57:17 23.9 C 20 %
Sensor: Nr:Datum:Temp:Feuchte:
Aussen-T/F 3801 03-09-2019 16:09:17 23.8 C 20 %
3802 03-09-2019 16:21:17 23.5 C 20 %
3803 03-09-2019 16:33:17 24.9 C 20 %
3804 03-09-2019 16:45:18 23.9 C 20 %
3805 03-09-2019 16:57:18 23.8 C 20 %
3806 03-09-2019 17:09:17 23.1 C 20 %
3807 03-09-2019 17:21:18 24.8 C 20 %
3808 03-09-2019 17:33:17 24.2 C 20 %
3809 03-09-2019 17:45:17 24.3 C 20 %
3810 03-09-2019 17:57:17 24.1 C 20 %
3811 03-09-2019 18:09:17 24.5 C 20 %
3812 03-09-2019 18:21:17 23.9 C 20 %
3813 03-09-2019 18:33:17 23 C 20 %
3814 03-09-2019 18:45:18 23.1 C 20 %
3815 03-09-2019 18:57:18 21.9 C 20 %
3816 03-09-2019 19:09:17 21.5 C 20 %
3817 03-09-2019 19:21:17 21.3 C 20 %
3818 03-09-2019 19:33:17 20.9 C 20 %
3819 03-09-2019 19:45:17 20.5 C 20 %
3820 03-09-2019 19:57:17 20.2 C 20 %
3821 03-09-2019 20:09:18 19.8 C 20 %
3822 03-09-2019 20:21:17 19.4 C 20 %
3823 03-09-2019 20:33:18 17.8 C 20 %
3824 03-09-2019 20:45:17 17.2 C 20 %
3825 03-09-2019 20:57:17 16.3 C 23 %
Sensor: Nr:Datum:Temp:Feuchte:
Aussen-T/F 3826 03-09-2019 21:09:18 16.1 C 25 %
3827 03-09-2019 21:21:17 15.7 C 26 %
3828 03-09-2019 21:33:17 15.6 C 27 %
3829 03-09-2019 21:45:17 15.5 C 27 %
3830 03-09-2019 21:57:17 15.4 C 28 %
3831 03-09-2019 22:09:18 15.3 C 28 %
3832 03-09-2019 22:21:17 15 C 28 %
3833 03-09-2019 22:33:17 15 C 30 %
3834 03-09-2019 22:45:17 14.8 C 31 %
3835 03-09-2019 22:57:17 14.3 C 31 %
3836 03-09-2019 23:09:17 14 C 33 %
3837 03-09-2019 23:21:17 13.7 C 35 %
3838 03-09-2019 23:33:17 13.5 C 36 %
3839 03-09-2019 23:45:17 13.3 C 37 %
3840 03-09-2019 23:57:17 13.1 C 38 %
3841 04-09-2019 00:09:17 13 C 38 %
3842 04-09-2019 00:21:17 12.8 C 40 %
3843 04-09-2019 00:33:17 12.7 C 40 %
3844 04-09-2019 00:45:18 12.5 C 41 %
3845 04-09-2019 00:57:18 12.3 C 41 %
3846 04-09-2019 01:09:17 12.2 C 42 %
3847 04-09-2019 01:21:17 12.2 C 42 %
3848 04-09-2019 01:33:17 12.1 C 43 %
3849 04-09-2019 01:45:17 12 C 43 %
3850 04-09-2019 01:57:17 11.9 C 44 %
Sensor: Nr:Datum:Temp:Feuchte:
Aussen-T/F 3851 04-09-2019 02:09:17 11.7 C 45 %
3852 04-09-2019 02:21:17 11.8 C 45 %
3853 04-09-2019 02:33:17 11.7 C 45 %
3854 04-09-2019 02:45:17 11.4 C 45 %
3855 04-09-2019 02:57:17 11.4 C 46 %
3856 04-09-2019 03:09:17 11.4 C 46 %
3857 04-09-2019 03:21:17 11.3 C 46 %
3858 04-09-2019 03:33:17 11.2 C 46 %
3859 04-09-2019 03:45:18 11 C 46 %
3860 04-09-2019 03:57:18 10.8 C 47 %
3861 04-09-2019 04:09:17 10.9 C 47 %
3862 04-09-2019 04:21:17 10.7 C 48 %
3863 04-09-2019 04:33:17 10.5 C 48 %
3864 04-09-2019 04:45:17 10.6 C 48 %
3865 04-09-2019 04:57:17 10.6 C 49 %
3866 04-09-2019 05:09:18 10.4 C 48 %
3867 04-09-2019 05:21:17 10.3 C 48 %
3868 04-09-2019 05:33:18 10.3 C 48 %
3869 04-09-2019 05:45:17 10.3 C 49 %
3870 04-09-2019 05:57:17 10.1 C 48 %
3871 04-09-2019 06:09:17 10 C 48 %
3872 04-09-2019 06:21:17 9.9 C 49 %
3873 04-09-2019 06:33:17 10.2 C 50 %
3874 04-09-2019 06:45:18 10.4 C 50 %
3875 04-09-2019 06:57:18 10.2 C 49 %
Sensor: Nr:Datum:Temp:Feuchte:
Aussen-T/F 3876 04-09-2019 07:09:17 10.1 C 48 %
3877 04-09-2019 07:21:17 10.1 C 49 %
3878 04-09-2019 07:33:17 10.1 C 49 %
3879 04-09-2019 07:45:17 10.2 C 49 %
3880 04-09-2019 07:57:17 10.3 C 49 %
3881 04-09-2019 08:09:17 10.4 C 49 %
3882 04-09-2019 08:21:17 10.8 C 50 %
3883 04-09-2019 08:33:17 11.1 C 48 %
3884 04-09-2019 08:45:17 11.7 C 49 %
3885 04-09-2019 08:57:17 12.4 C 47 %
3886 04-09-2019 09:09:17 13.5 C 40 %
3887 04-09-2019 09:21:17 14.1 C 35 %
3888 04-09-2019 09:33:17 14.3 C 33 %
3889 04-09-2019 09:45:17 14.4 C 33 %
3890 04-09-2019 09:57:17 14.5 C 33 %
3891 04-09-2019 10:09:18 14.5 C 33 %
3892 04-09-2019 10:21:17 14.5 C 34 %
3893 04-09-2019 10:33:18 15.3 C 32 %
3894 04-09-2019 10:45:17 16.2 C 29 %
3895 04-09-2019 10:57:17 17.1 C 27 %
3896 04-09-2019 11:09:18 17.7 C 25 %
3897 04-09-2019 11:21:17 18.3 C 23 %
3898 04-09-2019 11:33:17 18.9 C 21 %
3899 04-09-2019 11:45:17 19.1 C 20 %
3900 04-09-2019 11:57:17 19.5 C 20 %
Sensor: Nr:Datum:Temp:Feuchte:
Aussen-T/F 3901 04-09-2019 12:09:17 19.5 C 20 %
3902 04-09-2019 12:21:17 19.5 C 20 %
3903 04-09-2019 12:33:17 19.7 C 20 %
3904 04-09-2019 12:45:18 20.1 C 20 %
3905 04-09-2019 12:57:18 20.2 C 20 %
3906 04-09-2019 13:09:17 20.5 C 20 %
3907 04-09-2019 13:21:17 21 C 20 %
3908 04-09-2019 13:33:17 21.1 C 20 %
3909 04-09-2019 13:45:18 21.4 C 20 %
3910 04-09-2019 13:57:18 21.9 C 20 %
3911 04-09-2019 14:09:17 22.3 C 20 %
3912 04-09-2019 14:21:18 22.6 C 20 %
3913 04-09-2019 14:33:17 22.9 C 20 %
3914 04-09-2019 14:45:17 23.4 C 20 %
3915 04-09-2019 14:57:17 23.8 C 20 %
3916 04-09-2019 15:09:17 24.1 C 20 %
3917 04-09-2019 15:21:18 24.5 C 20 %
3918 04-09-2019 15:33:17 25.1 C 20 %
3919 04-09-2019 15:45:17 25.4 C 20 %
3920 04-09-2019 15:57:17 26.1 C 20 %
3921 04-09-2019 16:09:17 25.9 C 20 %
3922 04-09-2019 16:21:17 26.1 C 20 %
3923 04-09-2019 16:33:17 26.5 C 20 %
3924 04-09-2019 16:45:18 26.3 C 20 %
3925 04-09-2019 16:57:18 27.1 C 20 %
Sensor: Nr:Datum:Temp:Feuchte:
Aussen-T/F 3926 04-09-2019 17:09:17 27.4 C 20 %
3927 04-09-2019 17:21:17 27.7 C 20 %
3928 04-09-2019 17:33:17 27.3 C 20 %
3929 04-09-2019 17:45:17 27.6 C 20 %
3930 04-09-2019 17:57:17 27.2 C 20 %
3931 04-09-2019 18:09:17 26.1 C 20 %
3932 04-09-2019 18:21:17 25.6 C 20 %
3933 04-09-2019 18:33:17 24.9 C 20 %
3934 04-09-2019 18:45:17 24.6 C 20 %
3935 04-09-2019 18:57:17 24.6 C 20 %
3936 04-09-2019 19:09:17 24.3 C 20 %
3937 04-09-2019 19:21:17 23.8 C 20 %
3938 04-09-2019 19:33:17 23.7 C 20 %
3939 04-09-2019 19:45:18 23.2 C 20 %
3940 04-09-2019 19:57:18 21.1 C 20 %
3941 04-09-2019 20:09:17 20.4 C 20 %
3942 04-09-2019 20:21:17 19.9 C 20 %
3943 04-09-2019 20:33:17 19.7 C 20 %
3944 04-09-2019 20:45:17 18.9 C 22 %
3945 04-09-2019 20:57:17 17.9 C 31 %
3946 04-09-2019 21:09:17 17.1 C 35 %
3947 04-09-2019 21:21:17 16.8 C 39 %
3948 04-09-2019 21:33:17 16.4 C 41 %
3949 04-09-2019 21:45:17 16.2 C 43 %
3950 04-09-2019 21:57:17 16 C 45 %
Sensor: Nr:Datum:Temp:Feuchte:
Aussen-T/F 3951 04-09-2019 22:09:17 16 C 44 %
3952 04-09-2019 22:21:17 15.8 C 46 %
3953 04-09-2019 22:33:18 15.9 C 46 %
3954 04-09-2019 22:45:17 15.6 C 45 %
3955 04-09-2019 22:57:17 15.4 C 46 %
3956 04-09-2019 23:09:18 15.5 C 45 %
3957 04-09-2019 23:21:17 15.7 C 43 %
3958 04-09-2019 23:33:18 15.7 C 41 %
3959 04-09-2019 23:45:17 15.7 C 41 %
3960 04-09-2019 23:57:17 15.7 C 40 %
3961 05-09-2019 00:09:18 15.7 C 41 %
3962 05-09-2019 00:21:17 15.6 C 41 %
3963 05-09-2019 00:33:18 15.6 C 42 %
3964 05-09-2019 00:45:17 15.5 C 42 %
3965 05-09-2019 00:57:17 15.3 C 43 %
3966 05-09-2019 01:09:17 15.5 C 45 %
3967 05-09-2019 01:21:17 15.5 C 43 %
3968 05-09-2019 01:33:18 15.5 C 35 %
3969 05-09-2019 01:45:17 15.2 C 34 %
3970 05-09-2019 01:57:17 14.5 C 37 %
3971 05-09-2019 02:09:18 14.1 C 38 %
3972 05-09-2019 02:21:17 14.1 C 37 %
3973 05-09-2019 02:33:18 14.1 C 36 %
3974 05-09-2019 02:45:17 13.8 C 37 %
3975 05-09-2019 02:57:17 14.3 C 35 %
Sensor: Nr:Datum:Temp:Feuchte:
Aussen-T/F 3976 05-09-2019 03:09:17 14.4 C 33 %
3977 05-09-2019 03:21:17 14.2 C 34 %
3978 05-09-2019 03:33:18 14.1 C 34 %
3979 05-09-2019 03:45:17 14.2 C 34 %
3980 05-09-2019 03:57:17 14.4 C 32 %
3981 05-09-2019 04:09:18 14.5 C 31 %
3982 05-09-2019 04:21:17 14.4 C 31 %
3983 05-09-2019 04:33:17 14.4 C 31 %
3984 05-09-2019 04:45:17 14.2 C 31 %
3985 05-09-2019 04:57:17 14.1 C 31 %
3986 05-09-2019 05:09:18 14.1 C 31 %
3987 05-09-2019 05:21:17 13.7 C 32 %
3988 05-09-2019 05:33:18 13.4 C 32 %
3989 05-09-2019 05:45:17 13.1 C 33 %
3990 05-09-2019 05:57:17 13 C 34 %
3991 05-09-2019 06:09:17 13 C 34 %
3992 05-09-2019 06:21:17 12.8 C 35 %
3993 05-09-2019 06:33:18 12.8 C 35 %
3994 05-09-2019 06:45:17 12.7 C 35 %
3995 05-09-2019 06:57:17 12.5 C 35 %
3996 05-09-2019 07:09:17 12.4 C 35 %
3997 05-09-2019 07:21:17 12.4 C 35 %
3998 05-09-2019 07:33:17 12.4 C 35 %
3999 05-09-2019 07:45:17 12.4 C 35 %
4000 05-09-2019 07:57:17 12.3 C 36 %
Sensor: Nr:Datum:Temp:Feuchte:
Aussen-T/F 4001 05-09-2019 08:09:17 12.5 C 34 %
4002 05-09-2019 08:21:18 12.6 C 34 %
4003 05-09-2019 08:33:17 12.8 C 33 %
4004 05-09-2019 08:45:17 13.1 C 31 %
4005 05-09-2019 08:57:17 13.1 C 31 %
4006 05-09-2019 09:09:17 13.2 C 31 %
4007 05-09-2019 09:21:17 13.6 C 30 %
4008 05-09-2019 09:33:17 14 C 28 %
4009 05-09-2019 09:45:17 14.2 C 28 %
4010 05-09-2019 09:57:17 15 C 26 %
4011 05-09-2019 10:09:17 15.1 C 25 %
4012 05-09-2019 10:21:17 15.7 C 25 %
4013 05-09-2019 10:33:18 15.8 C 24 %
4014 05-09-2019 10:45:17 16.5 C 22 %
4015 05-09-2019 10:57:17 17 C 20 %
4016 05-09-2019 11:09:18 17.2 C 20 %
4017 05-09-2019 11:21:17 17.6 C 20 %
4018 05-09-2019 11:33:18 17 C 20 %
4019 05-09-2019 11:45:17 15.9 C 22 %
4020 05-09-2019 11:57:17 16.5 C 20 %
4021 05-09-2019 12:09:18 17 C 20 %
4022 05-09-2019 12:21:17 17.7 C 20 %
4023 05-09-2019 12:33:18 18.1 C 20 %
4024 05-09-2019 12:45:17 18 C 20 %
4025 05-09-2019 12:57:17 18.2 C 20 %
Sensor: Nr:Datum:Temp:Feuchte:
Aussen-T/F 4026 05-09-2019 13:09:17 18.7 C 20 %
4027 05-09-2019 13:21:17 18.1 C 20 %
4028 05-09-2019 13:33:18 18.1 C 20 %
4029 05-09-2019 13:45:17 18.5 C 20 %
4030 05-09-2019 13:57:17 18.8 C 20 %
4031 05-09-2019 14:09:18 18.6 C 20 %
4032 05-09-2019 14:21:17 18.1 C 20 %
4033 05-09-2019 14:33:18 18.3 C 20 %
4034 05-09-2019 14:45:18 18.3 C 20 %
4035 05-09-2019 14:57:18 18.8 C 20 %
4036 05-09-2019 15:09:17 19.1 C 20 %
4037 05-09-2019 15:21:18 19.2 C 20 %
4038 05-09-2019 15:33:17 19.1 C 20 %
4039 05-09-2019 15:45:17 18.9 C 20 %
4040 05-09-2019 15:57:17 19 C 20 %
4041 05-09-2019 16:09:17 19 C 20 %
4042 05-09-2019 16:21:17 19.5 C 20 %
4043 05-09-2019 16:33:17 20.5 C 20 %
4044 05-09-2019 16:45:17 18.9 C 20 %
4045 05-09-2019 16:57:17 18.1 C 20 %
4046 05-09-2019 17:09:18 18.2 C 20 %
4047 05-09-2019 17:21:17 17.4 C 20 %
4048 05-09-2019 17:33:18 17.2 C 20 %
4049 05-09-2019 17:45:17 16.9 C 20 %
4050 05-09-2019 17:57:17 16.8 C 20 %
Sensor: Nr:Datum:Temp:Feuchte:
Aussen-T/F 4051 05-09-2019 18:09:18 16.6 C 20 %
4052 05-09-2019 18:21:17 16.6 C 20 %
4053 05-09-2019 18:33:18 16.8 C 20 %
4054 05-09-2019 18:45:17 16.7 C 20 %
4055 05-09-2019 18:57:17 17.7 C 20 %
4056 05-09-2019 19:09:17 17.2 C 20 %
4057 05-09-2019 19:21:17 16.6 C 20 %
4058 05-09-2019 19:33:17 16.3 C 20 %
4059 05-09-2019 19:45:17 16.1 C 20 %
4060 05-09-2019 19:57:18 15.9 C 20 %
4061 05-09-2019 20:09:17 15.8 C 20 %
4062 05-09-2019 20:21:17 16.1 C 20 %
4063 05-09-2019 20:33:17 16 C 20 %
4064 05-09-2019 20:45:17 15.7 C 20 %
4065 05-09-2019 20:57:17 15.4 C 20 %
4066 05-09-2019 21:09:17 14.9 C 20 %
4067 05-09-2019 21:21:17 14.9 C 20 %
4068 05-09-2019 21:33:18 14.9 C 20 %
4069 05-09-2019 21:45:17 14.6 C 20 %
4070 05-09-2019 21:57:17 14.7 C 20 %
4071 05-09-2019 22:09:18 14.7 C 20 %
4072 05-09-2019 22:21:18 14.6 C 20 %
4073 05-09-2019 22:33:17 14.5 C 21 %
4074 05-09-2019 22:45:17 14.5 C 20 %
4075 05-09-2019 22:57:17 14.5 C 20 %
Sensor: Nr:Datum:Temp:Feuchte:
Aussen-T/F 4076 05-09-2019 23:09:18 14.4 C 20 %
4077 05-09-2019 23:21:17 14.1 C 20 %
4078 05-09-2019 23:33:17 14.1 C 20 %
4079 05-09-2019 23:45:17 13.4 C 24 %
4080 05-09-2019 23:57:17 12.8 C 26 %
4081 06-09-2019 00:09:17 11.9 C 31 %
4082 06-09-2019 00:21:17 11.5 C 32 %
4083 06-09-2019 00:33:18 11.4 C 34 %
4084 06-09-2019 00:45:17 11.1 C 34 %
4085 06-09-2019 00:57:17 11.2 C 35 %
4086 06-09-2019 01:09:18 11.8 C 32 %
4087 06-09-2019 01:21:17 11.2 C 34 %
4088 06-09-2019 01:33:18 10.8 C 35 %
4089 06-09-2019 01:45:17 10.5 C 38 %
4090 06-09-2019 01:57:17 10.3 C 39 %
4091 06-09-2019 02:09:18 10.3 C 39 %
4092 06-09-2019 02:21:17 10.2 C 40 %
4093 06-09-2019 02:33:18 10.5 C 39 %
4094 06-09-2019 02:45:17 10.2 C 39 %
4095 06-09-2019 02:57:17 9.9 C 40 %
4096 06-09-2019 03:09:18 9.7 C 41 %
4097 06-09-2019 03:21:17 9.7 C 42 %
4098 06-09-2019 03:33:17 9.4 C 42 %
4099 06-09-2019 03:45:17 9.6 C 44 %
4100 06-09-2019 03:57:17 9.5 C 43 %
Sensor: Nr:Datum:Temp:Feuchte:
Aussen-T/F 4101 06-09-2019 04:09:18 8.9 C 43 %
4102 06-09-2019 04:21:17 9 C 45 %
4103 06-09-2019 04:33:18 8.9 C 45 %
4104 06-09-2019 04:45:17 8.6 C 45 %
4105 06-09-2019 04:57:17 8.4 C 46 %
4106 06-09-2019 05:09:17 8.2 C 46 %
4107 06-09-2019 05:21:17 8 C 46 %
4108 06-09-2019 05:33:17 7.8 C 47 %
4109 06-09-2019 05:45:18 7.8 C 48 %
4110 06-09-2019 05:57:18 7.5 C 48 %
4111 06-09-2019 06:09:17 7.6 C 49 %
4112 06-09-2019 06:21:18 7.4 C 49 %
4113 06-09-2019 06:33:17 7.3 C 49 %
4114 06-09-2019 06:45:18 7.4 C 50 %
4115 06-09-2019 06:57:18 7.3 C 50 %
4116 06-09-2019 07:09:17 7.3 C 50 %
4117 06-09-2019 07:21:18 7.4 C 50 %
4118 06-09-2019 07:33:17 7.4 C 50 %
4119 06-09-2019 07:45:18 7.5 C 50 %
4120 06-09-2019 07:57:18 7.7 C 50 %
4121 06-09-2019 08:09:17 8.1 C 50 %
4122 06-09-2019 08:21:17 8.2 C 49 %
4123 06-09-2019 08:33:18 8.2 C 49 %
4124 06-09-2019 08:45:17 8.3 C 49 %
4125 06-09-2019 08:57:17 8.5 C 49 %
Sensor: Nr:Datum:Temp:Feuchte:
Aussen-T/F 4126 06-09-2019 09:09:18 8.7 C 49 %
4127 06-09-2019 09:21:17 8.9 C 50 %
4128 06-09-2019 09:33:17 9.2 C 49 %
4129 06-09-2019 09:45:17 9.3 C 49 %
4130 06-09-2019 09:57:17 9.5 C 49 %
4131 06-09-2019 10:09:17 9.6 C 49 %
4132 06-09-2019 10:21:17 10.4 C 46 %
4133 06-09-2019 10:33:17 11.1 C 42 %
4134 06-09-2019 10:45:17 11.5 C 39 %
4135 06-09-2019 10:57:17 12.7 C 35 %
4136 06-09-2019 11:09:18 12.8 C 33 %
4137 06-09-2019 11:21:17 13.3 C 28 %
4138 06-09-2019 11:33:17 14 C 23 %
4139 06-09-2019 11:45:17 14 C 23 %
4140 06-09-2019 11:57:17 14.4 C 22 %
4141 06-09-2019 12:09:17 14.7 C 20 %
4142 06-09-2019 12:21:17 15 C 20 %
4143 06-09-2019 12:33:17 15.3 C 20 %
4144 06-09-2019 12:45:18 15.5 C 20 %
4145 06-09-2019 12:57:18 15.8 C 20 %
4146 06-09-2019 13:09:17 15.7 C 20 %
4147 06-09-2019 13:21:18 16.2 C 20 %
4148 06-09-2019 13:33:17 16.5 C 20 %
4149 06-09-2019 13:45:17 16.9 C 20 %
4150 06-09-2019 13:57:17 17.4 C 20 %
Sensor: Nr:Datum:Temp:Feuchte:
Aussen-T/F 4151 06-09-2019 14:09:17 18 C 20 %
4152 06-09-2019 14:21:17 18.3 C 20 %
4153 06-09-2019 14:33:17 18.6 C 20 %
4154 06-09-2019 14:45:17 19.2 C 20 %
4155 06-09-2019 14:57:17 19.5 C 20 %
4156 06-09-2019 15:09:18 20.1 C 20 %
4157 06-09-2019 15:21:17 20.2 C 20 %
4158 06-09-2019 15:33:18 20.4 C 20 %
4159 06-09-2019 15:45:17 20.7 C 20 %
4160 06-09-2019 15:57:17 21.1 C 20 %
4161 06-09-2019 16:09:18 21.2 C 20 %
4162 06-09-2019 16:21:17 21.9 C 20 %
4163 06-09-2019 16:33:18 22.1 C 20 %
4164 06-09-2019 16:45:17 22.6 C 20 %
4165 06-09-2019 16:57:17 22.9 C 20 %
4166 06-09-2019 17:09:18 23 C 20 %
4167 06-09-2019 17:21:17 23 C 20 %
4168 06-09-2019 17:33:18 23.5 C 20 %
4169 06-09-2019 17:45:17 23.2 C 20 %
4170 06-09-2019 17:57:17 22.9 C 20 %
4171 06-09-2019 18:09:18 23 C 20 %
4172 06-09-2019 18:21:17 23 C 20 %
4173 06-09-2019 18:33:18 23.7 C 20 %
4174 06-09-2019 18:45:17 22.7 C 20 %
4175 06-09-2019 18:57:17 21.6 C 20 %
Sensor: Nr:Datum:Temp:Feuchte:
Aussen-T/F 4176 06-09-2019 19:09:17 19.3 C 20 %
4177 06-09-2019 19:21:17 18.1 C 20 %
4178 06-09-2019 19:33:17 16.8 C 20 %
4179 06-09-2019 19:45:17 16.1 C 20 %
4180 06-09-2019 19:57:18 15.8 C 20 %
4181 06-09-2019 20:09:17 16 C 20 %
4182 06-09-2019 20:21:17 15.9 C 20 %
4183 06-09-2019 20:33:17 15.6 C 20 %
4184 06-09-2019 20:45:18 14.9 C 20 %
4185 06-09-2019 20:57:18 14.5 C 20 %
4186 06-09-2019 21:09:17 14.2 C 20 %
4187 06-09-2019 21:21:18 14.1 C 20 %
4188 06-09-2019 21:33:17 13.7 C 20 %
4189 06-09-2019 21:45:18 13.5 C 20 %
4190 06-09-2019 21:57:18 13.2 C 20 %
4191 06-09-2019 22:09:17 12.4 C 20 %
4192 06-09-2019 22:21:17 12 C 20 %
4193 06-09-2019 22:33:17 12 C 20 %
4194 06-09-2019 22:45:17 12 C 20 %
4195 06-09-2019 22:57:18 12.6 C 20 %
4196 06-09-2019 23:09:17 12.9 C 20 %
4197 06-09-2019 23:21:17 13.2 C 20 %
4198 06-09-2019 23:33:18 12.9 C 20 %
4199 06-09-2019 23:45:17 12.6 C 20 %
4200 06-09-2019 23:57:17 12.2 C 22 %
Sensor: Nr:Datum:Temp:Feuchte:
Aussen-T/F 4201 07-09-2019 00:09:18 12.1 C 25 %
4202 07-09-2019 00:21:17 12.1 C 25 %
4203 07-09-2019 00:33:17 12.2 C 24 %
4204 07-09-2019 00:45:17 12.4 C 23 %
4205 07-09-2019 00:57:17 12.6 C 20 %
4206 07-09-2019 01:09:17 12.8 C 20 %
4207 07-09-2019 01:21:17 12.6 C 21 %
4208 07-09-2019 01:33:17 12.2 C 22 %
4209 07-09-2019 01:45:17 12.2 C 22 %
4210 07-09-2019 01:57:17 11.8 C 25 %
4211 07-09-2019 02:09:18 12.4 C 22 %
4212 07-09-2019 02:21:17 12.3 C 23 %
4213 07-09-2019 02:33:17 12.3 C 24 %
4214 07-09-2019 02:45:17 12.4 C 23 %
4215 07-09-2019 02:57:17 12.5 C 21 %
4216 07-09-2019 03:09:18 12.4 C 22 %
4217 07-09-2019 03:21:17 12.5 C 21 %
4218 07-09-2019 03:33:18 12.7 C 21 %
4219 07-09-2019 03:45:17 12.6 C 22 %
4220 07-09-2019 03:57:17 13 C 20 %
4221 07-09-2019 04:09:17 12.8 C 22 %
4222 07-09-2019 04:21:17 12.6 C 24 %
4223 07-09-2019 04:33:18 12.7 C 21 %
4224 07-09-2019 04:45:17 12.9 C 22 %
4225 07-09-2019 04:57:17 12.7 C 21 %
Sensor: Nr:Datum:Temp:Feuchte:
Aussen-T/F 4226 07-09-2019 05:09:17 12.9 C 20 %
4227 07-09-2019 05:21:17 12.6 C 25 %
4228 07-09-2019 05:33:17 12.3 C 25 %
4229 07-09-2019 05:45:18 12.3 C 25 %
4230 07-09-2019 05:57:18 12.3 C 26 %
4231 07-09-2019 06:09:17 12.2 C 26 %
4232 07-09-2019 06:21:17 12.2 C 26 %
4233 07-09-2019 06:33:17 12.2 C 27 %
4234 07-09-2019 06:45:17 12.1 C 28 %
4235 07-09-2019 06:57:17 12 C 28 %
4236 07-09-2019 07:09:17 11.8 C 29 %
4237 07-09-2019 07:21:17 11 C 36 %
4238 07-09-2019 07:33:17 11 C 41 %
4239 07-09-2019 07:45:18 11 C 42 %
4240 07-09-2019 07:57:18 11.1 C 47 %
4241 07-09-2019 08:09:17 11.1 C 48 %
4242 07-09-2019 08:21:17 11.3 C 50 %
4243 07-09-2019 08:33:17 11.4 C 50 %
4244 07-09-2019 08:45:18 11.3 C 50 %
4245 07-09-2019 08:57:18 11.2 C 50 %
4246 07-09-2019 09:09:17 11.3 C 50 %
4247 07-09-2019 09:21:17 11.5 C 50 %
4248 07-09-2019 09:33:17 11.5 C 50 %
4249 07-09-2019 09:45:17 11.7 C 50 %
4250 07-09-2019 09:57:17 11.7 C 50 %
Sensor: Nr:Datum:Temp:Feuchte:
Aussen-T/F 4251 07-09-2019 10:09:17 11.7 C 50 %
4252 07-09-2019 10:21:17 11.9 C 49 %
4253 07-09-2019 10:33:18 12 C 50 %
4254 07-09-2019 10:45:17 11.9 C 50 %
4255 07-09-2019 10:57:17 12.2 C 50 %
4256 07-09-2019 11:09:17 12.4 C 49 %
4257 07-09-2019 11:21:17 12.6 C 49 %
4258 07-09-2019 11:33:18 12.7 C 48 %
4259 07-09-2019 11:45:17 12.8 C 48 %
4260 07-09-2019 11:57:17 12.9 C 48 %
4261 07-09-2019 12:09:18 13 C 47 %
4262 07-09-2019 12:21:17 13 C 47 %
4263 07-09-2019 12:33:17 13.2 C 46 %
4264 07-09-2019 12:45:17 13.5 C 46 %
4265 07-09-2019 12:57:17 13.6 C 46 %
4266 07-09-2019 13:09:18 13.9 C 46 %
4267 07-09-2019 13:21:17 14 C 45 %
4268 07-09-2019 13:33:17 13.9 C 45 %
4269 07-09-2019 13:45:17 13.9 C 45 %
4270 07-09-2019 13:57:17 13.8 C 45 %
4271 07-09-2019 14:09:17 13.9 C 45 %
4272 07-09-2019 14:21:17 14.1 C 44 %
4273 07-09-2019 14:33:17 14.4 C 44 %
4274 07-09-2019 14:45:17 14.4 C 42 %
4275 07-09-2019 14:57:17 14.2 C 42 %
Sensor: Nr:Datum:Temp:Feuchte:
Aussen-T/F 4276 07-09-2019 15:09:18 14.3 C 41 %
4277 07-09-2019 15:21:18 14.6 C 41 %
4278 07-09-2019 15:33:17 15 C 39 %
4279 07-09-2019 15:45:18 15 C 37 %
4280 07-09-2019 15:57:18 15.2 C 36 %
4281 07-09-2019 16:09:17 15.4 C 35 %
4282 07-09-2019 16:21:17 15 C 36 %
4283 07-09-2019 16:33:17 15.2 C 38 %
4284 07-09-2019 16:45:17 15.3 C 38 %
4285 07-09-2019 16:57:17 15.4 C 38 %
4286 07-09-2019 17:09:17 15.6 C 39 %
4287 07-09-2019 17:21:17 15.5 C 38 %
4288 07-09-2019 17:33:17 14.8 C 37 %
4289 07-09-2019 17:45:18 14.5 C 40 %
4290 07-09-2019 17:57:18 14.2 C 42 %
4291 07-09-2019 18:09:17 14 C 42 %
4292 07-09-2019 18:21:18 14 C 43 %
4293 07-09-2019 18:33:17 14 C 43 %
4294 07-09-2019 18:45:18 13.8 C 45 %
4295 07-09-2019 18:57:18 13.5 C 46 %
4296 07-09-2019 19:09:17 13.4 C 43 %
4297 07-09-2019 19:21:17 12.9 C 46 %
4298 07-09-2019 19:33:18 12.6 C 48 %
4299 07-09-2019 19:45:17 12.5 C 50 %
4300 07-09-2019 19:57:17 12.3 C 50 %
Sensor: Nr:Datum:Temp:Feuchte:
Aussen-T/F 4301 07-09-2019 20:09:17 12.1 C 50 %
4302 07-09-2019 20:21:17 12.1 C 50 %
4303 07-09-2019 20:33:17 12 C 50 %
4304 07-09-2019 20:45:18 11.8 C 52 %
4305 07-09-2019 20:57:18 11.7 C 52 %
4306 07-09-2019 21:09:17 11.5 C 52 %
4307 07-09-2019 21:21:17 11.4 C 52 %
4308 07-09-2019 21:33:17 11.4 C 52 %
4309 07-09-2019 21:45:17 11.5 C 52 %
4310 07-09-2019 21:57:17 11.5 C 52 %
4311 07-09-2019 22:09:17 11.4 C 52 %
4312 07-09-2019 22:21:18 11.4 C 52 %
4313 07-09-2019 22:33:17 11.4 C 52 %
4314 07-09-2019 22:45:17 11.4 C 52 %
4315 07-09-2019 22:57:17 11.4 C 52 %
4316 07-09-2019 23:09:17 11.4 C 52 %
4317 07-09-2019 23:21:18 11.4 C 53 %
4318 07-09-2019 23:33:17 11.4 C 53 %
4319 07-09-2019 23:45:17 11.4 C 53 %
4320 07-09-2019 23:57:18 11.4 C 53 %
4321 08-09-2019 00:09:17 11.4 C 53 %
4322 08-09-2019 00:21:18 11.4 C 54 %
4323 08-09-2019 00:33:17 11.4 C 54 %
4324 08-09-2019 00:45:17 11.4 C 55 %
4325 08-09-2019 00:57:17 11.4 C 56 %
Sensor: Nr:Datum:Temp:Feuchte:
Aussen-T/F 4326 08-09-2019 01:09:17 11.6 C 58 %
4327 08-09-2019 01:21:17 11.6 C 57 %
4328 08-09-2019 01:33:17 11.4 C 55 %
4329 08-09-2019 01:45:17 11.2 C 53 %
4330 08-09-2019 01:57:17 11 C 53 %
4331 08-09-2019 02:09:18 10.9 C 58 %
4332 08-09-2019 02:21:17 10.9 C 60 %
4333 08-09-2019 02:33:18 10.6 C 58 %
4334 08-09-2019 02:45:17 10.5 C 59 %
4335 08-09-2019 02:57:17 10.7 C 62 %
4336 08-09-2019 03:09:18 10.7 C 64 %
4337 08-09-2019 03:21:17 11.1 C 64 %
4338 08-09-2019 03:33:18 11.1 C 64 %
4339 08-09-2019 03:45:17 11.1 C 63 %
4340 08-09-2019 03:57:17 11.2 C 64 %
4341 08-09-2019 04:09:18 11.2 C 64 %
4342 08-09-2019 04:21:17 11.4 C 64 %
4343 08-09-2019 04:33:18 11.6 C 64 %
4344 08-09-2019 04:45:17 11.6 C 63 %
4345 08-09-2019 04:57:17 11.6 C 61 %
4346 08-09-2019 05:09:18 11.7 C 57 %
4347 08-09-2019 05:21:17 11.7 C 55 %
4348 08-09-2019 05:33:17 11.7 C 54 %
4349 08-09-2019 05:45:17 11.7 C 53 %
4350 08-09-2019 05:57:17 11.8 C 52 %
Sensor: Nr:Datum:Temp:Feuchte:
Aussen-T/F 4351 08-09-2019 06:09:17 11.8 C 51 %
4352 08-09-2019 06:21:17 11.8 C 51 %
4353 08-09-2019 06:33:17 11.9 C 50 %
4354 08-09-2019 06:45:18 12 C 49 %
4355 08-09-2019 06:57:18 12 C 49 %
4356 08-09-2019 07:09:17 12.1 C 48 %
4357 08-09-2019 07:21:18 12.1 C 48 %
4358 08-09-2019 07:33:17 12 C 48 %
4359 08-09-2019 07:45:17 12.1 C 47 %
4360 08-09-2019 07:57:17 12.2 C 47 %
4361 08-09-2019 08:09:18 12.3 C 47 %
4362 08-09-2019 08:21:17 12.3 C 46 %
4363 08-09-2019 08:33:17 12.3 C 45 %
4364 08-09-2019 08:45:17 12 C 46 %
4365 08-09-2019 08:57:17 12.1 C 48 %
4366 08-09-2019 09:09:17 12 C 47 %
4367 08-09-2019 09:21:17 11.9 C 49 %
4368 08-09-2019 09:33:17 11.8 C 49 %
4369 08-09-2019 09:45:17 11.9 C 49 %
4370 08-09-2019 09:57:17 12 C 48 %
4371 08-09-2019 10:09:17 12.1 C 49 %
4372 08-09-2019 10:21:17 12.1 C 50 %
4373 08-09-2019 10:33:18 12.1 C 51 %
4374 08-09-2019 10:45:17 12.1 C 51 %
4375 08-09-2019 10:57:17 12.1 C 51 %
Sensor: Nr:Datum:Temp:Feuchte:
Aussen-T/F 4376 08-09-2019 11:09:18 12.2 C 52 %
4377 08-09-2019 11:21:17 12.2 C 51 %
4378 08-09-2019 11:33:18 12.2 C 51 %
4379 08-09-2019 11:45:17 12.3 C 51 %
4380 08-09-2019 11:57:17 12.5 C 50 %
4381 08-09-2019 12:09:18 12.7 C 49 %
4382 08-09-2019 12:21:17 12.8 C 47 %
4383 08-09-2019 12:33:18 13.2 C 43 %
4384 08-09-2019 12:45:17 13.6 C 40 %
4385 08-09-2019 12:57:17 14.1 C 37 %
4386 08-09-2019 13:09:18 16 C 32 %
4387 08-09-2019 13:21:17 16.4 C 31 %
4388 08-09-2019 13:34:03 16.9 C 29 %
4389 08-09-2019 13:57:18 18.7 C 25 %
4390 08-09-2019 14:08:17 16.5 C 28 %
4391 08-09-2019 14:20:17 17.2 C 27 %
4392 08-09-2019 14:30:17 17.8 C 26 %
4393 08-09-2019 14:41:17 16.8 C 26 %
4394 08-09-2019 14:52:18 16.8 C 27 %
4395 08-09-2019 15:03:17 19.8 C 22 %
4396 08-09-2019 15:14:17 20.3 C 20 %
4397 08-09-2019 15:25:17 18.6 C 20 %
4398 08-09-2019 15:36:18 18.1 C 23 %
4399 08-09-2019 15:47:17 17.7 C 23 %
4400 08-09-2019 15:58:17 18.2 C 22 %
Sensor: Nr:Datum:Temp:Feuchte:
Aussen-T/F 4401 08-09-2019 16:09:17 17.7 C 23 %
4402 08-09-2019 16:20:18 16.6 C 28 %
4403 08-09-2019 16:31:17 14.3 C 39 %
4404 08-09-2019 16:42:17 13.9 C 46 %
4405 08-09-2019 16:53:18 13.3 C 46 %
4406 08-09-2019 17:04:17 13 C 50 %
4407 08-09-2019 17:15:17 12.6 C 52 %
4408 08-09-2019 17:26:17 12.8 C 52 %
4409 08-09-2019 17:37:18 12.8 C 52 %
4410 08-09-2019 17:48:18 12.9 C 50 %
4411 08-09-2019 17:59:18 12.7 C 46 %
4412 08-09-2019 18:11:17 12.5 C 46 %
4413 08-09-2019 18:21:17 12.4 C 50 %
4414 08-09-2019 18:32:17 12.2 C 50 %
4415 08-09-2019 18:43:17 12.3 C 52 %
4416 08-09-2019 18:54:17 12.4 C 52 %
4417 08-09-2019 19:06:17 12.5 C 53 %
4418 08-09-2019 19:16:18 12.6 C 53 %
4419 08-09-2019 19:27:18 12.7 C 53 %
4420 08-09-2019 19:38:17 12.7 C 53 %
4421 08-09-2019 19:49:18 12.6 C 53 %
4422 08-09-2019 20:00:17 12.5 C 54 %
4423 08-09-2019 20:11:17 12.3 C 55 %
4424 08-09-2019 20:23:17 12.1 C 48 %
4425 08-09-2019 20:33:17 12.1 C 47 %
Sensor: Nr:Datum:Temp:Feuchte:
Aussen-T/F 4426 08-09-2019 20:44:18 12.1 C 46 %
4427 08-09-2019 20:56:17 11.8 C 48 %
4428 08-09-2019 21:06:18 11.7 C 50 %
4429 08-09-2019 21:17:18 11.7 C 51 %
4430 08-09-2019 21:28:18 11.6 C 52 %
4431 08-09-2019 21:39:17 11.5 C 52 %
4432 08-09-2019 21:50:18 11.6 C 53 %
4433 08-09-2019 22:01:17 11.5 C 52 %
4434 08-09-2019 22:12:17 11.5 C 53 %
4435 08-09-2019 22:24:17 11.5 C 53 %
4436 08-09-2019 22:34:17 11.4 C 54 %
4437 08-09-2019 22:45:18 11.5 C 55 %
4438 08-09-2019 22:56:18 11.4 C 56 %
4439 08-09-2019 23:07:17 11.4 C 56 %
4440 08-09-2019 23:19:17 11.4 C 56 %
4441 08-09-2019 23:29:17 11.4 C 57 %
4442 08-09-2019 23:40:17 11.4 C 56 %
4443 08-09-2019 23:52:17 11.3 C 57 %
4444 09-09-2019 00:03:17 11.2 C 59 %
4445 09-09-2019 00:14:17 11.1 C 60 %
4446 09-09-2019 00:25:17 11.1 C 62 %
4447 09-09-2019 00:35:18 11.1 C 63 %
4448 09-09-2019 00:47:17 11 C 63 %
4449 09-09-2019 00:58:17 11 C 63 %
4450 09-09-2019 01:09:17 11 C 64 %
Sensor: Nr:Datum:Temp:Feuchte:
Aussen-T/F 4451 09-09-2019 01:20:17 11 C 64 %
4452 09-09-2019 01:31:17 10.9 C 63 %
4453 09-09-2019 01:42:17 10.8 C 63 %
4454 09-09-2019 01:53:17 11 C 64 %
4455 09-09-2019 02:04:18 11 C 64 %
4456 09-09-2019 02:15:17 11 C 63 %
4457 09-09-2019 02:26:17 11 C 63 %
4458 09-09-2019 02:37:17 10.9 C 63 %
4459 09-09-2019 02:48:17 10.9 C 62 %
4460 09-09-2019 02:59:17 10.9 C 62 %
4461 09-09-2019 03:10:17 11 C 62 %
4462 09-09-2019 03:21:18 11 C 62 %
4463 09-09-2019 03:32:17 11 C 61 %
4464 09-09-2019 03:43:17 11 C 60 %
4465 09-09-2019 03:54:18 11 C 60 %
4466 09-09-2019 04:05:17 10.9 C 60 %
4467 09-09-2019 04:16:17 10.9 C 59 %
4468 09-09-2019 04:27:17 10.9 C 59 %
4469 09-09-2019 04:38:17 11 C 58 %
4470 09-09-2019 04:49:18 11 C 57 %
4471 09-09-2019 05:00:17 10.9 C 56 %
4472 09-09-2019 05:11:17 10.9 C 57 %
4473 09-09-2019 05:22:17 10.9 C 57 %
4474 09-09-2019 05:33:17 10.9 C 57 %
4475 09-09-2019 05:44:17 10.9 C 57 %
Sensor: Nr:Datum:Temp:Feuchte:
Aussen-T/F 4476 09-09-2019 05:55:17 10.9 C 56 %
4477 09-09-2019 06:06:17 10.9 C 56 %
4478 09-09-2019 06:17:17 10.9 C 55 %
4479 09-09-2019 06:28:17 10.9 C 55 %
4480 09-09-2019 06:39:18 10.9 C 54 %
4481 09-09-2019 06:50:17 10.9 C 55 %
4482 09-09-2019 07:01:17 10.9 C 57 %
4483 09-09-2019 07:12:18 10.9 C 58 %
4484 09-09-2019 07:23:17 10.9 C 57 %
4485 09-09-2019 07:34:18 10.9 C 57 %
4486 09-09-2019 07:45:17 11 C 55 %
4487 09-09-2019 07:56:17 10.9 C 55 %
4488 09-09-2019 08:07:18 10.9 C 54 %
4489 09-09-2019 08:18:17 10.9 C 54 %
4490 09-09-2019 08:29:17 10.9 C 54 %
4491 09-09-2019 08:40:17 11 C 53 %
4492 09-09-2019 08:51:17 11.1 C 53 %
4493 09-09-2019 09:02:18 11.4 C 50 %
4494 09-09-2019 09:13:18 11.6 C 49 %
4495 09-09-2019 09:24:17 11.7 C 46 %
4496 09-09-2019 09:35:17 12.1 C 43 %
4497 09-09-2019 09:46:17 12.2 C 41 %
4498 09-09-2019 09:57:17 12.1 C 40 %
4499 09-09-2019 10:08:17 11.8 C 42 %
4500 09-09-2019 10:19:18 11.5 C 45 %
Sensor: Nr:Datum:Temp:Feuchte:
Aussen-T/F 4501 09-09-2019 10:30:17 11.9 C 47 %
4502 09-09-2019 10:41:17 12.1 C 46 %
4503 09-09-2019 10:52:18 12.4 C 46 %
4504 09-09-2019 11:03:17 13 C 44 %
4505 09-09-2019 11:14:17 13.1 C 40 %
4506 09-09-2019 11:25:17 13.4 C 36 %
4507 09-09-2019 11:36:17 13.5 C 33 %
4508 09-09-2019 11:47:18 14 C 32 %
4509 09-09-2019 11:58:18 14.3 C 32 %
4510 09-09-2019 12:09:17 14.2 C 32 %
4511 09-09-2019 12:20:17 13.8 C 32 %
4512 09-09-2019 12:31:17 13.8 C 32 %
4513 09-09-2019 12:42:17 14.3 C 32 %
4514 09-09-2019 12:53:18 15.4 C 30 %
4515 09-09-2019 13:04:17 15.5 C 29 %
4516 09-09-2019 13:15:18 15.8 C 28 %
4517 09-09-2019 13:26:18 16.2 C 27 %
4518 09-09-2019 13:37:17 15 C 28 %
4519 09-09-2019 13:48:18 15.8 C 26 %
4520 09-09-2019 13:59:18 16 C 25 %
4521 09-09-2019 14:10:17 16.2 C 25 %
4522 09-09-2019 14:21:18 15.4 C 23 %
4523 09-09-2019 14:32:17 16 C 25 %
4524 09-09-2019 14:43:17 15.5 C 24 %
4525 09-09-2019 14:54:18 15.5 C 25 %
Sensor: Nr:Datum:Temp:Feuchte:
Aussen-T/F 4526 09-09-2019 15:05:17 15.4 C 25 %
4527 09-09-2019 15:16:17 15.4 C 27 %
4528 09-09-2019 15:27:17 16 C 25 %
4529 09-09-2019 15:38:17 16.4 C 25 %
4530 09-09-2019 15:49:17 17.1 C 22 %
4531 09-09-2019 16:00:17 16.5 C 23 %
4532 09-09-2019 16:11:17 16.3 C 23 %
4533 09-09-2019 16:22:17 16 C 25 %
4534 09-09-2019 16:46:17 30.3 C 33 %
4535 09-09-2019 16:49:17 30.3 C 33 %
4536 09-09-2019 16:52:17 30.3 C 33 %
4537 09-09-2019 16:55:17 30.3 C 33 %
4538 09-09-2019 16:58:18 30.3 C 33 %
4539 09-09-2019 17:01:17 30.3 C 33 %
4540 09-09-2019 17:04:17 30.3 C 33 %
4541 09-09-2019 17:07:17 30.3 C 33 %
4542 09-09-2019 17:10:17 30.3 C 33 %
4543 09-09-2019 17:13:17 30.3 C 33 %
4544 09-09-2019 17:16:17 30.3 C 33 %
4545 09-09-2019 17:19:17 30.3 C 33 %
4546 09-09-2019 17:22:17 30.3 C 33 %
4547 09-09-2019 17:25:17 30.3 C 33 %
4548 09-09-2019 17:28:17 30.3 C 33 %
4549 09-09-2019 17:31:18 30.3 C 33 %
4550 09-09-2019 17:34:18 30.3 C 33 %
Sensor: Nr:Datum:Temp:Feuchte:
Aussen-T/F 4551 09-09-2019 17:37:18 30.3 C 33 %
4552 09-09-2019 17:40:18 30.3 C 33 %
4553 09-09-2019 17:43:18 30.3 C 33 %
4554 09-09-2019 17:46:17 30.3 C 33 %
4555 09-09-2019 17:49:17 30.3 C 33 %
4556 09-09-2019 17:52:17 30.3 C 33 %
4557 09-09-2019 17:55:17 30.3 C 33 %
4558 09-09-2019 17:58:17 30.3 C 33 %
4559 09-09-2019 18:14:17 30.3 C 33 %
4560 09-09-2019 18:24:17 16.8 C 20 %
4561 09-09-2019 18:34:17 16.4 C 20 %
4562 09-09-2019 18:44:18 16 C 20 %
4563 09-09-2019 18:54:17 15 C 20 %
4564 09-09-2019 19:04:18 14.2 C 20 %
4565 09-09-2019 19:14:18 13.6 C 20 %
4566 09-09-2019 19:24:17 13.1 C 20 %
4567 09-09-2019 19:34:18 12.7 C 20 %
4568 09-09-2019 19:44:18 12 C 20 %
4569 09-09-2019 19:54:17 11.9 C 20 %
4570 09-09-2019 20:04:18 11.8 C 20 %
4571 09-09-2019 20:14:18 11.5 C 20 %
4572 09-09-2019 20:24:17 11.5 C 20 %
4573 09-09-2019 20:34:17 11.1 C 20 %
4574 09-09-2019 20:44:17 10.8 C 20 %
4575 09-09-2019 20:54:17 10.6 C 20 %
Sensor: Nr:Datum:Temp:Feuchte:
Aussen-T/F 4576 09-09-2019 21:04:17 10.3 C 20 %
4577 09-09-2019 21:14:17 10 C 20 %
4578 09-09-2019 21:24:17 10.4 C 20 %
4579 09-09-2019 21:34:17 10 C 20 %
4580 09-09-2019 21:44:17 9.9 C 20 %
4581 09-09-2019 21:54:17 9.6 C 20 %
4582 09-09-2019 22:04:17 9.3 C 20 %
4583 09-09-2019 22:14:17 9.5 C 20 %
4584 09-09-2019 22:24:18 9.5 C 20 %
4585 09-09-2019 22:34:17 9.1 C 20 %
4586 09-09-2019 22:44:17 9 C 20 %
4587 09-09-2019 22:54:18 8.8 C 21 %
4588 09-09-2019 23:04:17 8.8 C 23 %
4589 09-09-2019 23:14:17 8.7 C 23 %
4590 09-09-2019 23:24:17 8.7 C 25 %
4591 09-09-2019 23:34:17 8.5 C 25 %
4592 09-09-2019 23:44:17 8.2 C 25 %
4593 09-09-2019 23:54:17 8.1 C 25 %
4594 10-09-2019 00:04:17 7.9 C 25 %
4595 10-09-2019 00:14:17 8 C 25 %
4596 10-09-2019 00:24:17 7.9 C 25 %
4597 10-09-2019 00:34:17 8.1 C 26 %
4598 10-09-2019 00:44:17 8 C 26 %
4599 10-09-2019 00:54:17 8 C 26 %
4600 10-09-2019 01:04:17 7.8 C 26 %
Sensor: Nr:Datum:Temp:Feuchte:
Aussen-T/F 4601 10-09-2019 01:14:17 7.7 C 26 %
4602 10-09-2019 01:24:17 7.8 C 26 %
4603 10-09-2019 01:34:17 7.8 C 27 %
4604 10-09-2019 01:44:17 7.7 C 26 %
4605 10-09-2019 01:54:17 7.6 C 26 %
4606 10-09-2019 02:04:18 7.5 C 26 %
4607 10-09-2019 02:14:18 7.4 C 26 %
4608 10-09-2019 02:24:17 7.8 C 27 %
4609 10-09-2019 02:34:17 8 C 27 %
4610 10-09-2019 02:44:17 7.9 C 27 %
4611 10-09-2019 02:54:17 8.1 C 28 %
4612 10-09-2019 03:04:17 8.1 C 27 %
4613 10-09-2019 03:14:17 8.1 C 27 %
4614 10-09-2019 03:24:17 7.9 C 27 %
4615 10-09-2019 03:34:17 8.1 C 28 %
4616 10-09-2019 03:44:17 8.2 C 28 %
4617 10-09-2019 03:54:17 8.2 C 28 %
4618 10-09-2019 04:04:18 8.2 C 28 %
4619 10-09-2019 04:14:18 8.2 C 28 %
4620 10-09-2019 04:24:17 8.2 C 28 %
4621 10-09-2019 04:34:17 8.2 C 28 %
4622 10-09-2019 04:44:17 8.2 C 28 %
4623 10-09-2019 04:54:17 8.2 C 28 %
4624 10-09-2019 05:04:17 8.1 C 28 %
4625 10-09-2019 05:14:17 8.1 C 28 %
Sensor: Nr:Datum:Temp:Feuchte:
Aussen-T/F 4626 10-09-2019 05:24:17 8 C 28 %
4627 10-09-2019 05:34:17 8 C 28 %
4628 10-09-2019 05:44:17 7.9 C 28 %
4629 10-09-2019 05:54:17 7.9 C 28 %
4630 10-09-2019 06:04:18 7.8 C 27 %
4631 10-09-2019 06:14:18 7.7 C 27 %
4632 10-09-2019 06:24:17 7.8 C 28 %
4633 10-09-2019 06:34:17 7.8 C 28 %
4634 10-09-2019 06:44:17 7.8 C 28 %
4635 10-09-2019 06:54:18 7.9 C 28 %
4636 10-09-2019 07:04:17 7.8 C 28 %
4637 10-09-2019 07:14:17 7.7 C 28 %
4638 10-09-2019 07:24:17 7.8 C 28 %
4639 10-09-2019 07:34:17 7.7 C 27 %
4640 10-09-2019 07:44:17 7.8 C 28 %
4641 10-09-2019 07:54:17 8 C 27 %
4642 10-09-2019 08:04:17 8 C 27 %
4643 10-09-2019 08:14:18 7.8 C 26 %
4644 10-09-2019 08:24:17 7.8 C 26 %
4645 10-09-2019 08:34:18 8 C 26 %
4646 10-09-2019 08:44:18 8.1 C 26 %
4647 10-09-2019 08:54:17 8.2 C 26 %
4648 10-09-2019 09:04:18 8.3 C 26 %
4649 10-09-2019 09:14:18 8.5 C 26 %
4650 10-09-2019 09:24:17 8.7 C 25 %
Sensor: Nr:Datum:Temp:Feuchte: